GEFSSE_prec_meanprec_108.txt.gz
QPF
0.00 0.00 0.00 0.00 0.00 0.00 0.00 0.00 0.00 0.00 0.00 0.00 0.00 0.00 0.00 0.00 0.00 0.00 0.00 0.00 0.00 0.00 0.00 0.01 0.01 0.01 0.01 0.01 0.01 0.00 0.00 0.00 0.00 0.00 0.00 0.00 0.00 0.00 0.00 0.00 0.01 0.00 0.00
0.00 0.00 0.00 0.00 0.00 0.00 0.00 0.00 0.00 0.00 0.00 0.00 0.00 0.00 0.00 0.00 0.00 0.00 0.00 0.00 0.00 0.00 0.00 0.00 0.01 0.01 0.01 0.01 0.00 0.00 0.00 0.00 0.00 0.00 0.00 0.00 0.00 0.00 0.00 0.00 0.02 0.01 0.00
0.00 0.00 0.00 0.00 0.00 0.00 0.00 0.00 0.00 0.00 0.00 0.00 0.00 0.00 0.00 0.00 0.00 0.00 0.00 0.00 0.00 0.00 0.00 0.00 0.01 0.01 0.01 0.01 0.00 0.00 0.00 0.00 0.00 0.00 0.02 0.03 0.00 0.00 0.00 0.00 0.01 0.01 0.00
0.00 0.00 0.00 0.00 0.00 0.00 0.00 0.00 0.00 0.00 0.00 0.00 0.00 0.00 0.00 0.00 0.00 0.00 0.00 0.00 0.00 0.00 0.00 0.00 0.00 0.00 0.01 0.01 0.01 0.00 0.00 0.00 0.01 0.03 0.08 0.05 0.01 0.00 0.00 0.00 0.01 0.00 0.00
0.01 0.00 0.00 0.00 0.00 0.00 0.00 0.00 0.00 0.00 0.00 0.00 0.00 0.00 0.00 0.00 0.00 0.00 0.00 0.00 0.00 0.00 0.00 0.00 0.00 0.00 0.00 0.01 0.01 0.00 0.00 0.00 0.01 0.04 0.06 0.04 0.03 0.01 0.00 0.00 0.01 0.00 0.00
0.01 0.01 0.00 0.00 0.00 0.00 0.00 0.00 0.00 0.00 0.01 0.01 0.00 0.01 0.00 0.00 0.00 0.00 0.00 0.00 0.00 0.00 0.00 0.00 0.00 0.00 0.00 0.00 0.00 0.00 0.00 0.01 0.02 0.03 0.03 0.04 0.04 0.01 0.00 0.00 0.01 0.01 0.01
0.01 0.01 0.00 0.00 0.00 0.00 0.00 0.00 0.00 0.00 0.01 0.00 0.01 0.01 0.01 0.00 0.00 0.00 0.00 0.00 0.00 0.00 0.00 0.00 0.00 0.00 0.00 0.00 0.00 0.00 0.00 0.01 0.03 0.03 0.02 0.03 0.05 0.01 0.00 0.00 0.01 0.01 0.01
0.00 0.01 0.00 0.00 0.00 0.00 0.00 0.00 0.00 0.00 0.01 0.01 0.01 0.01 0.01 0.00 0.00 0.00 0.00 0.00 0.00 0.00 0.00 0.00 0.00 0.00 0.00 0.00 0.00 0.00 0.00 0.01 0.01 0.02 0.02 0.04 0.03 0.01 0.01 0.00 0.01 0.01 0.01
0.00 0.01 0.01 0.01 0.01 0.00 0.00 0.00 0.00 0.01 0.01 0.01 0.01 0.01 0.01 0.00 0.00 0.00 0.00 0.01 0.00 0.00 0.00 0.00 0.00 0.00 0.00 0.00 0.01 0.00 0.00 0.00 0.01 0.02 0.03 0.04 0.02 0.01 0.01 0.01 0.02 0.02 0.01
0.02 0.02 0.03 0.02 0.00 0.00 0.00 0.00 0.00 0.01 0.01 0.01 0.01 0.01 0.01 0.01 0.00 0.00 0.00 0.01 0.00 0.00 0.00 0.00 0.00 0.00 0.00 0.00 0.00 0.00 0.00 0.00 0.02 0.03 0.09 0.06 0.01 0.00 0.01 0.02 0.03 0.03 0.03
0.04 0.02 0.03 0.03 0.02 0.01 0.00 0.01 0.01 0.01 0.01 0.01 0.02 0.02 0.01 0.02 0.02 0.02 0.01 0.01 0.01 0.00 0.00 0.01 0.01 0.00 0.00 0.00 0.00 0.00 0.00 0.01 0.04 0.04 0.04 0.03 0.01 0.01 0.02 0.02 0.03 0.03 0.04
0.07 0.08 0.05 0.07 0.08 0.08 0.05 0.03 0.03 0.02 0.02 0.02 0.04 0.03 0.03 0.07 0.08 0.06 0.06 0.03 0.02 0.01 0.01 0.01 0.01 0.00 0.00 0.00 0.01 0.01 0.00 0.01 0.04 0.03 0.02 0.03 0.02 0.01 0.02 0.03 0.03 0.03 0.04
0.06 0.13 0.10 0.09 0.16 0.20 0.14 0.12 0.13 0.11 0.11 0.11 0.12 0.11 0.10 0.14 0.11 0.09 0.10 0.06 0.04 0.03 0.04 0.03 0.01 0.01 0.01 0.01 0.01 0.01 0.01 0.03 0.03 0.03 0.02 0.02 0.02 0.02 0.02 0.04 0.03 0.04 0.05
0.07 0.11 0.17 0.19 0.19 0.23 0.30 0.30 0.37 0.33 0.28 0.24 0.25 0.21 0.21 0.24 0.19 0.20 0.21 0.14 0.11 0.09 0.10 0.09 0.06 0.03 0.02 0.01 0.00 0.01 0.02 0.02 0.02 0.03 0.03 0.02 0.02 0.02 0.02 0.04 0.04 0.05 0.06
0.09 0.14 0.19 0.24 0.25 0.27 0.35 0.35 0.38 0.39 0.32 0.27 0.26 0.28 0.33 0.35 0.31 0.30 0.26 0.28 0.19 0.13 0.10 0.08 0.06 0.05 0.05 0.03 0.02 0.02 0.02 0.03 0.02 0.03 0.04 0.03 0.01 0.01 0.02 0.03 0.04 0.04 0.05
0.13 0.18 0.23 0.26 0.30 0.29 0.30 0.30 0.31 0.30 0.28 0.29 0.31 0.26 0.28 0.32 0.40 0.44 0.39 0.32 0.25 0.18 0.13 0.09 0.07 0.06 0.06 0.05 0.04 0.05 0.03 0.03 0.04 0.06 0.08 0.06 0.03 0.01 0.02 0.02 0.02 0.03 0.05
0.18 0.30 0.37 0.29 0.35 0.36 0.29 0.23 0.19 0.19 0.25 0.28 0.37 0.41 0.34 0.30 0.38 0.45 0.47 0.40 0.32 0.24 0.19 0.14 0.11 0.10 0.08 0.08 0.07 0.06 0.05 0.05 0.05 0.05 0.07 0.08 0.08 0.05 0.02 0.01 0.02 0.03 0.04
0.17 0.22 0.30 0.25 0.28 0.37 0.37 0.28 0.23 0.21 0.24 0.26 0.28 0.36 0.40 0.36 0.33 0.37 0.39 0.34 0.28 0.22 0.22 0.19 0.15 0.13 0.11 0.10 0.10 0.08 0.09 0.08 0.06 0.06 0.07 0.08 0.09 0.07 0.04 0.03 0.03 0.03 0.03
0.17 0.21 0.27 0.28 0.30 0.35 0.38 0.39 0.40 0.39 0.36 0.33 0.30 0.30 0.33 0.38 0.35 0.32 0.34 0.30 0.24 0.22 0.20 0.15 0.16 0.16 0.16 0.15 0.11 0.10 0.10 0.09 0.08 0.06 0.06 0.06 0.06 0.06 0.06 0.05 0.03 0.03 0.04
0.16 0.19 0.22 0.29 0.33 0.33 0.34 0.37 0.39 0.40 0.39 0.40 0.40 0.36 0.31 0.31 0.35 0.32 0.36 0.36 0.30 0.26 0.24 0.21 0.21 0.17 0.15 0.13 0.10 0.11 0.12 0.09 0.08 0.07 0.09 0.07 0.05 0.03 0.04 0.06 0.05 0.04 0.03
0.14 0.19 0.22 0.24 0.29 0.32 0.31 0.28 0.29 0.31 0.31 0.35 0.38 0.34 0.29 0.25 0.27 0.30 0.30 0.33 0.28 0.23 0.20 0.21 0.21 0.19 0.15 0.12 0.14 0.14 0.11 0.10 0.09 0.09 0.08 0.07 0.05 0.04 0.04 0.05 0.05 0.04 0.04
0.09 0.14 0.20 0.20 0.24 0.27 0.26 0.27 0.29 0.32 0.34 0.33 0.32 0.31 0.25 0.22 0.26 0.31 0.30 0.29 0.28 0.26 0.21 0.19 0.19 0.19 0.15 0.11 0.12 0.14 0.12 0.10 0.09 0.08 0.07 0.06 0.05 0.04 0.04 0.04 0.04 0.04 0.04
0.08 0.10 0.13 0.15 0.16 0.19 0.24 0.27 0.30 0.31 0.28 0.24 0.19 0.18 0.18 0.17 0.20 0.25 0.26 0.26 0.25 0.27 0.29 0.25 0.21 0.17 0.14 0.11 0.13 0.17 0.17 0.14 0.10 0.08 0.05 0.05 0.04 0.04 0.04 0.05 0.04 0.04 0.04
0.07 0.07 0.09 0.12 0.14 0.17 0.20 0.22 0.21 0.22 0.21 0.18 0.15 0.14 0.13 0.13 0.14 0.17 0.18 0.17 0.17 0.18 0.21 0.23 0.23 0.21 0.17 0.13 0.11 0.12 0.12 0.13 0.11 0.08 0.05 0.04 0.03 0.04 0.04 0.04 0.04 0.04 0.05
0.07 0.07 0.08 0.09 0.10 0.11 0.15 0.17 0.15 0.14 0.14 0.13 0.12 0.13 0.15 0.15 0.14 0.15 0.14 0.12 0.12 0.13 0.14 0.15 0.16 0.18 0.17 0.13 0.10 0.08 0.06 0.08 0.09 0.07 0.05 0.04 0.03 0.03 0.04 0.04 0.03 0.03 0.03
0.07 0.07 0.09 0.11 0.12 0.12 0.15 0.16 0.13 0.11 0.11 0.10 0.10 0.12 0.14 0.17 0.19 0.20 0.19 0.16 0.15 0.17 0.16 0.14 0.13 0.13 0.13 0.12 0.09 0.06 0.06 0.06 0.06 0.05 0.05 0.04 0.04 0.04 0.04 0.04 0.05 0.05 0.05

GEFSSE_prec_meanprec_114.txt.gz
QPF
0.01 0.00 0.00 0.00 0.00 0.00 0.00 0.00 0.00 0.00 0.00 0.00 0.00 0.00 0.00 0.00 0.00 0.00 0.00 0.00 0.00 0.00 0.00 0.00 0.01 0.01 0.01 0.01 0.01 0.01 0.00 0.00 0.00 0.00 0.00 0.00 0.00 0.00 0.00 0.00 0.00 0.00 0.00
0.01 0.00 0.00 0.00 0.00 0.00 0.00 0.00 0.00 0.00 0.00 0.00 0.00 0.00 0.00 0.00 0.00 0.00 0.00 0.00 0.00 0.00 0.00 0.00 0.01 0.01 0.01 0.00 0.01 0.01 0.00 0.00 0.01 0.01 0.00 0.00 0.00 0.00 0.00 0.00 0.00 0.00 0.00
0.01 0.00 0.00 0.00 0.00 0.00 0.00 0.00 0.00 0.00 0.00 0.00 0.00 0.00 0.00 0.00 0.00 0.00 0.00 0.00 0.00 0.00 0.00 0.00 0.00 0.00 0.00 0.00 0.00 0.00 0.00 0.01 0.01 0.01 0.01 0.01 0.00 0.00 0.00 0.00 0.00 0.00 0.00
0.00 0.00 0.00 0.00 0.00 0.00 0.00 0.00 0.00 0.00 0.00 0.00 0.00 0.00 0.00 0.00 0.00 0.00 0.00 0.00 0.00 0.00 0.00 0.00 0.00 0.00 0.00 0.00 0.00 0.00 0.01 0.01 0.02 0.02 0.02 0.01 0.01 0.01 0.00 0.00 0.00 0.00 0.00
0.01 0.00 0.00 0.00 0.00 0.00 0.00 0.00 0.00 0.00 0.00 0.00 0.00 0.00 0.00 0.00 0.00 0.00 0.00 0.00 0.00 0.00 0.00 0.00 0.00 0.00 0.00 0.00 0.00 0.01 0.01 0.02 0.04 0.05 0.06 0.04 0.01 0.01 0.01 0.00 0.00 0.00 0.00
0.01 0.00 0.00 0.00 0.00 0.00 0.00 0.00 0.00 0.00 0.00 0.00 0.00 0.00 0.00 0.00 0.00 0.00 0.00 0.00 0.00 0.00 0.00 0.00 0.00 0.00 0.00 0.00 0.00 0.01 0.01 0.03 0.04 0.06 0.08 0.06 0.03 0.02 0.01 0.00 0.00 0.00 0.00
0.01 0.00 0.00 0.00 0.00 0.00 0.00 0.00 0.00 0.00 0.00 0.00 0.00 0.00 0.00 0.00 0.00 0.00 0.00 0.00 0.00 0.00 0.00 0.00 0.00 0.00 0.00 0.00 0.01 0.01 0.01 0.03 0.04 0.06 0.08 0.08 0.03 0.03 0.01 0.00 0.00 0.00 0.00
0.02 0.02 0.01 0.00 0.00 0.01 0.00 0.00 0.00 0.00 0.00 0.00 0.01 0.01 0.00 0.00 0.00 0.00 0.00 0.00 0.00 0.00 0.00 0.00 0.00 0.00 0.00 0.00 0.01 0.01 0.01 0.03 0.03 0.06 0.07 0.07 0.03 0.02 0.01 0.01 0.00 0.00 0.00
0.03 0.02 0.02 0.02 0.01 0.01 0.01 0.01 0.02 0.02 0.02 0.02 0.02 0.01 0.01 0.01 0.00 0.00 0.00 0.00 0.00 0.00 0.00 0.00 0.00 0.00 0.00 0.00 0.01 0.01 0.02 0.03 0.04 0.10 0.09 0.06 0.03 0.03 0.02 0.01 0.01 0.01 0.01
0.11 0.12 0.15 0.10 0.06 0.02 0.01 0.02 0.03 0.04 0.04 0.04 0.04 0.03 0.02 0.02 0.01 0.01 0.01 0.01 0.01 0.01 0.01 0.00 0.00 0.00 0.00 0.01 0.01 0.01 0.01 0.02 0.03 0.08 0.12 0.09 0.05 0.05 0.03 0.02 0.01 0.01 0.01
0.20 0.24 0.16 0.11 0.08 0.06 0.05 0.05 0.05 0.05 0.05 0.05 0.04 0.03 0.03 0.03 0.03 0.03 0.03 0.03 0.02 0.01 0.01 0.01 0.01 0.01 0.01 0.00 0.01 0.01 0.01 0.02 0.04 0.08 0.08 0.06 0.06 0.05 0.04 0.03 0.02 0.03 0.02
0.19 0.28 0.31 0.20 0.19 0.17 0.15 0.12 0.08 0.05 0.05 0.04 0.03 0.03 0.03 0.03 0.04 0.04 0.05 0.04 0.04 0.03 0.03 0.02 0.02 0.01 0.01 0.00 0.01 0.01 0.02 0.03 0.05 0.08 0.06 0.06 0.08 0.06 0.05 0.03 0.02 0.02 0.03
0.17 0.23 0.36 0.28 0.16 0.14 0.16 0.15 0.11 0.06 0.06 0.06 0.05 0.04 0.04 0.05 0.06 0.07 0.08 0.09 0.09 0.07 0.05 0.04 0.03 0.02 0.02 0.02 0.01 0.02 0.03 0.04 0.06 0.06 0.05 0.05 0.06 0.06 0.05 0.04 0.03 0.03 0.02
0.20 0.24 0.31 0.36 0.23 0.16 0.16 0.17 0.14 0.11 0.10 0.08 0.05 0.05 0.07 0.11 0.14 0.14 0.15 0.17 0.21 0.18 0.12 0.09 0.06 0.04 0.04 0.04 0.03 0.04 0.06 0.06 0.06 0.05 0.04 0.06 0.07 0.08 0.07 0.05 0.04 0.03 0.03
0.22 0.24 0.29 0.33 0.36 0.29 0.24 0.22 0.17 0.12 0.09 0.09 0.08 0.08 0.09 0.12 0.18 0.22 0.26 0.32 0.41 0.31 0.19 0.14 0.10 0.09 0.08 0.07 0.08 0.09 0.10 0.12 0.09 0.06 0.05 0.07 0.07 0.08 0.07 0.06 0.04 0.04 0.04
0.25 0.26 0.32 0.35 0.33 0.31 0.32 0.34 0.28 0.23 0.16 0.13 0.14 0.15 0.14 0.16 0.24 0.26 0.30 0.32 0.36 0.32 0.23 0.18 0.16 0.15 0.16 0.14 0.13 0.14 0.14 0.15 0.12 0.09 0.08 0.08 0.06 0.06 0.06 0.06 0.05 0.04 0.04
0.28 0.25 0.31 0.41 0.35 0.27 0.29 0.41 0.36 0.33 0.36 0.28 0.24 0.29 0.27 0.25 0.23 0.26 0.32 0.34 0.34 0.36 0.28 0.22 0.22 0.22 0.20 0.17 0.18 0.17 0.17 0.17 0.11 0.10 0.12 0.13 0.10 0.07 0.05 0.04 0.03 0.04 0.04
0.26 0.29 0.30 0.33 0.32 0.31 0.35 0.40 0.43 0.40 0.39 0.40 0.31 0.33 0.31 0.38 0.32 0.25 0.26 0.26 0.25 0.29 0.30 0.28 0.29 0.30 0.24 0.21 0.21 0.17 0.16 0.14 0.11 0.09 0.09 0.11 0.12 0.10 0.06 0.04 0.03 0.04 0.05
0.22 0.29 0.35 0.40 0.39 0.37 0.42 0.51 0.53 0.58 0.50 0.45 0.43 0.39 0.34 0.33 0.30 0.26 0.26 0.24 0.26 0.28 0.29 0.27 0.25 0.26 0.27 0.23 0.22 0.19 0.16 0.14 0.11 0.09 0.10 0.09 0.09 0.10 0.08 0.05 0.04 0.05 0.05
0.14 0.20 0.27 0.34 0.44 0.38 0.38 0.45 0.51 0.55 0.54 0.52 0.54 0.49 0.44 0.42 0.38 0.33 0.31 0.29 0.25 0.24 0.26 0.28 0.29 0.28 0.24 0.20 0.21 0.21 0.17 0.15 0.13 0.12 0.10 0.10 0.10 0.09 0.08 0.07 0.07 0.06 0.04
0.10 0.14 0.18 0.23 0.33 0.39 0.42 0.49 0.52 0.47 0.45 0.45 0.44 0.51 0.52 0.47 0.39 0.33 0.32 0.32 0.29 0.24 0.22 0.24 0.28 0.30 0.29 0.22 0.20 0.20 0.18 0.15 0.13 0.12 0.11 0.10 0.09 0.08 0.08 0.08 0.06 0.05 0.05
0.08 0.09 0.14 0.18 0.22 0.27 0.37 0.47 0.55 0.52 0.46 0.43 0.41 0.36 0.38 0.39 0.36 0.31 0.30 0.31 0.31 0.24 0.20 0.19 0.19 0.22 0.22 0.21 0.20 0.19 0.16 0.16 0.13 0.11 0.10 0.09 0.08 0.07 0.07 0.05 0.05 0.05 0.04
0.07 0.07 0.09 0.09 0.12 0.16 0.20 0.28 0.36 0.41 0.41 0.37 0.33 0.28 0.23 0.23 0.27 0.28 0.24 0.23 0.26 0.24 0.20 0.16 0.17 0.17 0.19 0.19 0.16 0.15 0.13 0.12 0.12 0.11 0.08 0.07 0.07 0.05 0.04 0.04 0.04 0.04 0.04
0.07 0.08 0.08 0.08 0.10 0.13 0.14 0.16 0.19 0.22 0.26 0.25 0.23 0.20 0.17 0.16 0.16 0.18 0.18 0.16 0.17 0.16 0.16 0.14 0.14 0.13 0.14 0.15 0.14 0.11 0.10 0.07 0.07 0.07 0.05 0.03 0.02 0.03 0.02 0.02 0.03 0.02 0.02
0.09 0.12 0.11 0.08 0.09 0.11 0.11 0.11 0.11 0.12 0.15 0.19 0.19 0.15 0.13 0.12 0.11 0.09 0.10 0.12 0.13 0.12 0.10 0.08 0.09 0.09 0.10 0.12 0.13 0.12 0.09 0.06 0.04 0.03 0.03 0.02 0.01 0.01 0.01 0.01 0.02 0.02 0.02
0.08 0.10 0.10 0.10 0.10 0.13 0.13 0.10 0.09 0.09 0.11 0.15 0.17 0.15 0.14 0.12 0.10 0.08 0.09 0.10 0.10 0.11 0.09 0.08 0.07 0.10 0.13 0.16 0.17 0.17 0.12 0.07 0.05 0.04 0.03 0.02 0.02 0.02 0.01 0.01 0.01 0.02 0.03

GEFSSE_prec_meanprec_120.txt.gz
QPF
0.01 0.00 0.00 0.00 0.00 0.00 0.00 0.00 0.00 0.00 0.00 0.00 0.00 0.00 0.00 0.00 0.00 0.00 0.00 0.00 0.00 0.00 0.00 0.00 0.01 0.01 0.01 0.01 0.01 0.01 0.01 0.01 0.00 0.00 0.00 0.01 0.01 0.01 0.01 0.01 0.01 0.01 0.01
0.01 0.01 0.00 0.01 0.00 0.00 0.00 0.00 0.00 0.00 0.00 0.00 0.00 0.00 0.00 0.00 0.00 0.00 0.00 0.00 0.00 0.00 0.00 0.00 0.00 0.01 0.01 0.01 0.01 0.01 0.00 0.00 0.00 0.01 0.01 0.01 0.01 0.01 0.01 0.00 0.00 0.01 0.01
0.01 0.01 0.01 0.00 0.00 0.00 0.00 0.00 0.00 0.00 0.00 0.00 0.00 0.00 0.00 0.00 0.00 0.00 0.00 0.00 0.00 0.00 0.00 0.00 0.00 0.01 0.01 0.01 0.01 0.01 0.00 0.00 0.01 0.01 0.01 0.01 0.01 0.01 0.01 0.00 0.00 0.01 0.01
0.01 0.02 0.01 0.01 0.00 0.00 0.00 0.00 0.00 0.00 0.00 0.00 0.00 0.00 0.00 0.00 0.00 0.00 0.00 0.00 0.00 0.00 0.00 0.00 0.00 0.00 0.01 0.01 0.01 0.00 0.01 0.01 0.01 0.01 0.00 0.00 0.01 0.02 0.01 0.01 0.00 0.00 0.00
0.01 0.01 0.01 0.00 0.00 0.00 0.00 0.00 0.00 0.00 0.00 0.00 0.00 0.00 0.00 0.00 0.00 0.00 0.00 0.00 0.00 0.00 0.00 0.00 0.00 0.00 0.01 0.01 0.01 0.01 0.01 0.02 0.02 0.01 0.00 0.00 0.01 0.02 0.01 0.01 0.01 0.00 0.00
0.00 0.01 0.01 0.00 0.00 0.00 0.00 0.00 0.00 0.00 0.00 0.00 0.00 0.00 0.00 0.00 0.00 0.00 0.00 0.00 0.00 0.00 0.00 0.00 0.00 0.01 0.01 0.01 0.01 0.01 0.02 0.03 0.02 0.01 0.01 0.01 0.01 0.01 0.01 0.01 0.01 0.00 0.00
0.01 0.03 0.03 0.01 0.01 0.00 0.00 0.00 0.00 0.00 0.00 0.00 0.00 0.00 0.00 0.00 0.00 0.00 0.00 0.00 0.00 0.00 0.00 0.00 0.00 0.00 0.01 0.01 0.02 0.02 0.03 0.04 0.02 0.01 0.01 0.01 0.02 0.02 0.01 0.01 0.01 0.00 0.01
0.03 0.04 0.04 0.02 0.02 0.01 0.00 0.00 0.00 0.01 0.01 0.01 0.01 0.00 0.00 0.00 0.00 0.00 0.00 0.00 0.00 0.01 0.01 0.01 0.00 0.00 0.01 0.01 0.02 0.02 0.02 0.02 0.01 0.01 0.02 0.01 0.02 0.03 0.02 0.02 0.01 0.00 0.01
0.04 0.04 0.03 0.04 0.03 0.03 0.01 0.01 0.02 0.02 0.02 0.02 0.01 0.01 0.01 0.01 0.01 0.00 0.00 0.00 0.00 0.01 0.01 0.01 0.01 0.01 0.01 0.02 0.02 0.03 0.03 0.03 0.02 0.02 0.02 0.02 0.02 0.03 0.03 0.02 0.02 0.01 0.01
0.07 0.05 0.04 0.05 0.06 0.06 0.05 0.04 0.03 0.03 0.02 0.03 0.02 0.02 0.03 0.02 0.01 0.01 0.01 0.01 0.01 0.01 0.01 0.01 0.01 0.01 0.02 0.02 0.03 0.04 0.04 0.03 0.02 0.02 0.02 0.02 0.03 0.04 0.05 0.03 0.02 0.01 0.01
0.09 0.08 0.08 0.09 0.10 0.10 0.09 0.07 0.05 0.04 0.03 0.02 0.02 0.04 0.04 0.03 0.01 0.01 0.01 0.01 0.02 0.02 0.02 0.02 0.02 0.02 0.02 0.02 0.04 0.04 0.03 0.01 0.01 0.01 0.02 0.03 0.04 0.07 0.06 0.05 0.04 0.02 0.02
0.06 0.05 0.06 0.08 0.14 0.22 0.17 0.11 0.09 0.06 0.05 0.04 0.03 0.03 0.02 0.02 0.02 0.01 0.01 0.01 0.02 0.03 0.03 0.03 0.04 0.03 0.02 0.02 0.02 0.03 0.02 0.01 0.01 0.02 0.03 0.04 0.06 0.07 0.06 0.06 0.05 0.05 0.04
0.07 0.07 0.07 0.07 0.07 0.16 0.18 0.13 0.09 0.07 0.07 0.07 0.07 0.05 0.03 0.02 0.02 0.01 0.01 0.01 0.03 0.03 0.03 0.03 0.04 0.02 0.02 0.01 0.01 0.01 0.01 0.01 0.01 0.02 0.02 0.04 0.05 0.07 0.08 0.06 0.05 0.05 0.04
0.07 0.09 0.09 0.09 0.10 0.12 0.15 0.13 0.10 0.08 0.08 0.07 0.06 0.06 0.05 0.04 0.04 0.03 0.03 0.03 0.04 0.04 0.03 0.03 0.03 0.02 0.02 0.01 0.02 0.02 0.02 0.02 0.03 0.03 0.04 0.05 0.05 0.08 0.10 0.08 0.05 0.04 0.04
0.09 0.10 0.10 0.11 0.11 0.11 0.13 0.15 0.15 0.13 0.11 0.09 0.08 0.08 0.07 0.07 0.07 0.07 0.06 0.07 0.07 0.06 0.04 0.05 0.06 0.05 0.04 0.03 0.03 0.04 0.04 0.03 0.04 0.04 0.04 0.06 0.06 0.06 0.07 0.07 0.06 0.06 0.06
0.08 0.10 0.10 0.11 0.13 0.12 0.14 0.19 0.20 0.18 0.15 0.12 0.11 0.11 0.11 0.10 0.10 0.10 0.10 0.11 0.10 0.08 0.08 0.08 0.09 0.09 0.08 0.07 0.07 0.07 0.06 0.05 0.06 0.05 0.04 0.05 0.05 0.05 0.06 0.07 0.07 0.07 0.07
0.09 0.13 0.18 0.18 0.17 0.17 0.19 0.22 0.23 0.21 0.22 0.20 0.17 0.16 0.15 0.13 0.12 0.12 0.12 0.12 0.13 0.15 0.14 0.12 0.12 0.11 0.10 0.09 0.09 0.10 0.08 0.09 0.08 0.08 0.08 0.07 0.05 0.06 0.07 0.07 0.09 0.09 0.09
0.08 0.13 0.16 0.17 0.18 0.20 0.23 0.26 0.29 0.32 0.32 0.27 0.23 0.20 0.18 0.17 0.17 0.17 0.16 0.14 0.15 0.15 0.15 0.15 0.15 0.14 0.12 0.12 0.12 0.12 0.12 0.13 0.14 0.12 0.11 0.09 0.10 0.09 0.08 0.08 0.08 0.08 0.09
0.04 0.06 0.09 0.11 0.17 0.21 0.25 0.25 0.25 0.26 0.33 0.36 0.32 0.27 0.27 0.27 0.28 0.29 0.26 0.21 0.20 0.20 0.21 0.18 0.16 0.15 0.14 0.15 0.15 0.15 0.16 0.17 0.16 0.13 0.11 0.09 0.10 0.10 0.10 0.09 0.08 0.07 0.07
0.04 0.04 0.06 0.08 0.14 0.22 0.25 0.28 0.26 0.24 0.27 0.32 0.31 0.29 0.28 0.28 0.30 0.34 0.33 0.28 0.26 0.24 0.24 0.23 0.20 0.20 0.21 0.21 0.21 0.19 0.18 0.21 0.20 0.15 0.13 0.11 0.10 0.10 0.10 0.09 0.09 0.08 0.08
0.08 0.08 0.09 0.09 0.11 0.18 0.20 0.20 0.20 0.25 0.27 0.28 0.32 0.33 0.27 0.25 0.28 0.30 0.33 0.32 0.31 0.28 0.24 0.23 0.23 0.22 0.21 0.20 0.21 0.21 0.18 0.18 0.20 0.17 0.14 0.13 0.11 0.10 0.09 0.09 0.08 0.07 0.07
0.08 0.07 0.07 0.09 0.09 0.11 0.14 0.17 0.21 0.26 0.27 0.25 0.27 0.29 0.26 0.24 0.27 0.28 0.32 0.33 0.30 0.29 0.27 0.25 0.24 0.22 0.21 0.19 0.19 0.20 0.19 0.19 0.17 0.15 0.13 0.09 0.08 0.08 0.08 0.09 0.09 0.07 0.06
0.03 0.04 0.05 0.08 0.08 0.09 0.10 0.11 0.14 0.20 0.19 0.19 0.21 0.25 0.24 0.20 0.22 0.29 0.34 0.34 0.32 0.30 0.28 0.25 0.25 0.25 0.21 0.21 0.20 0.18 0.14 0.14 0.15 0.14 0.11 0.08 0.07 0.07 0.06 0.07 0.07 0.08 0.09
0.04 0.05 0.06 0.07 0.07 0.08 0.09 0.10 0.11 0.11 0.10 0.11 0.12 0.16 0.18 0.16 0.13 0.18 0.29 0.31 0.30 0.29 0.26 0.25 0.25 0.25 0.24 0.21 0.19 0.14 0.11 0.09 0.09 0.12 0.12 0.10 0.08 0.06 0.05 0.05 0.05 0.05 0.06
0.06 0.06 0.08 0.08 0.07 0.09 0.13 0.12 0.11 0.11 0.11 0.10 0.10 0.11 0.13 0.11 0.10 0.11 0.16 0.20 0.22 0.23 0.21 0.23 0.27 0.27 0.25 0.23 0.22 0.18 0.12 0.09 0.08 0.08 0.09 0.10 0.10 0.08 0.06 0.05 0.05 0.04 0.03
0.06 0.07 0.07 0.09 0.08 0.09 0.13 0.14 0.13 0.13 0.11 0.10 0.09 0.09 0.09 0.08 0.07 0.09 0.13 0.14 0.15 0.17 0.17 0.16 0.18 0.22 0.22 0.22 0.21 0.19 0.16 0.13 0.11 0.09 0.09 0.09 0.09 0.09 0.07 0.05 0.05 0.04 0.03

GEFSSE_prec_meanprec_126.txt.gz
QPF
0.01 0.00 0.00 0.00 0.00 0.00 0.00 0.00 0.01 0.01 0.01 0.01 0.00 0.00 0.00 0.00 0.00 0.00 0.00 0.00 0.00 0.01 0.01 0.01 0.01 0.01 0.01 0.01 0.01 0.01 0.01 0.01 0.00 0.00 0.00 0.01 0.01 0.01 0.01 0.00 0.00 0.00 0.00
0.00 0.00 0.00 0.00 0.00 0.01 0.00 0.00 0.00 0.01 0.00 0.00 0.00 0.00 0.00 0.00 0.00 0.00 0.00 0.00 0.01 0.01 0.01 0.01 0.01 0.01 0.01 0.01 0.01 0.00 0.00 0.00 0.00 0.01 0.01 0.01 0.00 0.01 0.01 0.00 0.00 0.00 0.01
0.01 0.01 0.00 0.00 0.01 0.02 0.01 0.00 0.00 0.01 0.01 0.00 0.00 0.00 0.00 0.00 0.00 0.00 0.00 0.00 0.01 0.01 0.01 0.01 0.01 0.01 0.01 0.01 0.00 0.00 0.00 0.00 0.01 0.01 0.01 0.01 0.01 0.00 0.01 0.00 0.00 0.00 0.01
0.01 0.01 0.01 0.01 0.01 0.01 0.01 0.01 0.01 0.01 0.00 0.00 0.00 0.00 0.00 0.00 0.00 0.00 0.00 0.00 0.00 0.01 0.01 0.01 0.01 0.01 0.01 0.00 0.00 0.00 0.00 0.01 0.01 0.01 0.01 0.01 0.01 0.00 0.01 0.00 0.00 0.00 0.00
0.00 0.01 0.01 0.01 0.01 0.01 0.01 0.01 0.01 0.00 0.00 0.00 0.00 0.00 0.00 0.00 0.00 0.00 0.00 0.00 0.00 0.00 0.01 0.01 0.00 0.00 0.00 0.00 0.01 0.00 0.01 0.01 0.01 0.01 0.01 0.02 0.03 0.01 0.01 0.01 0.01 0.00 0.00
0.01 0.02 0.02 0.02 0.01 0.01 0.01 0.01 0.01 0.01 0.01 0.00 0.00 0.00 0.00 0.00 0.00 0.00 0.00 0.00 0.01 0.01 0.01 0.00 0.00 0.00 0.00 0.01 0.01 0.01 0.01 0.01 0.01 0.00 0.01 0.01 0.02 0.02 0.01 0.01 0.01 0.01 0.01
0.02 0.03 0.03 0.02 0.02 0.01 0.00 0.00 0.00 0.01 0.01 0.01 0.01 0.01 0.00 0.00 0.00 0.00 0.00 0.00 0.01 0.01 0.01 0.01 0.01 0.00 0.01 0.01 0.01 0.01 0.02 0.02 0.02 0.01 0.01 0.01 0.02 0.03 0.03 0.03 0.03 0.02 0.02
0.01 0.02 0.02 0.02 0.01 0.00 0.00 0.00 0.00 0.01 0.01 0.01 0.01 0.01 0.01 0.01 0.00 0.00 0.00 0.01 0.01 0.01 0.01 0.01 0.01 0.01 0.01 0.01 0.02 0.02 0.03 0.03 0.01 0.01 0.02 0.02 0.02 0.02 0.03 0.03 0.03 0.03 0.02
0.01 0.02 0.03 0.03 0.03 0.02 0.01 0.01 0.01 0.01 0.01 0.01 0.01 0.01 0.01 0.00 0.00 0.01 0.01 0.01 0.01 0.01 0.01 0.01 0.01 0.01 0.01 0.01 0.02 0.02 0.03 0.03 0.03 0.03 0.02 0.04 0.03 0.03 0.05 0.04 0.03 0.04 0.04
0.01 0.03 0.02 0.02 0.03 0.02 0.02 0.02 0.01 0.01 0.01 0.01 0.01 0.01 0.02 0.02 0.01 0.01 0.02 0.02 0.02 0.02 0.02 0.02 0.02 0.02 0.02 0.03 0.03 0.03 0.04 0.02 0.02 0.03 0.04 0.04 0.03 0.05 0.07 0.06 0.04 0.03 0.04
0.01 0.03 0.04 0.04 0.02 0.02 0.02 0.02 0.02 0.02 0.03 0.03 0.02 0.02 0.02 0.03 0.03 0.03 0.03 0.03 0.04 0.04 0.04 0.04 0.04 0.04 0.03 0.03 0.03 0.04 0.03 0.02 0.02 0.02 0.04 0.02 0.03 0.07 0.10 0.07 0.05 0.05 0.05
0.03 0.03 0.03 0.03 0.04 0.04 0.05 0.06 0.05 0.04 0.04 0.03 0.04 0.03 0.04 0.05 0.06 0.05 0.05 0.05 0.05 0.06 0.06 0.06 0.05 0.04 0.03 0.04 0.04 0.04 0.03 0.02 0.03 0.03 0.03 0.02 0.04 0.07 0.08 0.07 0.06 0.06 0.05
0.04 0.04 0.03 0.04 0.06 0.09 0.08 0.07 0.08 0.07 0.06 0.04 0.05 0.05 0.06 0.06 0.06 0.07 0.07 0.06 0.07 0.07 0.08 0.08 0.08 0.06 0.06 0.06 0.06 0.05 0.04 0.04 0.03 0.03 0.04 0.03 0.04 0.07 0.08 0.08 0.06 0.06 0.05
0.03 0.04 0.07 0.06 0.07 0.10 0.09 0.07 0.09 0.10 0.10 0.07 0.06 0.06 0.07 0.07 0.07 0.07 0.07 0.07 0.09 0.11 0.11 0.10 0.10 0.10 0.08 0.07 0.06 0.05 0.06 0.07 0.06 0.05 0.05 0.03 0.04 0.08 0.07 0.07 0.06 0.07 0.07
0.02 0.02 0.03 0.05 0.06 0.05 0.06 0.07 0.10 0.11 0.10 0.08 0.07 0.06 0.08 0.08 0.08 0.10 0.10 0.11 0.11 0.12 0.12 0.10 0.08 0.10 0.10 0.08 0.06 0.04 0.04 0.06 0.06 0.07 0.07 0.04 0.05 0.06 0.07 0.08 0.07 0.08 0.07
0.02 0.02 0.03 0.03 0.04 0.05 0.06 0.09 0.10 0.10 0.10 0.09 0.09 0.08 0.09 0.10 0.10 0.11 0.11 0.13 0.14 0.12 0.12 0.10 0.08 0.09 0.10 0.10 0.07 0.06 0.05 0.06 0.07 0.08 0.08 0.07 0.05 0.05 0.07 0.08 0.08 0.09 0.08
0.01 0.02 0.02 0.03 0.03 0.05 0.07 0.08 0.09 0.11 0.11 0.12 0.13 0.13 0.13 0.12 0.11 0.12 0.11 0.11 0.13 0.12 0.12 0.11 0.11 0.11 0.10 0.10 0.09 0.09 0.07 0.07 0.08 0.08 0.08 0.10 0.09 0.08 0.07 0.07 0.08 0.08 0.08
0.02 0.02 0.02 0.03 0.03 0.05 0.08 0.10 0.11 0.11 0.13 0.15 0.16 0.15 0.15 0.13 0.11 0.10 0.09 0.09 0.09 0.10 0.12 0.12 0.11 0.11 0.11 0.11 0.11 0.09 0.08 0.08 0.07 0.07 0.08 0.08 0.13 0.12 0.10 0.07 0.07 0.08 0.09
0.02 0.02 0.02 0.03 0.04 0.06 0.08 0.09 0.09 0.10 0.12 0.15 0.17 0.18 0.16 0.16 0.13 0.13 0.13 0.11 0.10 0.10 0.10 0.10 0.11 0.11 0.12 0.12 0.11 0.09 0.08 0.08 0.08 0.08 0.08 0.08 0.11 0.12 0.11 0.09 0.09 0.08 0.10
0.02 0.03 0.02 0.02 0.04 0.05 0.07 0.08 0.07 0.08 0.09 0.11 0.14 0.14 0.14 0.13 0.12 0.11 0.11 0.11 0.09 0.09 0.10 0.11 0.11 0.11 0.12 0.13 0.14 0.14 0.13 0.11 0.10 0.10 0.09 0.09 0.09 0.09 0.10 0.10 0.10 0.09 0.09
0.02 0.02 0.03 0.02 0.03 0.05 0.06 0.06 0.06 0.06 0.08 0.10 0.15 0.16 0.13 0.12 0.11 0.11 0.11 0.10 0.10 0.11 0.12 0.14 0.14 0.14 0.14 0.13 0.16 0.18 0.18 0.17 0.15 0.14 0.11 0.10 0.10 0.09 0.10 0.11 0.10 0.07 0.07
0.02 0.02 0.02 0.02 0.02 0.03 0.04 0.05 0.06 0.06 0.09 0.12 0.14 0.16 0.15 0.13 0.12 0.13 0.13 0.10 0.10 0.12 0.15 0.18 0.19 0.17 0.16 0.15 0.16 0.18 0.18 0.19 0.17 0.16 0.16 0.15 0.13 0.13 0.14 0.13 0.13 0.11 0.09
0.02 0.02 0.02 0.02 0.02 0.02 0.02 0.04 0.05 0.07 0.07 0.08 0.09 0.11 0.14 0.14 0.14 0.15 0.13 0.12 0.11 0.11 0.13 0.16 0.19 0.20 0.19 0.18 0.18 0.19 0.19 0.18 0.16 0.18 0.16 0.15 0.15 0.14 0.13 0.13 0.12 0.12 0.11
0.01 0.01 0.02 0.02 0.02 0.01 0.02 0.02 0.03 0.04 0.05 0.06 0.06 0.07 0.10 0.13 0.14 0.12 0.11 0.11 0.10 0.09 0.11 0.13 0.17 0.19 0.18 0.17 0.17 0.16 0.16 0.16 0.15 0.16 0.17 0.16 0.16 0.14 0.12 0.11 0.11 0.10 0.09
0.02 0.02 0.02 0.02 0.03 0.03 0.04 0.06 0.05 0.06 0.08 0.08 0.07 0.06 0.06 0.08 0.11 0.11 0.10 0.11 0.13 0.11 0.11 0.11 0.14 0.18 0.18 0.18 0.19 0.18 0.16 0.15 0.14 0.13 0.16 0.17 0.17 0.14 0.11 0.09 0.08 0.07 0.07
0.02 0.03 0.03 0.03 0.03 0.04 0.05 0.08 0.08 0.11 0.12 0.08 0.07 0.07 0.06 0.05 0.06 0.07 0.08 0.08 0.10 0.11 0.12 0.13 0.11 0.14 0.17 0.18 0.19 0.20 0.17 0.17 0.17 0.15 0.14 0.15 0.15 0.15 0.13 0.10 0.07 0.05 0.04

GEFSSE_prec_meanprec_132.txt.gz
QPF
0.00 0.00 0.00 0.01 0.00 0.00 0.00 0.00 0.00 0.00 0.00 0.00 0.00 0.00 0.00 0.00 0.00 0.00 0.00 0.00 0.00 0.00 0.00 0.00 0.01 0.01 0.01 0.00 0.00 0.00 0.00 0.00 0.00 0.00 0.00 0.00 0.00 0.00 0.00 0.01 0.02 0.01 0.00
0.00 0.00 0.00 0.01 0.01 0.01 0.01 0.01 0.00 0.00 0.00 0.00 0.00 0.00 0.00 0.00 0.00 0.00 0.00 0.00 0.00 0.01 0.01 0.01 0.01 0.00 0.00 0.00 0.00 0.00 0.00 0.00 0.00 0.00 0.00 0.00 0.00 0.00 0.01 0.01 0.02 0.01 0.00
0.01 0.00 0.00 0.01 0.01 0.01 0.01 0.01 0.01 0.01 0.01 0.00 0.00 0.01 0.01 0.00 0.00 0.00 0.00 0.00 0.00 0.01 0.01 0.01 0.01 0.01 0.01 0.00 0.00 0.00 0.00 0.00 0.00 0.00 0.01 0.01 0.00 0.00 0.00 0.00 0.01 0.00 0.00
0.01 0.01 0.00 0.01 0.01 0.01 0.02 0.02 0.02 0.02 0.01 0.01 0.00 0.00 0.00 0.00 0.00 0.00 0.00 0.00 0.01 0.01 0.01 0.01 0.01 0.01 0.01 0.00 0.00 0.00 0.00 0.00 0.01 0.02 0.05 0.03 0.01 0.00 0.00 0.00 0.00 0.00 0.00
0.01 0.01 0.00 0.00 0.01 0.01 0.01 0.02 0.02 0.02 0.02 0.01 0.01 0.01 0.01 0.01 0.01 0.00 0.01 0.01 0.01 0.01 0.01 0.01 0.01 0.01 0.00 0.01 0.01 0.01 0.00 0.00 0.01 0.04 0.06 0.05 0.04 0.01 0.00 0.00 0.00 0.00 0.00
0.02 0.01 0.00 0.01 0.01 0.01 0.01 0.01 0.02 0.03 0.02 0.02 0.02 0.01 0.01 0.01 0.01 0.01 0.01 0.01 0.01 0.01 0.01 0.01 0.01 0.00 0.00 0.01 0.01 0.00 0.00 0.01 0.01 0.03 0.05 0.04 0.04 0.02 0.01 0.01 0.00 0.00 0.01
0.02 0.02 0.01 0.00 0.00 0.01 0.00 0.01 0.02 0.03 0.03 0.03 0.03 0.02 0.02 0.01 0.01 0.01 0.01 0.01 0.01 0.01 0.01 0.01 0.01 0.00 0.01 0.01 0.00 0.00 0.00 0.01 0.02 0.05 0.07 0.04 0.05 0.02 0.01 0.01 0.01 0.02 0.02
0.02 0.02 0.01 0.00 0.00 0.01 0.01 0.01 0.02 0.02 0.03 0.03 0.03 0.03 0.03 0.02 0.02 0.02 0.01 0.01 0.02 0.02 0.02 0.01 0.01 0.01 0.01 0.01 0.00 0.00 0.00 0.00 0.02 0.02 0.03 0.05 0.05 0.02 0.01 0.01 0.01 0.02 0.01
0.01 0.01 0.01 0.00 0.00 0.00 0.00 0.00 0.01 0.02 0.02 0.03 0.03 0.03 0.03 0.03 0.02 0.02 0.03 0.03 0.03 0.02 0.02 0.02 0.02 0.01 0.01 0.01 0.01 0.01 0.00 0.00 0.02 0.01 0.02 0.03 0.02 0.01 0.01 0.01 0.01 0.01 0.01
0.01 0.01 0.01 0.01 0.00 0.00 0.00 0.00 0.01 0.01 0.02 0.02 0.03 0.02 0.03 0.02 0.02 0.02 0.02 0.03 0.03 0.03 0.03 0.02 0.02 0.02 0.01 0.01 0.01 0.01 0.00 0.00 0.01 0.01 0.03 0.04 0.02 0.02 0.03 0.02 0.02 0.02 0.02
0.03 0.04 0.03 0.03 0.03 0.02 0.01 0.01 0.01 0.01 0.01 0.02 0.02 0.02 0.02 0.04 0.07 0.07 0.03 0.04 0.04 0.03 0.03 0.03 0.02 0.02 0.01 0.01 0.01 0.01 0.00 0.01 0.03 0.06 0.10 0.08 0.04 0.03 0.03 0.03 0.03 0.04 0.03
0.05 0.07 0.07 0.12 0.14 0.07 0.10 0.11 0.06 0.05 0.05 0.04 0.07 0.07 0.08 0.12 0.14 0.12 0.11 0.08 0.06 0.05 0.03 0.03 0.02 0.02 0.01 0.02 0.02 0.02 0.01 0.02 0.08 0.13 0.17 0.18 0.11 0.06 0.03 0.02 0.03 0.02 0.02
0.07 0.10 0.06 0.09 0.11 0.12 0.14 0.18 0.12 0.12 0.14 0.13 0.13 0.15 0.16 0.18 0.16 0.14 0.18 0.15 0.11 0.08 0.07 0.08 0.04 0.03 0.04 0.05 0.07 0.06 0.05 0.07 0.09 0.16 0.20 0.20 0.16 0.09 0.05 0.03 0.03 0.02 0.03
0.10 0.13 0.07 0.10 0.09 0.11 0.15 0.15 0.12 0.11 0.13 0.15 0.16 0.16 0.20 0.19 0.18 0.21 0.21 0.21 0.21 0.20 0.18 0.18 0.12 0.08 0.07 0.07 0.07 0.08 0.08 0.08 0.14 0.19 0.24 0.24 0.20 0.10 0.06 0.04 0.04 0.04 0.04
0.11 0.10 0.07 0.05 0.05 0.06 0.10 0.14 0.14 0.15 0.16 0.13 0.13 0.14 0.16 0.18 0.20 0.24 0.23 0.22 0.22 0.24 0.24 0.21 0.17 0.14 0.11 0.08 0.07 0.06 0.07 0.08 0.12 0.20 0.21 0.17 0.13 0.09 0.08 0.08 0.07 0.06 0.06
0.11 0.06 0.05 0.05 0.07 0.08 0.09 0.12 0.16 0.17 0.18 0.16 0.15 0.14 0.14 0.17 0.19 0.20 0.21 0.19 0.19 0.20 0.24 0.24 0.19 0.20 0.17 0.14 0.12 0.10 0.10 0.09 0.10 0.13 0.16 0.16 0.10 0.08 0.08 0.10 0.10 0.09 0.08
0.06 0.05 0.04 0.04 0.04 0.06 0.06 0.08 0.10 0.12 0.14 0.13 0.10 0.09 0.08 0.10 0.14 0.16 0.17 0.17 0.18 0.19 0.24 0.25 0.22 0.23 0.21 0.19 0.19 0.18 0.17 0.13 0.12 0.15 0.16 0.16 0.14 0.12 0.09 0.09 0.09 0.08 0.08
0.04 0.04 0.04 0.04 0.05 0.05 0.06 0.07 0.09 0.10 0.12 0.11 0.09 0.09 0.08 0.10 0.11 0.12 0.13 0.15 0.17 0.17 0.20 0.21 0.22 0.22 0.24 0.24 0.22 0.21 0.21 0.19 0.15 0.16 0.15 0.16 0.16 0.14 0.10 0.07 0.07 0.07 0.08
0.03 0.05 0.05 0.04 0.05 0.05 0.06 0.08 0.08 0.08 0.08 0.08 0.09 0.09 0.09 0.10 0.12 0.11 0.13 0.16 0.16 0.17 0.18 0.19 0.21 0.21 0.22 0.22 0.20 0.19 0.19 0.21 0.22 0.19 0.17 0.16 0.15 0.14 0.11 0.09 0.07 0.07 0.08
0.03 0.04 0.04 0.04 0.04 0.05 0.06 0.07 0.07 0.07 0.08 0.09 0.09 0.10 0.10 0.10 0.12 0.13 0.13 0.16 0.17 0.18 0.22 0.24 0.24 0.20 0.21 0.23 0.20 0.19 0.18 0.18 0.18 0.18 0.18 0.18 0.17 0.15 0.14 0.13 0.10 0.07 0.07
0.02 0.02 0.03 0.03 0.03 0.04 0.05 0.07 0.06 0.06 0.06 0.06 0.07 0.06 0.06 0.07 0.09 0.11 0.13 0.14 0.15 0.15 0.18 0.23 0.26 0.24 0.21 0.22 0.22 0.21 0.19 0.18 0.18 0.18 0.18 0.18 0.16 0.13 0.12 0.12 0.11 0.10 0.10
0.02 0.02 0.02 0.03 0.03 0.04 0.05 0.09 0.09 0.07 0.06 0.07 0.07 0.07 0.06 0.06 0.07 0.08 0.11 0.11 0.11 0.13 0.15 0.18 0.22 0.24 0.22 0.21 0.20 0.21 0.19 0.17 0.15 0.15 0.18 0.18 0.16 0.14 0.14 0.12 0.12 0.13 0.13
0.01 0.02 0.02 0.03 0.03 0.04 0.05 0.09 0.11 0.08 0.05 0.05 0.06 0.06 0.07 0.07 0.07 0.08 0.09 0.09 0.10 0.12 0.12 0.13 0.17 0.22 0.21 0.24 0.25 0.24 0.22 0.21 0.18 0.18 0.18 0.17 0.17 0.16 0.16 0.14 0.13 0.13 0.12
0.01 0.01 0.01 0.03 0.03 0.04 0.04 0.05 0.04 0.04 0.04 0.05 0.06 0.05 0.05 0.05 0.05 0.06 0.06 0.07 0.07 0.08 0.08 0.08 0.12 0.17 0.20 0.22 0.25 0.23 0.22 0.22 0.22 0.21 0.21 0.20 0.21 0.21 0.19 0.17 0.14 0.13 0.15
0.00 0.01 0.01 0.02 0.03 0.04 0.04 0.05 0.04 0.04 0.05 0.06 0.07 0.06 0.05 0.05 0.05 0.05 0.05 0.05 0.05 0.06 0.07 0.07 0.08 0.11 0.13 0.16 0.19 0.20 0.22 0.23 0.22 0.20 0.19 0.20 0.19 0.18 0.17 0.18 0.17 0.14 0.14
0.00 0.01 0.02 0.02 0.02 0.03 0.04 0.05 0.04 0.04 0.05 0.06 0.05 0.05 0.05 0.05 0.05 0.05 0.06 0.07 0.06 0.06 0.05 0.06 0.07 0.08 0.10 0.12 0.14 0.17 0.17 0.17 0.16 0.18 0.18 0.17 0.17 0.18 0.18 0.18 0.17 0.14 0.12

GEFSSE_prec_meanprec_138.txt.gz
QPF
0.01 0.00 0.00 0.00 0.00 0.00 0.00 0.00 0.00 0.00 0.00 0.00 0.00 0.00 0.00 0.00 0.00 0.00 0.00 0.00 0.00 0.00 0.00 0.00 0.00 0.01 0.01 0.01 0.01 0.01 0.01 0.01 0.01 0.00 0.00 0.00 0.00 0.01 0.01 0.01 0.00 0.00 0.01
0.00 0.00 0.00 0.00 0.00 0.00 0.00 0.00 0.00 0.00 0.00 0.00 0.00 0.00 0.00 0.00 0.00 0.00 0.00 0.00 0.00 0.00 0.00 0.00 0.00 0.00 0.01 0.01 0.01 0.01 0.01 0.01 0.01 0.01 0.01 0.01 0.01 0.01 0.02 0.02 0.00 0.00 0.00
0.00 0.00 0.00 0.00 0.00 0.00 0.00 0.00 0.00 0.00 0.00 0.00 0.00 0.00 0.00 0.00 0.00 0.00 0.00 0.00 0.00 0.00 0.00 0.00 0.00 0.00 0.00 0.01 0.01 0.01 0.01 0.01 0.01 0.01 0.01 0.01 0.01 0.01 0.01 0.01 0.01 0.00 0.00
0.00 0.00 0.00 0.00 0.00 0.00 0.00 0.00 0.00 0.00 0.00 0.00 0.00 0.00 0.00 0.00 0.00 0.00 0.00 0.00 0.00 0.00 0.00 0.00 0.00 0.00 0.00 0.00 0.00 0.01 0.01 0.01 0.01 0.02 0.01 0.01 0.02 0.02 0.01 0.01 0.01 0.01 0.00
0.00 0.00 0.00 0.00 0.00 0.00 0.00 0.00 0.00 0.00 0.00 0.00 0.00 0.00 0.00 0.00 0.00 0.00 0.00 0.00 0.00 0.00 0.00 0.00 0.01 0.00 0.00 0.00 0.01 0.01 0.01 0.02 0.03 0.04 0.05 0.05 0.05 0.05 0.02 0.01 0.01 0.01 0.01
0.00 0.00 0.00 0.00 0.01 0.01 0.01 0.00 0.00 0.00 0.00 0.00 0.00 0.00 0.00 0.00 0.00 0.00 0.00 0.00 0.00 0.00 0.00 0.01 0.01 0.01 0.00 0.00 0.01 0.01 0.02 0.03 0.05 0.06 0.08 0.11 0.08 0.05 0.04 0.02 0.01 0.01 0.00
0.01 0.00 0.00 0.01 0.00 0.00 0.00 0.00 0.01 0.01 0.01 0.01 0.01 0.01 0.01 0.01 0.01 0.01 0.01 0.01 0.00 0.01 0.01 0.01 0.01 0.01 0.01 0.01 0.01 0.01 0.02 0.04 0.06 0.07 0.09 0.11 0.08 0.06 0.05 0.03 0.01 0.00 0.00
0.01 0.00 0.01 0.01 0.01 0.01 0.01 0.01 0.01 0.01 0.01 0.01 0.01 0.01 0.02 0.01 0.01 0.01 0.02 0.02 0.01 0.01 0.01 0.01 0.01 0.01 0.01 0.01 0.01 0.01 0.02 0.04 0.06 0.09 0.13 0.12 0.10 0.08 0.06 0.04 0.02 0.01 0.00
0.02 0.01 0.01 0.01 0.01 0.01 0.01 0.01 0.01 0.01 0.01 0.01 0.01 0.02 0.02 0.01 0.01 0.02 0.02 0.02 0.02 0.01 0.01 0.01 0.01 0.01 0.00 0.01 0.01 0.02 0.03 0.04 0.06 0.10 0.13 0.18 0.14 0.11 0.08 0.05 0.04 0.02 0.01
0.06 0.02 0.01 0.01 0.01 0.01 0.01 0.01 0.01 0.01 0.01 0.01 0.02 0.02 0.02 0.02 0.02 0.02 0.02 0.02 0.02 0.02 0.02 0.02 0.02 0.01 0.01 0.01 0.01 0.02 0.03 0.04 0.06 0.09 0.12 0.16 0.16 0.16 0.13 0.06 0.04 0.03 0.01
0.12 0.06 0.04 0.04 0.04 0.04 0.02 0.01 0.01 0.02 0.02 0.02 0.02 0.02 0.02 0.02 0.03 0.04 0.05 0.05 0.04 0.03 0.03 0.03 0.03 0.02 0.01 0.01 0.02 0.02 0.03 0.03 0.08 0.13 0.10 0.13 0.16 0.18 0.14 0.08 0.05 0.04 0.03
0.24 0.14 0.11 0.09 0.13 0.15 0.06 0.03 0.03 0.03 0.03 0.03 0.03 0.03 0.03 0.04 0.04 0.05 0.08 0.10 0.09 0.07 0.06 0.05 0.04 0.03 0.02 0.02 0.02 0.03 0.04 0.04 0.09 0.12 0.13 0.20 0.21 0.20 0.16 0.09 0.06 0.05 0.04
0.38 0.25 0.16 0.13 0.11 0.13 0.10 0.08 0.07 0.06 0.06 0.06 0.06 0.06 0.07 0.07 0.08 0.08 0.10 0.11 0.12 0.11 0.09 0.06 0.05 0.05 0.04 0.06 0.05 0.05 0.06 0.06 0.08 0.10 0.18 0.24 0.28 0.29 0.23 0.13 0.08 0.05 0.04
0.28 0.26 0.25 0.18 0.17 0.13 0.17 0.21 0.11 0.11 0.11 0.10 0.08 0.09 0.10 0.10 0.12 0.15 0.15 0.16 0.20 0.17 0.11 0.07 0.06 0.06 0.06 0.05 0.05 0.05 0.07 0.08 0.11 0.15 0.23 0.25 0.26 0.23 0.18 0.11 0.08 0.06 0.04
0.27 0.22 0.26 0.25 0.18 0.14 0.17 0.24 0.19 0.14 0.15 0.16 0.17 0.18 0.16 0.14 0.13 0.13 0.18 0.18 0.17 0.16 0.12 0.09 0.08 0.08 0.08 0.07 0.08 0.09 0.13 0.15 0.16 0.19 0.19 0.22 0.25 0.23 0.20 0.16 0.11 0.07 0.06
0.26 0.20 0.20 0.20 0.15 0.14 0.14 0.12 0.11 0.11 0.21 0.27 0.22 0.24 0.22 0.18 0.12 0.10 0.13 0.13 0.12 0.11 0.11 0.13 0.12 0.12 0.11 0.11 0.11 0.11 0.14 0.15 0.18 0.20 0.18 0.21 0.19 0.17 0.18 0.18 0.15 0.11 0.08
0.15 0.16 0.16 0.23 0.16 0.16 0.14 0.08 0.07 0.08 0.11 0.15 0.15 0.14 0.15 0.16 0.09 0.06 0.09 0.09 0.08 0.08 0.11 0.15 0.18 0.18 0.19 0.14 0.13 0.13 0.13 0.16 0.18 0.15 0.20 0.23 0.23 0.20 0.17 0.16 0.15 0.11 0.10
0.11 0.11 0.10 0.16 0.15 0.13 0.12 0.11 0.07 0.05 0.06 0.08 0.07 0.07 0.09 0.09 0.07 0.04 0.05 0.06 0.06 0.08 0.09 0.11 0.11 0.11 0.11 0.11 0.10 0.12 0.14 0.16 0.19 0.18 0.17 0.19 0.23 0.22 0.21 0.18 0.15 0.12 0.12
0.10 0.09 0.06 0.07 0.09 0.11 0.08 0.07 0.07 0.06 0.06 0.06 0.07 0.07 0.06 0.08 0.07 0.05 0.04 0.05 0.06 0.07 0.07 0.07 0.09 0.10 0.10 0.11 0.11 0.11 0.12 0.14 0.16 0.17 0.17 0.17 0.21 0.23 0.23 0.23 0.20 0.15 0.13
0.05 0.05 0.04 0.06 0.08 0.08 0.06 0.06 0.05 0.05 0.06 0.07 0.09 0.10 0.07 0.05 0.04 0.04 0.04 0.04 0.04 0.05 0.06 0.06 0.07 0.09 0.12 0.14 0.16 0.20 0.19 0.15 0.15 0.16 0.14 0.17 0.19 0.19 0.18 0.17 0.18 0.19 0.17
0.03 0.03 0.04 0.05 0.06 0.05 0.04 0.04 0.04 0.03 0.04 0.04 0.07 0.11 0.08 0.05 0.03 0.05 0.04 0.03 0.03 0.04 0.05 0.06 0.07 0.09 0.11 0.13 0.15 0.19 0.23 0.20 0.17 0.16 0.13 0.13 0.16 0.18 0.19 0.19 0.17 0.18 0.19
0.03 0.02 0.03 0.04 0.05 0.04 0.03 0.03 0.03 0.03 0.03 0.03 0.04 0.05 0.04 0.03 0.03 0.05 0.05 0.04 0.04 0.05 0.06 0.05 0.06 0.07 0.09 0.12 0.15 0.16 0.18 0.19 0.15 0.15 0.15 0.13 0.14 0.15 0.16 0.16 0.19 0.18 0.13
0.03 0.03 0.03 0.03 0.03 0.03 0.03 0.03 0.02 0.02 0.02 0.03 0.03 0.03 0.02 0.02 0.03 0.02 0.03 0.04 0.05 0.05 0.07 0.08 0.07 0.07 0.08 0.10 0.10 0.12 0.13 0.14 0.15 0.15 0.15 0.14 0.15 0.16 0.17 0.16 0.19 0.24 0.22
0.02 0.02 0.02 0.02 0.02 0.02 0.03 0.03 0.02 0.02 0.02 0.02 0.02 0.03 0.03 0.02 0.03 0.02 0.02 0.02 0.04 0.07 0.09 0.09 0.07 0.05 0.04 0.06 0.09 0.09 0.09 0.09 0.10 0.10 0.10 0.12 0.15 0.19 0.22 0.21 0.22 0.25 0.27
0.02 0.02 0.02 0.02 0.02 0.02 0.02 0.02 0.02 0.02 0.01 0.02 0.02 0.02 0.03 0.02 0.02 0.02 0.01 0.01 0.02 0.04 0.07 0.07 0.05 0.03 0.03 0.04 0.06 0.07 0.08 0.08 0.09 0.09 0.09 0.10 0.12 0.16 0.20 0.23 0.23 0.23 0.22
0.01 0.01 0.01 0.02 0.02 0.02 0.02 0.02 0.02 0.02 0.02 0.02 0.02 0.02 0.03 0.02 0.02 0.01 0.01 0.01 0.01 0.02 0.03 0.04 0.05 0.05 0.03 0.03 0.04 0.05 0.05 0.05 0.06 0.07 0.08 0.08 0.10 0.13 0.15 0.18 0.20 0.20 0.20

GEFSSE_prec_meanprec_144.txt.gz
QPF
0.01 0.01 0.01 0.01 0.00 0.00 0.00 0.00 0.00 0.00 0.00 0.00 0.00 0.00 0.00 0.00 0.00 0.01 0.01 0.00 0.00 0.01 0.01 0.01 0.01 0.01 0.01 0.01 0.01 0.01 0.01 0.01 0.00 0.01 0.01 0.01 0.01 0.01 0.02 0.01 0.01 0.01 0.01
0.00 0.00 0.01 0.00 0.00 0.00 0.00 0.01 0.00 0.00 0.00 0.00 0.00 0.00 0.00 0.00 0.00 0.00 0.00 0.00 0.01 0.01 0.01 0.01 0.00 0.01 0.01 0.01 0.01 0.00 0.01 0.01 0.01 0.01 0.02 0.02 0.02 0.02 0.02 0.02 0.01 0.01 0.01
0.00 0.00 0.00 0.00 0.00 0.00 0.00 0.00 0.00 0.00 0.00 0.00 0.00 0.00 0.00 0.00 0.00 0.00 0.00 0.00 0.01 0.01 0.01 0.01 0.01 0.01 0.01 0.01 0.01 0.01 0.01 0.02 0.01 0.02 0.02 0.01 0.02 0.03 0.03 0.02 0.01 0.01 0.01
0.00 0.00 0.00 0.00 0.00 0.00 0.00 0.00 0.00 0.00 0.00 0.00 0.00 0.00 0.00 0.00 0.00 0.00 0.00 0.00 0.00 0.01 0.01 0.01 0.01 0.01 0.01 0.01 0.01 0.01 0.01 0.02 0.02 0.01 0.00 0.01 0.01 0.02 0.02 0.02 0.01 0.01 0.01
0.02 0.01 0.00 0.00 0.00 0.00 0.00 0.00 0.00 0.00 0.00 0.00 0.00 0.00 0.00 0.00 0.00 0.00 0.00 0.00 0.00 0.00 0.00 0.01 0.01 0.01 0.01 0.01 0.01 0.01 0.01 0.02 0.02 0.02 0.01 0.01 0.01 0.02 0.02 0.02 0.02 0.01 0.01
0.05 0.04 0.02 0.01 0.00 0.00 0.00 0.00 0.00 0.00 0.00 0.00 0.00 0.00 0.00 0.00 0.00 0.00 0.00 0.00 0.00 0.00 0.00 0.01 0.01 0.01 0.01 0.01 0.02 0.02 0.03 0.04 0.03 0.03 0.03 0.02 0.02 0.03 0.03 0.03 0.02 0.01 0.01
0.10 0.07 0.04 0.03 0.01 0.01 0.00 0.00 0.00 0.00 0.00 0.00 0.00 0.00 0.00 0.00 0.00 0.00 0.00 0.00 0.00 0.00 0.00 0.01 0.01 0.01 0.01 0.01 0.02 0.03 0.04 0.04 0.02 0.03 0.02 0.01 0.02 0.03 0.03 0.04 0.03 0.01 0.01
0.09 0.06 0.04 0.03 0.02 0.01 0.01 0.01 0.01 0.01 0.01 0.01 0.01 0.00 0.00 0.00 0.00 0.01 0.01 0.01 0.01 0.01 0.01 0.01 0.01 0.01 0.01 0.01 0.02 0.03 0.04 0.03 0.02 0.03 0.02 0.01 0.02 0.04 0.05 0.05 0.04 0.03 0.01
0.06 0.05 0.03 0.04 0.03 0.02 0.02 0.02 0.02 0.01 0.01 0.01 0.01 0.01 0.01 0.00 0.00 0.01 0.01 0.01 0.01 0.01 0.01 0.01 0.01 0.02 0.02 0.02 0.02 0.03 0.03 0.04 0.02 0.02 0.02 0.02 0.03 0.05 0.07 0.05 0.04 0.04 0.03
0.10 0.06 0.04 0.03 0.03 0.03 0.03 0.03 0.02 0.02 0.02 0.02 0.01 0.01 0.01 0.02 0.01 0.01 0.01 0.02 0.02 0.01 0.01 0.02 0.02 0.02 0.03 0.02 0.02 0.02 0.03 0.03 0.02 0.02 0.01 0.02 0.03 0.04 0.08 0.07 0.05 0.04 0.03
0.09 0.05 0.03 0.02 0.02 0.03 0.03 0.03 0.03 0.02 0.02 0.02 0.02 0.02 0.02 0.02 0.02 0.02 0.02 0.02 0.03 0.03 0.03 0.03 0.03 0.03 0.03 0.03 0.03 0.04 0.03 0.02 0.02 0.01 0.01 0.01 0.04 0.07 0.10 0.09 0.06 0.04 0.03
0.08 0.05 0.04 0.03 0.02 0.03 0.04 0.04 0.03 0.03 0.03 0.02 0.02 0.03 0.03 0.03 0.03 0.03 0.03 0.04 0.04 0.05 0.04 0.04 0.04 0.04 0.03 0.02 0.02 0.03 0.02 0.02 0.03 0.02 0.01 0.02 0.05 0.08 0.11 0.10 0.06 0.04 0.04
0.10 0.06 0.04 0.03 0.02 0.02 0.03 0.04 0.04 0.03 0.03 0.03 0.03 0.03 0.03 0.04 0.04 0.04 0.04 0.05 0.05 0.05 0.04 0.04 0.05 0.04 0.03 0.02 0.02 0.01 0.01 0.02 0.02 0.02 0.02 0.03 0.05 0.08 0.10 0.11 0.08 0.05 0.05
0.08 0.06 0.04 0.04 0.04 0.03 0.03 0.03 0.03 0.04 0.05 0.04 0.05 0.06 0.06 0.06 0.06 0.06 0.06 0.06 0.05 0.06 0.06 0.05 0.04 0.04 0.04 0.03 0.02 0.02 0.02 0.02 0.02 0.03 0.03 0.04 0.07 0.09 0.10 0.09 0.10 0.07 0.06
0.07 0.07 0.07 0.06 0.05 0.04 0.04 0.05 0.04 0.04 0.05 0.06 0.05 0.06 0.05 0.04 0.04 0.04 0.04 0.04 0.05 0.06 0.06 0.06 0.05 0.05 0.06 0.04 0.04 0.03 0.03 0.03 0.04 0.04 0.04 0.05 0.08 0.10 0.13 0.13 0.13 0.13 0.08
0.11 0.09 0.09 0.08 0.06 0.06 0.07 0.07 0.06 0.05 0.04 0.05 0.04 0.04 0.04 0.04 0.03 0.03 0.04 0.05 0.06 0.06 0.05 0.06 0.06 0.07 0.07 0.05 0.06 0.05 0.05 0.05 0.05 0.05 0.06 0.06 0.08 0.11 0.14 0.15 0.16 0.18 0.17
0.11 0.09 0.08 0.09 0.09 0.09 0.09 0.08 0.08 0.08 0.07 0.05 0.05 0.04 0.03 0.03 0.04 0.05 0.06 0.07 0.07 0.07 0.06 0.05 0.05 0.06 0.05 0.05 0.05 0.05 0.05 0.06 0.07 0.07 0.08 0.08 0.08 0.10 0.13 0.14 0.16 0.20 0.21
0.15 0.11 0.08 0.07 0.09 0.10 0.10 0.09 0.13 0.12 0.12 0.09 0.06 0.04 0.04 0.03 0.04 0.05 0.05 0.05 0.05 0.04 0.05 0.05 0.04 0.05 0.05 0.04 0.04 0.04 0.05 0.06 0.07 0.08 0.08 0.08 0.08 0.09 0.11 0.12 0.14 0.20 0.22
0.15 0.11 0.08 0.06 0.06 0.05 0.06 0.08 0.15 0.10 0.07 0.07 0.07 0.06 0.06 0.05 0.05 0.05 0.04 0.03 0.04 0.03 0.03 0.04 0.04 0.04 0.04 0.04 0.04 0.05 0.05 0.05 0.06 0.08 0.08 0.08 0.09 0.11 0.11 0.13 0.17 0.20 0.23
0.09 0.09 0.07 0.06 0.04 0.05 0.05 0.07 0.10 0.09 0.06 0.06 0.05 0.05 0.06 0.05 0.04 0.06 0.05 0.05 0.05 0.05 0.04 0.04 0.05 0.06 0.07 0.05 0.04 0.04 0.04 0.04 0.04 0.06 0.07 0.08 0.08 0.09 0.10 0.11 0.15 0.19 0.21
0.09 0.06 0.05 0.05 0.04 0.05 0.05 0.06 0.08 0.07 0.05 0.06 0.07 0.06 0.06 0.06 0.05 0.05 0.06 0.07 0.08 0.08 0.06 0.05 0.05 0.06 0.06 0.05 0.05 0.04 0.04 0.04 0.05 0.06 0.08 0.07 0.07 0.07 0.08 0.09 0.11 0.15 0.21
0.06 0.05 0.05 0.04 0.05 0.07 0.06 0.06 0.06 0.05 0.04 0.05 0.07 0.07 0.07 0.07 0.07 0.07 0.08 0.08 0.07 0.06 0.06 0.05 0.05 0.05 0.05 0.06 0.07 0.06 0.05 0.04 0.05 0.06 0.09 0.12 0.10 0.09 0.08 0.08 0.08 0.09 0.15
0.08 0.07 0.06 0.05 0.05 0.06 0.06 0.06 0.05 0.04 0.03 0.03 0.04 0.05 0.06 0.05 0.05 0.07 0.07 0.06 0.05 0.04 0.04 0.04 0.04 0.03 0.04 0.05 0.05 0.07 0.06 0.05 0.05 0.06 0.07 0.08 0.10 0.11 0.10 0.09 0.08 0.07 0.09
0.04 0.04 0.04 0.04 0.04 0.05 0.05 0.06 0.05 0.04 0.03 0.03 0.04 0.04 0.04 0.04 0.04 0.04 0.05 0.05 0.05 0.03 0.03 0.04 0.03 0.03 0.04 0.05 0.06 0.05 0.04 0.04 0.04 0.05 0.06 0.07 0.09 0.10 0.11 0.11 0.11 0.12 0.12
0.03 0.02 0.02 0.03 0.03 0.02 0.03 0.03 0.04 0.04 0.04 0.04 0.04 0.04 0.04 0.03 0.03 0.03 0.03 0.03 0.04 0.04 0.02 0.02 0.02 0.02 0.02 0.03 0.04 0.05 0.05 0.04 0.03 0.03 0.04 0.05 0.07 0.09 0.10 0.09 0.11 0.15 0.20
0.01 0.03 0.03 0.02 0.02 0.01 0.01 0.01 0.02 0.03 0.04 0.04 0.04 0.04 0.03 0.03 0.03 0.04 0.04 0.03 0.03 0.03 0.02 0.01 0.01 0.02 0.02 0.02 0.02 0.03 0.03 0.03 0.03 0.03 0.03 0.04 0.06 0.08 0.11 0.12 0.12 0.14 0.20

GEFSSE_prec_meanprec_150.txt.gz
QPF
0.02 0.01 0.01 0.01 0.01 0.02 0.02 0.02 0.01 0.01 0.01 0.00 0.01 0.01 0.01 0.01 0.00 0.00 0.01 0.00 0.00 0.01 0.01 0.01 0.01 0.01 0.01 0.01 0.01 0.01 0.00 0.00 0.00 0.00 0.00 0.00 0.00 0.00 0.01 0.00 0.01 0.01 0.01
0.01 0.01 0.01 0.01 0.02 0.02 0.02 0.02 0.02 0.01 0.01 0.00 0.00 0.00 0.00 0.00 0.00 0.00 0.01 0.00 0.01 0.01 0.00 0.00 0.00 0.00 0.00 0.00 0.01 0.00 0.00 0.00 0.00 0.01 0.01 0.01 0.01 0.00 0.01 0.00 0.01 0.01 0.01
0.01 0.01 0.01 0.01 0.01 0.01 0.01 0.01 0.01 0.01 0.01 0.00 0.00 0.00 0.00 0.00 0.00 0.00 0.00 0.00 0.00 0.00 0.00 0.00 0.00 0.00 0.00 0.00 0.00 0.00 0.00 0.01 0.01 0.01 0.01 0.01 0.01 0.01 0.01 0.00 0.00 0.01 0.01
0.01 0.01 0.02 0.02 0.01 0.01 0.01 0.01 0.01 0.01 0.01 0.01 0.00 0.00 0.00 0.00 0.00 0.00 0.00 0.00 0.00 0.00 0.00 0.00 0.00 0.00 0.00 0.00 0.00 0.01 0.01 0.01 0.01 0.01 0.01 0.00 0.01 0.01 0.01 0.01 0.00 0.01 0.01
0.01 0.02 0.01 0.01 0.01 0.01 0.01 0.01 0.01 0.01 0.01 0.00 0.00 0.00 0.00 0.00 0.00 0.00 0.00 0.01 0.01 0.00 0.00 0.01 0.00 0.00 0.00 0.01 0.01 0.01 0.01 0.01 0.01 0.01 0.00 0.00 0.02 0.02 0.01 0.01 0.01 0.01 0.00
0.02 0.03 0.03 0.03 0.02 0.01 0.01 0.01 0.00 0.00 0.00 0.00 0.00 0.00 0.00 0.00 0.00 0.01 0.01 0.00 0.00 0.00 0.00 0.01 0.01 0.00 0.01 0.01 0.01 0.01 0.02 0.02 0.02 0.00 0.00 0.00 0.02 0.03 0.02 0.02 0.01 0.01 0.01
0.05 0.06 0.05 0.03 0.03 0.02 0.01 0.00 0.00 0.00 0.00 0.00 0.00 0.00 0.01 0.01 0.01 0.01 0.01 0.01 0.00 0.00 0.00 0.01 0.01 0.01 0.01 0.01 0.01 0.02 0.02 0.03 0.02 0.01 0.01 0.01 0.02 0.03 0.04 0.03 0.03 0.02 0.01
0.06 0.04 0.04 0.04 0.03 0.03 0.02 0.02 0.01 0.01 0.01 0.01 0.01 0.01 0.01 0.01 0.01 0.01 0.01 0.01 0.02 0.02 0.02 0.02 0.01 0.01 0.01 0.02 0.02 0.02 0.03 0.03 0.01 0.02 0.03 0.03 0.02 0.03 0.05 0.04 0.04 0.03 0.02
0.03 0.03 0.05 0.05 0.03 0.03 0.03 0.02 0.02 0.02 0.01 0.01 0.01 0.01 0.01 0.01 0.01 0.01 0.02 0.02 0.03 0.04 0.04 0.03 0.02 0.02 0.01 0.02 0.02 0.02 0.03 0.03 0.02 0.04 0.02 0.05 0.02 0.04 0.08 0.06 0.05 0.04 0.03
0.05 0.06 0.06 0.06 0.05 0.03 0.03 0.02 0.02 0.02 0.02 0.02 0.02 0.02 0.01 0.01 0.02 0.02 0.02 0.03 0.03 0.03 0.04 0.05 0.04 0.03 0.02 0.02 0.02 0.02 0.02 0.03 0.02 0.02 0.03 0.04 0.02 0.04 0.09 0.09 0.07 0.06 0.05
0.05 0.06 0.06 0.06 0.06 0.06 0.05 0.03 0.03 0.02 0.03 0.02 0.03 0.03 0.03 0.04 0.04 0.05 0.04 0.04 0.05 0.06 0.06 0.06 0.06 0.05 0.04 0.04 0.03 0.03 0.03 0.03 0.02 0.02 0.03 0.04 0.03 0.06 0.09 0.10 0.09 0.07 0.06
0.05 0.06 0.08 0.08 0.06 0.05 0.03 0.03 0.03 0.02 0.03 0.03 0.03 0.03 0.04 0.06 0.06 0.04 0.04 0.04 0.05 0.08 0.08 0.08 0.07 0.07 0.07 0.08 0.07 0.04 0.04 0.04 0.04 0.03 0.03 0.03 0.05 0.08 0.11 0.10 0.10 0.09 0.08
0.06 0.07 0.08 0.07 0.05 0.05 0.04 0.04 0.04 0.05 0.04 0.04 0.04 0.04 0.05 0.04 0.04 0.03 0.05 0.05 0.06 0.06 0.09 0.11 0.10 0.10 0.10 0.10 0.10 0.06 0.04 0.03 0.04 0.03 0.03 0.03 0.06 0.09 0.11 0.12 0.13 0.12 0.11
0.07 0.06 0.05 0.06 0.06 0.05 0.05 0.05 0.04 0.04 0.04 0.05 0.04 0.04 0.05 0.05 0.05 0.05 0.06 0.06 0.08 0.09 0.11 0.13 0.14 0.13 0.11 0.08 0.07 0.06 0.06 0.05 0.04 0.04 0.06 0.05 0.07 0.09 0.12 0.16 0.18 0.16 0.14
0.04 0.05 0.06 0.07 0.08 0.08 0.07 0.06 0.05 0.05 0.05 0.05 0.05 0.04 0.04 0.04 0.04 0.05 0.05 0.05 0.06 0.07 0.09 0.10 0.11 0.12 0.10 0.08 0.06 0.05 0.07 0.06 0.05 0.05 0.05 0.05 0.06 0.08 0.12 0.17 0.19 0.19 0.16
0.06 0.06 0.07 0.09 0.09 0.08 0.08 0.06 0.05 0.04 0.04 0.04 0.03 0.03 0.03 0.03 0.03 0.03 0.03 0.04 0.05 0.04 0.05 0.08 0.09 0.09 0.10 0.09 0.08 0.08 0.06 0.07 0.06 0.06 0.06 0.06 0.06 0.07 0.10 0.16 0.18 0.18 0.19
0.05 0.06 0.08 0.09 0.08 0.07 0.06 0.06 0.05 0.03 0.02 0.04 0.03 0.03 0.03 0.02 0.02 0.02 0.04 0.04 0.05 0.04 0.04 0.05 0.05 0.06 0.06 0.06 0.05 0.06 0.06 0.07 0.07 0.07 0.07 0.07 0.07 0.07 0.10 0.16 0.19 0.18 0.18
0.03 0.05 0.07 0.08 0.06 0.05 0.04 0.04 0.04 0.04 0.04 0.03 0.03 0.03 0.03 0.03 0.02 0.03 0.04 0.05 0.04 0.03 0.04 0.06 0.04 0.05 0.06 0.06 0.07 0.07 0.06 0.07 0.06 0.08 0.09 0.08 0.09 0.09 0.11 0.16 0.19 0.18 0.17
0.04 0.05 0.06 0.07 0.06 0.05 0.04 0.04 0.04 0.03 0.03 0.03 0.03 0.03 0.04 0.04 0.04 0.04 0.06 0.05 0.04 0.05 0.06 0.05 0.05 0.04 0.04 0.05 0.06 0.06 0.06 0.06 0.06 0.06 0.06 0.07 0.09 0.13 0.16 0.17 0.15 0.14 0.15
0.04 0.04 0.03 0.04 0.04 0.05 0.05 0.05 0.03 0.03 0.02 0.02 0.02 0.02 0.04 0.05 0.05 0.05 0.06 0.05 0.05 0.05 0.05 0.05 0.05 0.05 0.04 0.04 0.04 0.05 0.05 0.04 0.04 0.05 0.05 0.07 0.10 0.12 0.12 0.11 0.13 0.14 0.14
0.06 0.04 0.02 0.03 0.03 0.03 0.03 0.04 0.03 0.02 0.02 0.02 0.02 0.03 0.04 0.05 0.05 0.06 0.06 0.05 0.04 0.04 0.05 0.06 0.05 0.05 0.05 0.04 0.04 0.05 0.05 0.04 0.05 0.06 0.06 0.06 0.05 0.06 0.07 0.07 0.09 0.10 0.10
0.07 0.09 0.08 0.06 0.05 0.03 0.03 0.02 0.02 0.02 0.01 0.01 0.01 0.02 0.03 0.04 0.04 0.04 0.06 0.06 0.05 0.07 0.07 0.06 0.05 0.05 0.05 0.05 0.07 0.08 0.08 0.08 0.07 0.06 0.06 0.06 0.06 0.08 0.07 0.07 0.08 0.10 0.09
0.03 0.08 0.12 0.09 0.06 0.04 0.03 0.02 0.02 0.02 0.01 0.01 0.02 0.02 0.03 0.05 0.04 0.05 0.07 0.06 0.06 0.07 0.05 0.05 0.05 0.05 0.06 0.05 0.07 0.10 0.12 0.12 0.11 0.09 0.07 0.06 0.05 0.07 0.09 0.09 0.09 0.09 0.09
0.02 0.05 0.08 0.07 0.05 0.03 0.02 0.02 0.02 0.02 0.02 0.03 0.03 0.03 0.03 0.04 0.04 0.05 0.05 0.05 0.05 0.06 0.07 0.06 0.05 0.05 0.06 0.06 0.07 0.08 0.10 0.11 0.13 0.12 0.10 0.07 0.06 0.06 0.07 0.09 0.10 0.12 0.10
0.02 0.02 0.04 0.05 0.04 0.03 0.02 0.01 0.01 0.02 0.02 0.03 0.03 0.02 0.02 0.03 0.03 0.04 0.04 0.03 0.04 0.05 0.05 0.04 0.03 0.04 0.03 0.04 0.04 0.04 0.06 0.07 0.10 0.11 0.11 0.10 0.07 0.06 0.06 0.07 0.09 0.10 0.10
0.02 0.02 0.03 0.03 0.03 0.04 0.03 0.02 0.01 0.02 0.02 0.02 0.02 0.02 0.01 0.02 0.02 0.02 0.01 0.02 0.03 0.03 0.04 0.04 0.03 0.02 0.02 0.02 0.03 0.03 0.04 0.06 0.06 0.07 0.07 0.08 0.07 0.06 0.06 0.07 0.09 0.10 0.10

GEFSSE_prec_meanprec_156.txt.gz
QPF
0.02 0.00 0.00 0.00 0.01 0.01 0.01 0.01 0.01 0.01 0.01 0.00 0.00 0.00 0.00 0.00 0.00 0.00 0.00 0.00 0.00 0.00 0.00 0.00 0.00 0.00 0.00 0.00 0.00 0.00 0.00 0.00 0.00 0.00 0.00 0.00 0.00 0.00 0.00 0.01 0.03 0.03 0.01
0.01 0.00 0.00 0.00 0.01 0.01 0.01 0.01 0.01 0.01 0.01 0.01 0.00 0.00 0.00 0.00 0.00 0.00 0.00 0.00 0.00 0.00 0.00 0.00 0.00 0.00 0.00 0.00 0.00 0.00 0.00 0.00 0.00 0.00 0.00 0.00 0.00 0.00 0.00 0.01 0.04 0.05 0.01
0.01 0.00 0.00 0.00 0.01 0.01 0.01 0.01 0.01 0.01 0.01 0.01 0.01 0.00 0.00 0.01 0.00 0.00 0.00 0.00 0.00 0.00 0.00 0.00 0.00 0.00 0.01 0.00 0.00 0.00 0.00 0.00 0.00 0.01 0.02 0.02 0.01 0.00 0.00 0.01 0.02 0.02 0.01
0.02 0.01 0.01 0.01 0.01 0.01 0.01 0.02 0.02 0.02 0.01 0.01 0.01 0.01 0.01 0.01 0.00 0.00 0.00 0.00 0.00 0.00 0.01 0.01 0.00 0.00 0.00 0.00 0.00 0.01 0.00 0.00 0.00 0.02 0.07 0.05 0.02 0.01 0.00 0.00 0.00 0.00 0.00
0.02 0.01 0.00 0.00 0.01 0.01 0.01 0.02 0.02 0.02 0.02 0.02 0.02 0.01 0.01 0.01 0.00 0.00 0.01 0.00 0.00 0.00 0.00 0.01 0.01 0.01 0.01 0.01 0.01 0.01 0.00 0.00 0.01 0.02 0.05 0.06 0.05 0.02 0.01 0.00 0.00 0.00 0.00
0.01 0.01 0.00 0.01 0.01 0.01 0.02 0.02 0.03 0.03 0.03 0.03 0.02 0.02 0.01 0.01 0.01 0.01 0.01 0.01 0.00 0.00 0.00 0.00 0.00 0.00 0.01 0.01 0.01 0.00 0.00 0.00 0.00 0.00 0.02 0.06 0.09 0.05 0.02 0.01 0.01 0.01 0.01
0.02 0.01 0.01 0.01 0.01 0.01 0.01 0.02 0.02 0.02 0.01 0.02 0.01 0.02 0.02 0.02 0.01 0.01 0.01 0.01 0.00 0.00 0.00 0.00 0.00 0.00 0.00 0.01 0.00 0.00 0.00 0.00 0.01 0.01 0.02 0.04 0.07 0.04 0.02 0.02 0.01 0.02 0.02
0.02 0.02 0.01 0.00 0.01 0.01 0.01 0.01 0.01 0.01 0.01 0.01 0.01 0.01 0.02 0.01 0.01 0.02 0.01 0.01 0.01 0.01 0.01 0.01 0.01 0.00 0.00 0.01 0.00 0.00 0.00 0.00 0.01 0.01 0.01 0.03 0.04 0.02 0.03 0.03 0.03 0.03 0.04
0.03 0.03 0.03 0.02 0.02 0.01 0.01 0.01 0.02 0.01 0.01 0.01 0.01 0.01 0.01 0.01 0.01 0.01 0.01 0.01 0.01 0.02 0.02 0.02 0.02 0.01 0.01 0.01 0.01 0.01 0.00 0.00 0.01 0.02 0.04 0.06 0.06 0.04 0.03 0.03 0.03 0.03 0.03
0.03 0.05 0.06 0.07 0.06 0.06 0.04 0.03 0.02 0.02 0.02 0.02 0.01 0.01 0.01 0.01 0.03 0.03 0.03 0.02 0.01 0.01 0.02 0.02 0.02 0.02 0.02 0.02 0.01 0.01 0.01 0.01 0.01 0.02 0.09 0.07 0.04 0.05 0.04 0.04 0.05 0.05 0.04
0.07 0.07 0.09 0.09 0.09 0.08 0.07 0.04 0.05 0.04 0.04 0.04 0.04 0.03 0.04 0.09 0.12 0.12 0.06 0.04 0.02 0.02 0.02 0.02 0.03 0.02 0.02 0.02 0.02 0.02 0.02 0.01 0.01 0.04 0.05 0.06 0.06 0.05 0.05 0.05 0.05 0.05 0.05
0.10 0.11 0.10 0.10 0.10 0.12 0.10 0.09 0.10 0.09 0.09 0.09 0.11 0.09 0.11 0.17 0.17 0.12 0.10 0.06 0.04 0.02 0.02 0.02 0.03 0.03 0.03 0.04 0.07 0.06 0.03 0.02 0.02 0.03 0.05 0.07 0.06 0.04 0.04 0.04 0.04 0.04 0.05
0.07 0.07 0.08 0.10 0.12 0.15 0.15 0.11 0.12 0.14 0.18 0.17 0.14 0.12 0.16 0.16 0.13 0.09 0.12 0.10 0.07 0.05 0.08 0.10 0.09 0.08 0.10 0.11 0.13 0.11 0.09 0.06 0.03 0.04 0.11 0.13 0.07 0.05 0.05 0.04 0.05 0.05 0.07
0.10 0.06 0.06 0.08 0.11 0.13 0.15 0.14 0.13 0.15 0.15 0.14 0.12 0.12 0.15 0.14 0.13 0.11 0.12 0.12 0.12 0.12 0.15 0.14 0.15 0.12 0.11 0.12 0.11 0.11 0.12 0.11 0.08 0.11 0.16 0.14 0.07 0.06 0.06 0.05 0.06 0.06 0.07
0.07 0.05 0.05 0.06 0.09 0.14 0.16 0.17 0.16 0.19 0.15 0.13 0.13 0.12 0.13 0.13 0.12 0.12 0.12 0.11 0.10 0.10 0.11 0.12 0.11 0.12 0.11 0.11 0.11 0.11 0.12 0.15 0.16 0.18 0.21 0.15 0.07 0.04 0.05 0.05 0.05 0.06 0.07
0.04 0.04 0.05 0.06 0.07 0.09 0.10 0.13 0.15 0.17 0.19 0.15 0.13 0.11 0.14 0.16 0.13 0.13 0.14 0.11 0.09 0.08 0.09 0.09 0.08 0.09 0.10 0.08 0.09 0.11 0.11 0.12 0.15 0.14 0.15 0.15 0.10 0.05 0.05 0.05 0.05 0.07 0.09
0.03 0.04 0.05 0.05 0.08 0.08 0.09 0.10 0.14 0.16 0.18 0.17 0.14 0.12 0.12 0.12 0.09 0.10 0.09 0.08 0.08 0.06 0.07 0.05 0.06 0.06 0.06 0.06 0.08 0.08 0.10 0.10 0.09 0.12 0.13 0.17 0.16 0.11 0.07 0.06 0.07 0.08 0.10
0.05 0.05 0.04 0.04 0.09 0.11 0.11 0.12 0.16 0.20 0.21 0.16 0.15 0.14 0.10 0.08 0.07 0.07 0.07 0.07 0.06 0.05 0.06 0.07 0.07 0.07 0.06 0.06 0.07 0.07 0.08 0.10 0.11 0.10 0.10 0.10 0.13 0.15 0.12 0.08 0.07 0.10 0.11
0.04 0.03 0.03 0.03 0.04 0.08 0.09 0.10 0.11 0.13 0.17 0.14 0.12 0.14 0.10 0.07 0.05 0.05 0.06 0.07 0.05 0.05 0.06 0.08 0.08 0.08 0.07 0.07 0.06 0.06 0.05 0.06 0.06 0.06 0.05 0.05 0.07 0.11 0.11 0.10 0.07 0.07 0.07
0.02 0.02 0.02 0.02 0.03 0.05 0.07 0.09 0.11 0.10 0.08 0.08 0.08 0.10 0.07 0.04 0.03 0.03 0.05 0.07 0.06 0.06 0.07 0.08 0.07 0.08 0.08 0.08 0.05 0.05 0.05 0.05 0.06 0.07 0.06 0.05 0.06 0.06 0.08 0.08 0.09 0.07 0.06
0.01 0.01 0.01 0.02 0.03 0.03 0.04 0.06 0.12 0.11 0.08 0.05 0.05 0.05 0.04 0.03 0.04 0.03 0.04 0.06 0.05 0.06 0.07 0.08 0.07 0.08 0.08 0.08 0.07 0.07 0.06 0.07 0.08 0.08 0.07 0.06 0.05 0.05 0.06 0.08 0.09 0.09 0.08
0.01 0.01 0.01 0.02 0.02 0.04 0.05 0.05 0.05 0.10 0.14 0.09 0.06 0.05 0.03 0.03 0.04 0.03 0.04 0.05 0.05 0.06 0.07 0.07 0.08 0.08 0.08 0.08 0.09 0.09 0.08 0.08 0.09 0.08 0.08 0.08 0.08 0.08 0.07 0.07 0.09 0.10 0.09
0.02 0.02 0.02 0.02 0.02 0.03 0.04 0.04 0.04 0.05 0.07 0.08 0.08 0.06 0.04 0.04 0.04 0.04 0.05 0.05 0.05 0.06 0.05 0.06 0.08 0.08 0.07 0.09 0.10 0.11 0.10 0.08 0.07 0.10 0.12 0.11 0.11 0.11 0.10 0.10 0.09 0.10 0.09
0.03 0.03 0.03 0.03 0.03 0.04 0.05 0.06 0.05 0.05 0.05 0.06 0.06 0.05 0.05 0.03 0.03 0.04 0.06 0.04 0.04 0.05 0.05 0.06 0.08 0.07 0.07 0.07 0.07 0.09 0.10 0.09 0.08 0.09 0.13 0.12 0.10 0.10 0.10 0.09 0.09 0.08 0.07
0.02 0.02 0.04 0.04 0.05 0.06 0.07 0.05 0.06 0.07 0.06 0.05 0.04 0.04 0.03 0.02 0.02 0.03 0.04 0.04 0.05 0.05 0.05 0.06 0.07 0.06 0.05 0.04 0.04 0.06 0.08 0.08 0.09 0.09 0.10 0.10 0.10 0.08 0.07 0.07 0.07 0.07 0.06
0.01 0.02 0.02 0.04 0.06 0.05 0.05 0.05 0.05 0.05 0.04 0.04 0.04 0.04 0.03 0.02 0.02 0.02 0.02 0.04 0.05 0.06 0.07 0.07 0.05 0.03 0.03 0.03 0.04 0.04 0.06 0.06 0.08 0.09 0.08 0.09 0.08 0.06 0.05 0.04 0.04 0.06 0.05

GEFSSE_prec_meanprec_162.txt.gz
QPF
0.02 0.01 0.00 0.00 0.00 0.00 0.00 0.00 0.00 0.00 0.00 0.00 0.00 0.00 0.00 0.00 0.00 0.00 0.00 0.00 0.00 0.00 0.00 0.00 0.00 0.00 0.01 0.01 0.02 0.02 0.01 0.01 0.01 0.01 0.02 0.02 0.02 0.02 0.02 0.02 0.02 0.01 0.02
0.01 0.00 0.01 0.00 0.00 0.00 0.00 0.00 0.00 0.00 0.00 0.00 0.00 0.00 0.00 0.00 0.00 0.00 0.00 0.00 0.00 0.00 0.00 0.00 0.00 0.00 0.00 0.00 0.01 0.01 0.01 0.00 0.00 0.01 0.01 0.01 0.02 0.02 0.03 0.03 0.02 0.02 0.01
0.00 0.00 0.00 0.01 0.00 0.00 0.00 0.00 0.00 0.00 0.00 0.00 0.00 0.00 0.00 0.00 0.00 0.00 0.00 0.00 0.00 0.00 0.00 0.00 0.00 0.00 0.00 0.00 0.00 0.00 0.01 0.01 0.01 0.01 0.01 0.01 0.02 0.02 0.03 0.02 0.02 0.02 0.01
0.00 0.00 0.00 0.00 0.00 0.00 0.00 0.00 0.00 0.00 0.00 0.00 0.00 0.00 0.00 0.00 0.00 0.00 0.00 0.00 0.00 0.00 0.00 0.00 0.00 0.00 0.00 0.00 0.00 0.00 0.01 0.01 0.02 0.03 0.03 0.03 0.03 0.03 0.03 0.02 0.02 0.01 0.01
0.01 0.00 0.00 0.00 0.00 0.00 0.00 0.01 0.00 0.00 0.01 0.01 0.00 0.00 0.00 0.00 0.00 0.00 0.00 0.00 0.00 0.00 0.00 0.00 0.00 0.00 0.00 0.00 0.00 0.00 0.01 0.02 0.03 0.06 0.09 0.10 0.11 0.08 0.04 0.02 0.01 0.01 0.01
0.01 0.00 0.00 0.00 0.00 0.00 0.01 0.01 0.01 0.01 0.02 0.02 0.01 0.00 0.00 0.00 0.00 0.00 0.00 0.00 0.00 0.00 0.00 0.00 0.00 0.00 0.00 0.00 0.00 0.00 0.01 0.02 0.03 0.05 0.08 0.11 0.13 0.11 0.06 0.03 0.02 0.01 0.01
0.00 0.00 0.00 0.00 0.01 0.01 0.01 0.01 0.01 0.01 0.01 0.01 0.01 0.01 0.00 0.01 0.00 0.01 0.01 0.01 0.01 0.01 0.00 0.00 0.00 0.00 0.00 0.00 0.00 0.00 0.01 0.02 0.02 0.04 0.07 0.09 0.08 0.11 0.09 0.05 0.03 0.02 0.01
0.00 0.00 0.00 0.01 0.01 0.01 0.01 0.01 0.01 0.01 0.01 0.01 0.01 0.01 0.00 0.00 0.01 0.01 0.01 0.01 0.02 0.01 0.01 0.00 0.00 0.00 0.00 0.00 0.00 0.00 0.01 0.01 0.02 0.04 0.06 0.08 0.10 0.15 0.11 0.06 0.04 0.03 0.02
0.01 0.01 0.01 0.01 0.01 0.01 0.01 0.01 0.01 0.01 0.01 0.01 0.01 0.01 0.01 0.01 0.02 0.02 0.02 0.02 0.02 0.02 0.01 0.01 0.01 0.01 0.00 0.00 0.00 0.01 0.01 0.02 0.03 0.04 0.09 0.08 0.11 0.17 0.15 0.07 0.04 0.03 0.02
0.03 0.02 0.01 0.02 0.02 0.02 0.02 0.02 0.01 0.01 0.01 0.01 0.01 0.01 0.02 0.02 0.02 0.03 0.02 0.03 0.03 0.02 0.02 0.02 0.01 0.01 0.01 0.01 0.01 0.01 0.02 0.02 0.02 0.03 0.08 0.10 0.12 0.15 0.14 0.10 0.07 0.05 0.04
0.05 0.03 0.03 0.03 0.05 0.11 0.06 0.02 0.01 0.02 0.02 0.02 0.02 0.03 0.02 0.02 0.02 0.02 0.02 0.04 0.05 0.03 0.03 0.03 0.02 0.02 0.01 0.01 0.01 0.02 0.02 0.02 0.03 0.05 0.07 0.08 0.14 0.20 0.18 0.12 0.09 0.07 0.06
0.07 0.07 0.10 0.06 0.09 0.21 0.11 0.02 0.02 0.04 0.04 0.03 0.03 0.03 0.03 0.02 0.02 0.02 0.03 0.05 0.06 0.05 0.04 0.04 0.03 0.03 0.02 0.02 0.02 0.03 0.02 0.03 0.07 0.07 0.06 0.09 0.15 0.21 0.18 0.13 0.10 0.07 0.06
0.14 0.09 0.06 0.06 0.05 0.06 0.07 0.05 0.05 0.05 0.05 0.08 0.07 0.05 0.04 0.04 0.05 0.05 0.05 0.04 0.04 0.05 0.04 0.04 0.04 0.03 0.03 0.04 0.05 0.04 0.04 0.07 0.11 0.09 0.07 0.14 0.21 0.20 0.19 0.14 0.10 0.07 0.06
0.11 0.08 0.06 0.05 0.05 0.05 0.06 0.08 0.07 0.08 0.07 0.07 0.07 0.05 0.04 0.04 0.06 0.08 0.07 0.07 0.04 0.04 0.05 0.04 0.05 0.04 0.04 0.07 0.08 0.08 0.07 0.07 0.09 0.10 0.12 0.20 0.23 0.17 0.15 0.12 0.09 0.08 0.07
0.09 0.06 0.05 0.05 0.08 0.07 0.08 0.09 0.08 0.09 0.08 0.06 0.06 0.06 0.06 0.07 0.07 0.07 0.08 0.09 0.05 0.04 0.05 0.05 0.07 0.07 0.06 0.06 0.07 0.08 0.07 0.09 0.10 0.12 0.16 0.28 0.29 0.22 0.13 0.11 0.10 0.08 0.07
0.03 0.03 0.04 0.05 0.05 0.05 0.06 0.07 0.07 0.08 0.11 0.08 0.08 0.08 0.09 0.09 0.10 0.08 0.08 0.10 0.08 0.06 0.05 0.05 0.06 0.05 0.05 0.05 0.03 0.04 0.05 0.06 0.07 0.10 0.13 0.18 0.16 0.17 0.16 0.14 0.11 0.10 0.09
0.02 0.02 0.03 0.04 0.04 0.04 0.04 0.05 0.05 0.09 0.12 0.13 0.10 0.11 0.12 0.14 0.17 0.13 0.09 0.10 0.10 0.06 0.05 0.05 0.05 0.03 0.03 0.03 0.03 0.03 0.04 0.05 0.06 0.06 0.07 0.08 0.10 0.13 0.15 0.13 0.11 0.10 0.10
0.03 0.03 0.03 0.03 0.04 0.04 0.03 0.03 0.04 0.08 0.12 0.13 0.12 0.13 0.15 0.14 0.13 0.13 0.08 0.05 0.07 0.05 0.04 0.04 0.03 0.03 0.03 0.03 0.02 0.02 0.03 0.04 0.04 0.05 0.05 0.06 0.06 0.08 0.10 0.09 0.08 0.08 0.10
0.05 0.04 0.04 0.04 0.03 0.03 0.02 0.02 0.04 0.05 0.11 0.13 0.11 0.12 0.12 0.14 0.14 0.13 0.10 0.06 0.04 0.03 0.04 0.03 0.03 0.04 0.04 0.02 0.01 0.01 0.02 0.02 0.02 0.03 0.04 0.05 0.04 0.07 0.10 0.10 0.09 0.09 0.09
0.04 0.05 0.05 0.04 0.04 0.03 0.03 0.02 0.03 0.04 0.05 0.06 0.07 0.11 0.14 0.12 0.11 0.09 0.08 0.07 0.06 0.05 0.05 0.04 0.03 0.03 0.03 0.02 0.01 0.02 0.02 0.02 0.02 0.02 0.03 0.04 0.04 0.05 0.06 0.05 0.05 0.06 0.07
0.06 0.04 0.04 0.03 0.03 0.03 0.02 0.02 0.01 0.02 0.02 0.02 0.03 0.06 0.07 0.07 0.05 0.04 0.05 0.05 0.07 0.05 0.04 0.03 0.03 0.04 0.03 0.02 0.01 0.01 0.01 0.03 0.03 0.02 0.02 0.03 0.03 0.02 0.03 0.05 0.04 0.04 0.05
0.05 0.04 0.04 0.02 0.02 0.02 0.01 0.01 0.01 0.01 0.02 0.03 0.03 0.05 0.05 0.05 0.04 0.02 0.02 0.03 0.04 0.04 0.04 0.04 0.03 0.03 0.02 0.02 0.02 0.02 0.03 0.04 0.03 0.02 0.02 0.03 0.03 0.03 0.03 0.05 0.06 0.05 0.05
0.07 0.05 0.04 0.03 0.02 0.01 0.01 0.00 0.01 0.01 0.02 0.03 0.04 0.04 0.03 0.02 0.03 0.03 0.03 0.03 0.03 0.03 0.03 0.03 0.03 0.02 0.02 0.02 0.03 0.04 0.05 0.08 0.07 0.06 0.04 0.04 0.04 0.05 0.05 0.05 0.05 0.05 0.05
0.07 0.05 0.03 0.02 0.01 0.01 0.00 0.01 0.01 0.01 0.01 0.02 0.02 0.02 0.03 0.03 0.03 0.03 0.03 0.03 0.03 0.03 0.03 0.03 0.02 0.02 0.03 0.03 0.04 0.04 0.04 0.08 0.09 0.07 0.05 0.04 0.04 0.05 0.04 0.04 0.04 0.04 0.05
0.03 0.03 0.02 0.01 0.01 0.01 0.01 0.01 0.01 0.01 0.01 0.02 0.02 0.02 0.03 0.03 0.03 0.03 0.02 0.02 0.03 0.04 0.03 0.03 0.03 0.03 0.04 0.04 0.04 0.03 0.02 0.04 0.07 0.05 0.04 0.05 0.04 0.04 0.03 0.03 0.04 0.04 0.04
0.05 0.04 0.02 0.01 0.01 0.01 0.02 0.02 0.02 0.03 0.03 0.03 0.03 0.04 0.04 0.03 0.02 0.02 0.02 0.02 0.02 0.03 0.03 0.04 0.04 0.03 0.03 0.03 0.03 0.03 0.02 0.03 0.07 0.07 0.05 0.03 0.03 0.03 0.02 0.02 0.03 0.03 0.02

GEFSSE_prec_meanprec_168.txt.gz
QPF
0.02 0.02 0.02 0.01 0.01 0.01 0.00 0.00 0.00 0.00 0.00 0.00 0.00 0.00 0.00 0.00 0.00 0.00 0.00 0.00 0.01 0.01 0.01 0.01 0.01 0.01 0.01 0.01 0.01 0.01 0.01 0.01 0.00 0.01 0.01 0.02 0.03 0.04 0.04 0.02 0.01 0.01 0.02
0.02 0.02 0.02 0.01 0.01 0.00 0.00 0.00 0.00 0.00 0.00 0.00 0.00 0.00 0.00 0.00 0.00 0.00 0.00 0.00 0.00 0.01 0.00 0.00 0.00 0.00 0.00 0.01 0.01 0.01 0.01 0.01 0.00 0.01 0.01 0.02 0.04 0.06 0.07 0.04 0.01 0.02 0.02
0.01 0.01 0.01 0.01 0.01 0.01 0.00 0.00 0.00 0.00 0.00 0.00 0.00 0.00 0.00 0.00 0.00 0.00 0.00 0.00 0.00 0.01 0.00 0.00 0.00 0.00 0.00 0.00 0.01 0.01 0.01 0.01 0.01 0.02 0.02 0.01 0.03 0.04 0.05 0.04 0.02 0.02 0.02
0.01 0.01 0.00 0.01 0.01 0.01 0.01 0.01 0.01 0.00 0.00 0.00 0.00 0.00 0.00 0.00 0.00 0.00 0.00 0.00 0.01 0.01 0.01 0.00 0.00 0.00 0.00 0.00 0.00 0.01 0.02 0.03 0.03 0.03 0.02 0.02 0.02 0.03 0.04 0.04 0.02 0.02 0.02
0.01 0.01 0.01 0.01 0.01 0.01 0.01 0.01 0.01 0.00 0.00 0.00 0.00 0.00 0.00 0.00 0.00 0.00 0.00 0.00 0.00 0.00 0.01 0.00 0.00 0.00 0.00 0.00 0.00 0.01 0.01 0.03 0.03 0.03 0.03 0.03 0.03 0.04 0.04 0.03 0.02 0.01 0.01
0.01 0.01 0.01 0.01 0.02 0.02 0.02 0.02 0.02 0.01 0.00 0.00 0.00 0.00 0.00 0.00 0.01 0.01 0.01 0.00 0.00 0.00 0.00 0.00 0.00 0.00 0.00 0.00 0.00 0.01 0.01 0.03 0.03 0.02 0.02 0.02 0.03 0.04 0.05 0.04 0.03 0.02 0.02
0.01 0.01 0.02 0.02 0.01 0.02 0.02 0.02 0.02 0.01 0.01 0.00 0.01 0.01 0.01 0.01 0.01 0.01 0.01 0.01 0.01 0.00 0.01 0.01 0.01 0.01 0.01 0.00 0.00 0.01 0.01 0.02 0.02 0.01 0.01 0.02 0.02 0.04 0.06 0.06 0.05 0.03 0.02
0.01 0.01 0.01 0.01 0.01 0.01 0.01 0.01 0.01 0.01 0.01 0.01 0.01 0.01 0.01 0.01 0.02 0.02 0.01 0.01 0.01 0.01 0.01 0.01 0.01 0.01 0.01 0.01 0.00 0.01 0.01 0.02 0.01 0.01 0.01 0.01 0.02 0.04 0.06 0.08 0.07 0.04 0.03
0.01 0.01 0.01 0.01 0.01 0.01 0.01 0.01 0.01 0.01 0.01 0.01 0.01 0.01 0.01 0.02 0.02 0.02 0.02 0.02 0.01 0.01 0.01 0.01 0.01 0.01 0.02 0.02 0.01 0.02 0.02 0.02 0.01 0.01 0.01 0.01 0.02 0.05 0.08 0.07 0.06 0.06 0.05
0.01 0.01 0.00 0.01 0.01 0.01 0.01 0.02 0.02 0.02 0.01 0.01 0.01 0.01 0.01 0.01 0.01 0.01 0.01 0.02 0.02 0.02 0.02 0.02 0.02 0.01 0.02 0.03 0.03 0.03 0.04 0.03 0.02 0.01 0.01 0.01 0.02 0.06 0.09 0.08 0.06 0.06 0.06
0.02 0.01 0.01 0.01 0.01 0.02 0.02 0.02 0.02 0.01 0.01 0.01 0.01 0.01 0.01 0.01 0.01 0.01 0.02 0.03 0.03 0.03 0.03 0.04 0.03 0.03 0.02 0.03 0.04 0.04 0.04 0.03 0.02 0.02 0.02 0.02 0.03 0.06 0.08 0.09 0.09 0.08 0.08
0.02 0.02 0.02 0.02 0.02 0.02 0.01 0.01 0.01 0.02 0.02 0.02 0.01 0.01 0.01 0.01 0.01 0.01 0.02 0.03 0.03 0.03 0.03 0.04 0.04 0.04 0.03 0.02 0.03 0.03 0.03 0.03 0.03 0.03 0.02 0.04 0.07 0.09 0.09 0.10 0.10 0.09 0.10
0.02 0.03 0.02 0.01 0.01 0.01 0.01 0.01 0.01 0.01 0.02 0.03 0.03 0.03 0.02 0.02 0.02 0.01 0.02 0.02 0.03 0.03 0.03 0.04 0.04 0.03 0.03 0.04 0.05 0.04 0.04 0.04 0.04 0.03 0.03 0.06 0.07 0.09 0.11 0.12 0.11 0.11 0.09
0.03 0.02 0.01 0.01 0.01 0.01 0.01 0.01 0.01 0.02 0.03 0.04 0.04 0.04 0.03 0.03 0.03 0.02 0.02 0.02 0.02 0.03 0.03 0.02 0.02 0.02 0.02 0.03 0.04 0.04 0.04 0.03 0.03 0.03 0.04 0.06 0.08 0.10 0.12 0.13 0.14 0.13 0.11
0.03 0.02 0.02 0.01 0.01 0.01 0.02 0.02 0.01 0.02 0.04 0.04 0.04 0.04 0.04 0.04 0.04 0.04 0.03 0.03 0.02 0.02 0.02 0.01 0.01 0.02 0.02 0.02 0.02 0.02 0.03 0.04 0.05 0.05 0.05 0.07 0.07 0.09 0.12 0.15 0.15 0.15 0.13
0.04 0.03 0.03 0.03 0.03 0.03 0.03 0.03 0.03 0.03 0.04 0.04 0.04 0.04 0.04 0.04 0.04 0.05 0.05 0.04 0.04 0.03 0.02 0.02 0.01 0.02 0.02 0.02 0.02 0.03 0.03 0.03 0.03 0.04 0.05 0.06 0.07 0.08 0.10 0.12 0.13 0.13 0.13
0.07 0.05 0.04 0.04 0.04 0.04 0.04 0.04 0.03 0.03 0.04 0.04 0.05 0.05 0.05 0.05 0.05 0.05 0.04 0.03 0.03 0.03 0.04 0.04 0.03 0.03 0.03 0.03 0.03 0.03 0.03 0.02 0.02 0.03 0.03 0.04 0.06 0.08 0.10 0.10 0.10 0.11 0.13
0.09 0.08 0.08 0.06 0.05 0.04 0.04 0.04 0.03 0.03 0.04 0.05 0.06 0.06 0.05 0.05 0.04 0.03 0.03 0.03 0.02 0.03 0.04 0.06 0.05 0.04 0.02 0.02 0.03 0.03 0.03 0.03 0.02 0.02 0.01 0.02 0.04 0.07 0.09 0.08 0.08 0.10 0.13
0.11 0.10 0.10 0.07 0.05 0.04 0.04 0.04 0.03 0.03 0.03 0.03 0.02 0.05 0.05 0.03 0.03 0.03 0.03 0.03 0.04 0.03 0.04 0.05 0.04 0.03 0.02 0.02 0.02 0.02 0.03 0.03 0.02 0.01 0.01 0.02 0.02 0.04 0.08 0.11 0.11 0.11 0.12
0.12 0.11 0.08 0.08 0.08 0.06 0.05 0.05 0.04 0.04 0.04 0.03 0.02 0.02 0.02 0.03 0.03 0.03 0.02 0.02 0.03 0.03 0.03 0.03 0.04 0.04 0.03 0.02 0.02 0.02 0.02 0.02 0.01 0.01 0.01 0.01 0.02 0.02 0.04 0.06 0.07 0.07 0.09
0.12 0.12 0.10 0.10 0.11 0.10 0.06 0.04 0.03 0.04 0.03 0.02 0.02 0.02 0.02 0.02 0.03 0.02 0.02 0.03 0.04 0.04 0.03 0.03 0.03 0.03 0.03 0.03 0.02 0.01 0.01 0.01 0.02 0.02 0.02 0.02 0.02 0.02 0.03 0.04 0.04 0.03 0.03
0.13 0.11 0.10 0.09 0.09 0.10 0.09 0.06 0.05 0.04 0.03 0.03 0.02 0.01 0.01 0.01 0.01 0.02 0.02 0.02 0.03 0.05 0.05 0.03 0.03 0.03 0.03 0.03 0.03 0.02 0.01 0.02 0.04 0.05 0.06 0.05 0.04 0.03 0.04 0.05 0.03 0.02 0.03
0.12 0.11 0.07 0.09 0.12 0.11 0.08 0.06 0.04 0.03 0.02 0.02 0.02 0.01 0.01 0.01 0.01 0.01 0.02 0.02 0.02 0.02 0.04 0.03 0.02 0.02 0.02 0.03 0.03 0.03 0.02 0.02 0.03 0.06 0.08 0.07 0.05 0.04 0.04 0.05 0.04 0.04 0.03
0.09 0.10 0.09 0.11 0.13 0.13 0.08 0.05 0.04 0.03 0.02 0.01 0.01 0.01 0.01 0.00 0.01 0.01 0.02 0.02 0.02 0.02 0.02 0.02 0.01 0.01 0.02 0.02 0.02 0.03 0.02 0.02 0.02 0.04 0.07 0.08 0.07 0.05 0.04 0.04 0.04 0.04 0.03
0.09 0.08 0.08 0.07 0.09 0.08 0.06 0.05 0.04 0.03 0.03 0.02 0.02 0.01 0.01 0.01 0.01 0.02 0.02 0.03 0.03 0.02 0.02 0.01 0.01 0.01 0.01 0.02 0.02 0.02 0.03 0.03 0.02 0.02 0.03 0.05 0.07 0.06 0.04 0.04 0.03 0.02 0.02
0.09 0.07 0.05 0.04 0.04 0.03 0.03 0.04 0.05 0.04 0.04 0.03 0.03 0.03 0.03 0.03 0.03 0.03 0.03 0.03 0.03 0.02 0.02 0.02 0.02 0.02 0.01 0.01 0.02 0.02 0.03 0.03 0.03 0.03 0.03 0.03 0.04 0.06 0.06 0.05 0.03 0.02 0.02

GEFSSE_prec_meanprec_174.txt.gz
QPF
0.05 0.03 0.02 0.02 0.01 0.01 0.01 0.01 0.02 0.01 0.01 0.01 0.01 0.01 0.02 0.02 0.02 0.01 0.01 0.01 0.01 0.01 0.01 0.01 0.01 0.01 0.01 0.01 0.00 0.00 0.01 0.01 0.00 0.00 0.00 0.00 0.01 0.01 0.01 0.00 0.01 0.01 0.01
0.03 0.02 0.01 0.02 0.01 0.01 0.02 0.01 0.01 0.00 0.00 0.00 0.01 0.01 0.01 0.02 0.02 0.01 0.01 0.01 0.01 0.01 0.01 0.01 0.00 0.00 0.01 0.01 0.00 0.00 0.00 0.00 0.00 0.01 0.00 0.00 0.01 0.01 0.02 0.01 0.01 0.02 0.01
0.03 0.02 0.01 0.02 0.01 0.01 0.01 0.01 0.01 0.01 0.01 0.01 0.00 0.01 0.00 0.00 0.00 0.01 0.01 0.01 0.01 0.01 0.01 0.00 0.00 0.00 0.00 0.00 0.00 0.00 0.00 0.01 0.01 0.01 0.01 0.01 0.01 0.01 0.01 0.01 0.01 0.01 0.01
0.02 0.03 0.02 0.02 0.02 0.01 0.01 0.02 0.02 0.01 0.01 0.01 0.00 0.00 0.00 0.00 0.00 0.00 0.01 0.01 0.01 0.01 0.01 0.01 0.01 0.01 0.00 0.00 0.00 0.00 0.01 0.02 0.01 0.00 0.00 0.00 0.01 0.01 0.01 0.01 0.01 0.01 0.01
0.03 0.03 0.03 0.02 0.03 0.03 0.03 0.03 0.04 0.02 0.01 0.01 0.00 0.01 0.01 0.01 0.00 0.00 0.01 0.01 0.01 0.01 0.01 0.01 0.01 0.01 0.00 0.00 0.01 0.01 0.01 0.01 0.01 0.01 0.00 0.00 0.01 0.01 0.02 0.02 0.02 0.02 0.01
0.04 0.05 0.05 0.05 0.06 0.06 0.04 0.03 0.04 0.03 0.02 0.01 0.01 0.01 0.01 0.01 0.01 0.01 0.01 0.01 0.01 0.01 0.01 0.01 0.01 0.01 0.01 0.01 0.01 0.01 0.01 0.02 0.01 0.01 0.01 0.01 0.01 0.02 0.03 0.03 0.02 0.02 0.02
0.04 0.06 0.06 0.06 0.06 0.05 0.04 0.04 0.04 0.03 0.02 0.02 0.02 0.02 0.03 0.02 0.02 0.02 0.02 0.02 0.02 0.02 0.02 0.02 0.01 0.01 0.01 0.01 0.01 0.01 0.02 0.02 0.01 0.02 0.02 0.01 0.02 0.03 0.05 0.06 0.05 0.04 0.03
0.05 0.06 0.06 0.03 0.03 0.05 0.05 0.06 0.06 0.05 0.04 0.04 0.04 0.04 0.03 0.02 0.02 0.02 0.02 0.02 0.03 0.03 0.02 0.03 0.03 0.03 0.02 0.02 0.01 0.02 0.02 0.02 0.01 0.01 0.01 0.02 0.03 0.03 0.07 0.08 0.07 0.06 0.04
0.07 0.07 0.06 0.06 0.05 0.04 0.05 0.05 0.04 0.04 0.03 0.03 0.03 0.03 0.03 0.03 0.03 0.03 0.03 0.03 0.03 0.02 0.03 0.04 0.04 0.04 0.03 0.02 0.02 0.02 0.02 0.02 0.01 0.02 0.01 0.02 0.02 0.04 0.09 0.10 0.10 0.09 0.06
0.10 0.07 0.05 0.06 0.06 0.04 0.04 0.03 0.03 0.03 0.03 0.02 0.03 0.04 0.03 0.03 0.03 0.03 0.03 0.03 0.03 0.04 0.03 0.03 0.05 0.04 0.03 0.03 0.02 0.02 0.03 0.02 0.01 0.01 0.01 0.01 0.02 0.05 0.10 0.11 0.11 0.11 0.09
0.07 0.05 0.03 0.03 0.04 0.03 0.02 0.01 0.02 0.01 0.02 0.02 0.03 0.03 0.03 0.03 0.03 0.03 0.04 0.04 0.03 0.04 0.04 0.04 0.03 0.03 0.03 0.03 0.02 0.03 0.04 0.03 0.03 0.03 0.03 0.02 0.03 0.07 0.10 0.12 0.11 0.10 0.11
0.03 0.02 0.02 0.02 0.02 0.02 0.01 0.01 0.02 0.01 0.01 0.02 0.03 0.04 0.05 0.04 0.04 0.04 0.04 0.03 0.02 0.02 0.02 0.03 0.04 0.03 0.03 0.04 0.04 0.03 0.04 0.04 0.05 0.05 0.05 0.04 0.05 0.07 0.10 0.12 0.12 0.11 0.11
0.02 0.01 0.02 0.02 0.02 0.02 0.02 0.01 0.01 0.02 0.02 0.03 0.03 0.03 0.05 0.04 0.04 0.04 0.04 0.03 0.04 0.04 0.05 0.04 0.04 0.03 0.03 0.05 0.05 0.05 0.06 0.05 0.07 0.06 0.05 0.05 0.07 0.08 0.10 0.12 0.13 0.14 0.15
0.03 0.02 0.03 0.03 0.02 0.02 0.02 0.03 0.02 0.02 0.02 0.03 0.03 0.03 0.05 0.06 0.06 0.06 0.06 0.05 0.06 0.06 0.07 0.06 0.06 0.05 0.04 0.04 0.04 0.05 0.05 0.06 0.07 0.08 0.06 0.05 0.06 0.08 0.10 0.13 0.14 0.15 0.17
0.04 0.03 0.03 0.03 0.03 0.03 0.04 0.04 0.03 0.03 0.04 0.05 0.05 0.05 0.06 0.07 0.07 0.08 0.08 0.08 0.08 0.08 0.07 0.07 0.06 0.06 0.05 0.04 0.04 0.03 0.04 0.04 0.06 0.07 0.06 0.06 0.06 0.06 0.09 0.11 0.14 0.15 0.15
0.04 0.04 0.03 0.03 0.04 0.05 0.05 0.04 0.04 0.04 0.04 0.04 0.04 0.05 0.05 0.07 0.07 0.07 0.08 0.09 0.10 0.09 0.08 0.07 0.06 0.05 0.05 0.04 0.04 0.04 0.04 0.04 0.05 0.06 0.06 0.06 0.05 0.06 0.08 0.09 0.12 0.14 0.15
0.06 0.06 0.06 0.06 0.06 0.06 0.05 0.03 0.03 0.04 0.04 0.03 0.03 0.04 0.05 0.06 0.06 0.06 0.05 0.07 0.08 0.08 0.06 0.06 0.06 0.06 0.05 0.04 0.04 0.05 0.05 0.05 0.06 0.07 0.06 0.07 0.07 0.07 0.08 0.09 0.09 0.10 0.12
0.07 0.08 0.08 0.07 0.06 0.05 0.05 0.05 0.05 0.05 0.04 0.04 0.03 0.03 0.03 0.05 0.05 0.06 0.07 0.07 0.06 0.05 0.04 0.04 0.05 0.06 0.05 0.05 0.05 0.05 0.04 0.05 0.06 0.07 0.06 0.07 0.07 0.08 0.09 0.10 0.10 0.10 0.12
0.08 0.07 0.06 0.06 0.05 0.06 0.07 0.08 0.08 0.06 0.05 0.04 0.02 0.02 0.04 0.05 0.05 0.05 0.06 0.05 0.04 0.04 0.04 0.03 0.04 0.04 0.05 0.05 0.05 0.04 0.04 0.04 0.04 0.04 0.05 0.06 0.07 0.07 0.06 0.06 0.07 0.09 0.10
0.08 0.07 0.05 0.05 0.05 0.06 0.06 0.06 0.06 0.06 0.05 0.04 0.03 0.03 0.03 0.02 0.03 0.04 0.04 0.03 0.03 0.03 0.03 0.04 0.03 0.03 0.04 0.04 0.03 0.03 0.04 0.04 0.05 0.05 0.04 0.05 0.05 0.05 0.04 0.04 0.06 0.07 0.06
0.06 0.05 0.05 0.05 0.05 0.05 0.05 0.05 0.04 0.05 0.04 0.03 0.02 0.02 0.02 0.01 0.02 0.03 0.04 0.04 0.04 0.04 0.04 0.04 0.04 0.03 0.03 0.02 0.03 0.03 0.02 0.03 0.05 0.05 0.04 0.04 0.04 0.05 0.06 0.06 0.06 0.05 0.04
0.06 0.05 0.05 0.07 0.09 0.06 0.06 0.06 0.05 0.05 0.05 0.03 0.02 0.02 0.02 0.01 0.01 0.02 0.03 0.03 0.03 0.03 0.04 0.04 0.03 0.03 0.02 0.02 0.04 0.04 0.04 0.04 0.04 0.03 0.04 0.04 0.05 0.05 0.05 0.04 0.04 0.03 0.02
0.06 0.05 0.06 0.06 0.06 0.05 0.05 0.07 0.08 0.08 0.07 0.04 0.03 0.03 0.02 0.02 0.01 0.01 0.01 0.02 0.02 0.03 0.03 0.04 0.03 0.03 0.03 0.03 0.04 0.06 0.07 0.05 0.04 0.04 0.05 0.05 0.05 0.06 0.05 0.03 0.04 0.04 0.03
0.07 0.07 0.05 0.05 0.05 0.04 0.05 0.06 0.07 0.08 0.07 0.06 0.04 0.02 0.02 0.01 0.01 0.01 0.01 0.01 0.01 0.02 0.03 0.03 0.02 0.04 0.05 0.04 0.05 0.06 0.06 0.06 0.06 0.05 0.05 0.05 0.05 0.05 0.05 0.03 0.03 0.02 0.03
0.07 0.07 0.06 0.05 0.05 0.05 0.05 0.05 0.04 0.04 0.04 0.03 0.03 0.02 0.02 0.01 0.01 0.01 0.00 0.00 0.01 0.02 0.02 0.03 0.03 0.04 0.05 0.06 0.07 0.06 0.05 0.05 0.06 0.06 0.06 0.05 0.05 0.05 0.05 0.04 0.03 0.03 0.04
0.09 0.10 0.07 0.05 0.04 0.05 0.05 0.04 0.03 0.03 0.03 0.03 0.03 0.03 0.02 0.02 0.01 0.01 0.01 0.01 0.01 0.02 0.02 0.03 0.03 0.03 0.04 0.05 0.06 0.06 0.05 0.05 0.05 0.06 0.06 0.05 0.04 0.04 0.03 0.03 0.04 0.04 0.04

GEFSSE_prec_meanprec_180.txt.gz
QPF
0.03 0.02 0.01 0.01 0.01 0.01 0.01 0.01 0.02 0.02 0.01 0.01 0.01 0.01 0.01 0.01 0.00 0.00 0.00 0.00 0.00 0.00 0.00 0.00 0.00 0.00 0.00 0.00 0.00 0.00 0.00 0.00 0.00 0.00 0.00 0.00 0.00 0.00 0.00 0.01 0.03 0.06 0.04
0.03 0.01 0.01 0.01 0.01 0.01 0.01 0.01 0.01 0.01 0.01 0.01 0.01 0.01 0.01 0.01 0.00 0.00 0.00 0.00 0.00 0.00 0.00 0.00 0.00 0.00 0.00 0.00 0.00 0.00 0.00 0.00 0.00 0.00 0.00 0.00 0.00 0.00 0.00 0.01 0.03 0.08 0.05
0.03 0.02 0.00 0.01 0.01 0.01 0.01 0.01 0.01 0.01 0.01 0.01 0.01 0.01 0.01 0.00 0.00 0.00 0.00 0.00 0.00 0.00 0.00 0.00 0.00 0.00 0.00 0.01 0.00 0.00 0.00 0.00 0.00 0.00 0.02 0.02 0.01 0.02 0.02 0.01 0.01 0.02 0.02
0.03 0.03 0.01 0.01 0.01 0.01 0.02 0.03 0.03 0.02 0.01 0.01 0.00 0.01 0.00 0.00 0.00 0.00 0.00 0.00 0.00 0.00 0.00 0.00 0.00 0.00 0.00 0.00 0.00 0.00 0.00 0.00 0.00 0.01 0.04 0.04 0.02 0.06 0.04 0.01 0.00 0.00 0.01
0.03 0.04 0.02 0.01 0.01 0.02 0.03 0.03 0.02 0.02 0.02 0.02 0.01 0.01 0.01 0.01 0.01 0.01 0.01 0.01 0.01 0.00 0.00 0.00 0.00 0.00 0.00 0.00 0.00 0.00 0.00 0.00 0.01 0.02 0.03 0.03 0.02 0.03 0.02 0.01 0.00 0.01 0.01
0.05 0.05 0.03 0.02 0.01 0.02 0.02 0.02 0.02 0.02 0.01 0.02 0.02 0.01 0.02 0.02 0.01 0.01 0.01 0.01 0.01 0.01 0.01 0.01 0.01 0.00 0.00 0.01 0.00 0.00 0.00 0.00 0.00 0.01 0.02 0.03 0.05 0.06 0.03 0.01 0.01 0.01 0.02
0.05 0.06 0.05 0.03 0.03 0.02 0.02 0.02 0.02 0.01 0.02 0.02 0.03 0.02 0.02 0.01 0.02 0.01 0.01 0.01 0.01 0.01 0.01 0.01 0.01 0.01 0.01 0.01 0.01 0.00 0.00 0.00 0.01 0.01 0.02 0.05 0.07 0.08 0.05 0.03 0.03 0.02 0.03
0.03 0.04 0.04 0.05 0.05 0.03 0.02 0.02 0.03 0.02 0.02 0.03 0.03 0.03 0.02 0.02 0.02 0.02 0.02 0.02 0.02 0.02 0.02 0.02 0.02 0.02 0.02 0.02 0.01 0.01 0.01 0.00 0.00 0.01 0.02 0.05 0.05 0.04 0.04 0.04 0.04 0.03 0.03
0.02 0.05 0.08 0.10 0.11 0.10 0.08 0.05 0.04 0.03 0.03 0.04 0.04 0.03 0.03 0.03 0.03 0.03 0.03 0.02 0.02 0.02 0.02 0.02 0.01 0.01 0.01 0.02 0.02 0.02 0.01 0.01 0.01 0.01 0.01 0.05 0.04 0.03 0.03 0.05 0.05 0.04 0.04
0.03 0.08 0.14 0.20 0.20 0.15 0.09 0.06 0.06 0.04 0.04 0.05 0.04 0.04 0.03 0.03 0.03 0.03 0.03 0.02 0.02 0.02 0.02 0.02 0.01 0.01 0.02 0.02 0.02 0.03 0.02 0.01 0.01 0.02 0.04 0.05 0.06 0.06 0.05 0.05 0.06 0.05 0.05
0.02 0.04 0.06 0.09 0.09 0.09 0.08 0.07 0.08 0.06 0.05 0.04 0.05 0.05 0.05 0.07 0.07 0.06 0.04 0.03 0.03 0.02 0.02 0.02 0.02 0.01 0.02 0.02 0.04 0.05 0.04 0.02 0.02 0.05 0.09 0.13 0.11 0.08 0.06 0.05 0.06 0.06 0.06
0.02 0.02 0.03 0.05 0.06 0.06 0.06 0.06 0.08 0.07 0.06 0.05 0.06 0.07 0.08 0.10 0.09 0.07 0.08 0.05 0.04 0.03 0.03 0.03 0.02 0.02 0.02 0.05 0.11 0.08 0.03 0.03 0.04 0.08 0.12 0.12 0.15 0.12 0.06 0.06 0.07 0.08 0.07
0.02 0.02 0.03 0.03 0.02 0.03 0.05 0.05 0.06 0.07 0.08 0.09 0.08 0.09 0.12 0.15 0.11 0.09 0.11 0.10 0.07 0.05 0.07 0.07 0.04 0.03 0.05 0.07 0.10 0.09 0.05 0.06 0.06 0.08 0.14 0.14 0.11 0.08 0.07 0.06 0.07 0.07 0.07
0.04 0.03 0.04 0.03 0.03 0.04 0.05 0.06 0.06 0.06 0.08 0.08 0.11 0.10 0.12 0.13 0.11 0.11 0.12 0.10 0.09 0.09 0.10 0.10 0.08 0.06 0.06 0.05 0.04 0.03 0.03 0.04 0.04 0.05 0.09 0.07 0.05 0.05 0.05 0.06 0.07 0.08 0.09
0.05 0.04 0.04 0.04 0.05 0.05 0.07 0.08 0.08 0.08 0.08 0.10 0.11 0.10 0.10 0.12 0.12 0.13 0.12 0.11 0.09 0.09 0.09 0.10 0.08 0.06 0.06 0.05 0.03 0.02 0.02 0.02 0.04 0.06 0.06 0.06 0.05 0.04 0.04 0.04 0.05 0.08 0.11
0.04 0.03 0.03 0.04 0.05 0.06 0.08 0.10 0.11 0.10 0.11 0.11 0.11 0.11 0.11 0.11 0.11 0.11 0.10 0.10 0.09 0.08 0.09 0.09 0.09 0.08 0.07 0.06 0.04 0.04 0.04 0.04 0.06 0.08 0.07 0.07 0.06 0.04 0.04 0.05 0.06 0.07 0.08
0.05 0.05 0.05 0.05 0.05 0.06 0.07 0.08 0.09 0.08 0.08 0.07 0.08 0.07 0.07 0.07 0.08 0.09 0.09 0.08 0.08 0.09 0.10 0.09 0.09 0.08 0.06 0.06 0.06 0.07 0.06 0.04 0.04 0.06 0.06 0.06 0.07 0.07 0.07 0.06 0.07 0.06 0.06
0.04 0.05 0.05 0.05 0.05 0.06 0.06 0.06 0.07 0.07 0.06 0.06 0.06 0.06 0.05 0.05 0.06 0.07 0.06 0.07 0.08 0.08 0.08 0.09 0.09 0.09 0.08 0.07 0.06 0.06 0.07 0.05 0.03 0.04 0.05 0.06 0.08 0.10 0.12 0.10 0.08 0.06 0.05
0.04 0.05 0.04 0.05 0.05 0.06 0.05 0.05 0.06 0.06 0.06 0.06 0.05 0.06 0.05 0.04 0.04 0.04 0.05 0.05 0.06 0.08 0.07 0.07 0.08 0.10 0.10 0.08 0.06 0.07 0.06 0.06 0.05 0.05 0.05 0.06 0.06 0.08 0.10 0.09 0.10 0.11 0.11
0.06 0.06 0.05 0.05 0.05 0.05 0.04 0.04 0.04 0.04 0.05 0.05 0.05 0.06 0.05 0.04 0.03 0.04 0.04 0.04 0.05 0.06 0.06 0.06 0.08 0.09 0.08 0.07 0.05 0.06 0.06 0.05 0.05 0.05 0.06 0.07 0.08 0.07 0.06 0.06 0.08 0.09 0.12
0.06 0.06 0.06 0.06 0.04 0.04 0.03 0.03 0.03 0.04 0.05 0.05 0.05 0.03 0.03 0.02 0.03 0.04 0.05 0.06 0.05 0.06 0.05 0.05 0.07 0.08 0.06 0.07 0.08 0.08 0.05 0.03 0.03 0.04 0.06 0.08 0.06 0.06 0.07 0.08 0.09 0.12 0.13
0.07 0.06 0.06 0.06 0.04 0.03 0.03 0.04 0.04 0.05 0.06 0.06 0.06 0.07 0.06 0.05 0.06 0.07 0.06 0.05 0.04 0.05 0.05 0.05 0.07 0.06 0.05 0.06 0.07 0.08 0.07 0.06 0.06 0.04 0.06 0.07 0.06 0.05 0.04 0.05 0.07 0.09 0.10
0.07 0.05 0.05 0.06 0.05 0.04 0.03 0.04 0.04 0.05 0.05 0.05 0.06 0.07 0.08 0.07 0.06 0.04 0.03 0.03 0.04 0.04 0.06 0.06 0.05 0.05 0.04 0.05 0.06 0.07 0.08 0.08 0.09 0.07 0.06 0.06 0.07 0.06 0.05 0.03 0.04 0.05 0.06
0.05 0.06 0.07 0.07 0.07 0.07 0.06 0.05 0.05 0.04 0.04 0.05 0.07 0.09 0.10 0.08 0.04 0.01 0.01 0.02 0.03 0.03 0.05 0.05 0.05 0.05 0.06 0.06 0.08 0.08 0.09 0.09 0.08 0.08 0.08 0.07 0.07 0.06 0.04 0.03 0.03 0.04 0.05
0.07 0.08 0.08 0.09 0.09 0.09 0.09 0.09 0.08 0.07 0.08 0.07 0.08 0.08 0.08 0.06 0.03 0.01 0.01 0.01 0.02 0.03 0.03 0.03 0.04 0.05 0.07 0.07 0.08 0.08 0.08 0.10 0.10 0.09 0.10 0.11 0.08 0.05 0.04 0.03 0.03 0.04 0.04
0.08 0.13 0.12 0.09 0.12 0.14 0.16 0.17 0.14 0.11 0.09 0.07 0.06 0.04 0.04 0.04 0.04 0.03 0.02 0.02 0.02 0.02 0.03 0.04 0.04 0.05 0.06 0.07 0.08 0.09 0.09 0.09 0.09 0.10 0.10 0.11 0.09 0.06 0.04 0.03 0.03 0.03 0.03

GEFSSE_prec_meanprec_186.txt.gz
QPF
0.05 0.03 0.05 0.03 0.01 0.00 0.00 0.00 0.01 0.01 0.00 0.00 0.00 0.00 0.00 0.00 0.00 0.00 0.00 0.00 0.00 0.00 0.00 0.00 0.00 0.01 0.01 0.00 0.00 0.00 0.01 0.01 0.01 0.01 0.01 0.02 0.02 0.02 0.03 0.03 0.02 0.02 0.02
0.03 0.03 0.04 0.02 0.01 0.00 0.00 0.00 0.00 0.00 0.00 0.00 0.00 0.00 0.00 0.00 0.00 0.00 0.00 0.00 0.00 0.00 0.00 0.00 0.00 0.00 0.00 0.00 0.00 0.00 0.00 0.01 0.01 0.01 0.01 0.02 0.03 0.03 0.03 0.04 0.03 0.03 0.03
0.02 0.04 0.02 0.01 0.00 0.00 0.00 0.00 0.01 0.01 0.00 0.00 0.00 0.00 0.00 0.00 0.00 0.00 0.00 0.00 0.00 0.00 0.00 0.00 0.00 0.00 0.00 0.00 0.00 0.00 0.00 0.01 0.02 0.02 0.02 0.02 0.03 0.05 0.05 0.06 0.05 0.04 0.03
0.02 0.03 0.01 0.01 0.00 0.00 0.00 0.00 0.00 0.01 0.00 0.00 0.00 0.00 0.00 0.00 0.00 0.00 0.00 0.00 0.00 0.00 0.00 0.00 0.00 0.00 0.00 0.00 0.00 0.00 0.00 0.02 0.04 0.05 0.04 0.04 0.04 0.07 0.06 0.05 0.04 0.04 0.03
0.01 0.01 0.01 0.00 0.00 0.00 0.00 0.00 0.00 0.01 0.01 0.01 0.01 0.01 0.01 0.01 0.00 0.00 0.00 0.00 0.00 0.00 0.00 0.00 0.00 0.00 0.00 0.00 0.00 0.00 0.01 0.01 0.04 0.08 0.08 0.10 0.09 0.09 0.08 0.06 0.05 0.04 0.03
0.01 0.01 0.01 0.00 0.00 0.00 0.00 0.00 0.01 0.01 0.01 0.01 0.01 0.01 0.01 0.01 0.01 0.01 0.01 0.00 0.01 0.01 0.00 0.00 0.00 0.00 0.00 0.00 0.00 0.00 0.01 0.01 0.03 0.05 0.07 0.10 0.12 0.12 0.12 0.11 0.06 0.05 0.04
0.01 0.01 0.01 0.01 0.00 0.00 0.00 0.00 0.01 0.01 0.01 0.01 0.01 0.01 0.02 0.01 0.01 0.01 0.01 0.01 0.01 0.01 0.01 0.00 0.01 0.01 0.00 0.00 0.00 0.00 0.01 0.02 0.02 0.03 0.05 0.10 0.13 0.14 0.15 0.13 0.08 0.06 0.05
0.02 0.01 0.01 0.01 0.00 0.00 0.00 0.00 0.01 0.01 0.01 0.01 0.01 0.01 0.02 0.01 0.01 0.01 0.01 0.01 0.01 0.01 0.01 0.01 0.01 0.01 0.01 0.01 0.00 0.01 0.01 0.01 0.02 0.02 0.05 0.07 0.10 0.15 0.18 0.19 0.11 0.08 0.07
0.01 0.01 0.01 0.01 0.00 0.00 0.00 0.01 0.01 0.01 0.01 0.01 0.02 0.03 0.02 0.02 0.01 0.01 0.01 0.02 0.01 0.01 0.02 0.01 0.01 0.01 0.01 0.01 0.01 0.01 0.01 0.02 0.01 0.02 0.04 0.06 0.14 0.19 0.20 0.15 0.12 0.10 0.08
0.01 0.01 0.01 0.01 0.01 0.00 0.01 0.01 0.01 0.02 0.03 0.03 0.03 0.03 0.02 0.02 0.02 0.02 0.02 0.03 0.03 0.03 0.03 0.03 0.02 0.01 0.01 0.01 0.02 0.02 0.02 0.02 0.02 0.03 0.06 0.07 0.18 0.23 0.18 0.14 0.13 0.10 0.09
0.01 0.00 0.01 0.01 0.01 0.01 0.01 0.02 0.03 0.03 0.02 0.03 0.03 0.03 0.02 0.02 0.02 0.03 0.03 0.04 0.05 0.07 0.06 0.05 0.03 0.02 0.02 0.01 0.02 0.03 0.03 0.03 0.04 0.06 0.08 0.10 0.15 0.20 0.19 0.14 0.11 0.09 0.08
0.01 0.01 0.01 0.01 0.01 0.01 0.01 0.02 0.04 0.02 0.03 0.04 0.03 0.03 0.03 0.05 0.06 0.05 0.04 0.07 0.09 0.07 0.06 0.05 0.04 0.03 0.02 0.01 0.01 0.03 0.03 0.03 0.04 0.07 0.09 0.11 0.14 0.17 0.15 0.13 0.11 0.10 0.09
0.02 0.01 0.02 0.02 0.02 0.02 0.02 0.01 0.01 0.01 0.02 0.03 0.06 0.07 0.08 0.09 0.10 0.05 0.02 0.03 0.03 0.04 0.03 0.04 0.04 0.02 0.02 0.02 0.02 0.03 0.04 0.05 0.08 0.11 0.12 0.12 0.13 0.15 0.13 0.11 0.11 0.11 0.09
0.01 0.01 0.02 0.02 0.02 0.04 0.03 0.01 0.01 0.01 0.02 0.02 0.02 0.02 0.04 0.05 0.06 0.04 0.03 0.02 0.02 0.03 0.03 0.03 0.03 0.03 0.04 0.04 0.06 0.05 0.04 0.06 0.09 0.09 0.10 0.13 0.12 0.09 0.09 0.10 0.09 0.09 0.08
0.03 0.03 0.02 0.03 0.04 0.05 0.04 0.02 0.02 0.03 0.03 0.03 0.03 0.04 0.05 0.05 0.05 0.05 0.05 0.05 0.05 0.05 0.05 0.04 0.05 0.05 0.05 0.05 0.07 0.06 0.05 0.06 0.05 0.04 0.05 0.08 0.08 0.08 0.09 0.09 0.08 0.08 0.07
0.03 0.02 0.02 0.03 0.03 0.03 0.04 0.03 0.04 0.04 0.04 0.05 0.04 0.04 0.04 0.04 0.04 0.03 0.04 0.04 0.05 0.05 0.05 0.04 0.05 0.06 0.06 0.06 0.06 0.05 0.04 0.04 0.04 0.03 0.03 0.04 0.05 0.06 0.08 0.09 0.09 0.08 0.07
0.04 0.04 0.04 0.04 0.04 0.05 0.07 0.04 0.04 0.04 0.05 0.04 0.04 0.03 0.02 0.02 0.02 0.03 0.05 0.06 0.05 0.04 0.03 0.03 0.04 0.05 0.05 0.06 0.06 0.06 0.05 0.04 0.04 0.04 0.03 0.03 0.03 0.06 0.09 0.08 0.08 0.07 0.07
0.06 0.06 0.05 0.04 0.04 0.05 0.06 0.05 0.05 0.05 0.05 0.04 0.03 0.03 0.03 0.04 0.05 0.06 0.08 0.07 0.07 0.06 0.04 0.04 0.04 0.05 0.05 0.07 0.07 0.07 0.05 0.04 0.04 0.05 0.05 0.04 0.04 0.06 0.09 0.08 0.06 0.06 0.05
0.11 0.09 0.06 0.07 0.05 0.05 0.05 0.05 0.04 0.05 0.05 0.03 0.03 0.03 0.04 0.06 0.07 0.09 0.09 0.09 0.07 0.05 0.04 0.03 0.03 0.04 0.05 0.06 0.06 0.05 0.05 0.06 0.05 0.06 0.05 0.05 0.05 0.06 0.07 0.07 0.06 0.06 0.05
0.11 0.10 0.08 0.09 0.10 0.06 0.04 0.04 0.05 0.05 0.04 0.02 0.02 0.03 0.04 0.06 0.08 0.08 0.08 0.07 0.05 0.04 0.03 0.02 0.02 0.02 0.02 0.03 0.04 0.04 0.04 0.07 0.09 0.06 0.03 0.05 0.05 0.04 0.04 0.05 0.05 0.05 0.05
0.11 0.10 0.11 0.10 0.09 0.07 0.04 0.03 0.03 0.03 0.03 0.03 0.03 0.04 0.04 0.04 0.03 0.04 0.04 0.05 0.05 0.04 0.03 0.02 0.02 0.01 0.01 0.02 0.03 0.03 0.03 0.04 0.05 0.04 0.02 0.05 0.04 0.04 0.04 0.05 0.06 0.04 0.04
0.14 0.11 0.11 0.12 0.08 0.06 0.04 0.04 0.04 0.04 0.04 0.04 0.05 0.03 0.03 0.03 0.03 0.04 0.04 0.05 0.04 0.03 0.02 0.02 0.03 0.02 0.01 0.02 0.02 0.02 0.03 0.03 0.03 0.04 0.03 0.05 0.04 0.05 0.05 0.04 0.05 0.04 0.04
0.13 0.11 0.09 0.11 0.11 0.07 0.06 0.06 0.05 0.05 0.05 0.04 0.04 0.03 0.03 0.05 0.05 0.05 0.04 0.02 0.02 0.01 0.01 0.01 0.02 0.02 0.02 0.02 0.03 0.04 0.03 0.03 0.03 0.03 0.03 0.04 0.05 0.06 0.06 0.05 0.04 0.05 0.06
0.11 0.08 0.08 0.09 0.09 0.08 0.08 0.07 0.06 0.06 0.05 0.05 0.06 0.06 0.07 0.08 0.10 0.08 0.04 0.02 0.01 0.01 0.01 0.01 0.01 0.02 0.02 0.02 0.04 0.05 0.04 0.03 0.02 0.03 0.04 0.04 0.03 0.04 0.04 0.04 0.04 0.05 0.05
0.12 0.09 0.09 0.09 0.08 0.08 0.09 0.10 0.08 0.07 0.07 0.07 0.07 0.07 0.08 0.08 0.07 0.05 0.04 0.02 0.01 0.01 0.01 0.01 0.01 0.01 0.02 0.03 0.03 0.04 0.05 0.04 0.03 0.03 0.04 0.04 0.05 0.05 0.04 0.03 0.02 0.03 0.03
0.10 0.14 0.16 0.13 0.09 0.09 0.10 0.12 0.12 0.13 0.14 0.13 0.12 0.11 0.10 0.10 0.09 0.07 0.06 0.03 0.02 0.02 0.01 0.01 0.01 0.01 0.01 0.02 0.02 0.04 0.05 0.04 0.03 0.03 0.03 0.04 0.03 0.02 0.02 0.02 0.02 0.02 0.02

GEFSSE_prec_meanprec_192.txt.gz
QPF
0.03 0.04 0.05 0.04 0.02 0.01 0.01 0.01 0.01 0.01 0.00 0.00 0.00 0.01 0.01 0.00 0.00 0.01 0.01 0.01 0.01 0.01 0.00 0.00 0.00 0.00 0.00 0.00 0.00 0.00 0.00 0.01 0.01 0.01 0.01 0.02 0.03 0.03 0.04 0.04 0.04 0.03 0.04
0.02 0.05 0.07 0.04 0.02 0.01 0.01 0.01 0.01 0.01 0.00 0.00 0.00 0.00 0.00 0.00 0.00 0.00 0.01 0.01 0.01 0.00 0.01 0.01 0.00 0.00 0.00 0.00 0.00 0.00 0.01 0.01 0.01 0.02 0.02 0.02 0.04 0.05 0.06 0.06 0.06 0.05 0.06
0.02 0.06 0.09 0.05 0.02 0.01 0.01 0.01 0.01 0.00 0.00 0.00 0.00 0.01 0.01 0.01 0.01 0.01 0.01 0.01 0.01 0.01 0.01 0.01 0.01 0.01 0.01 0.01 0.01 0.01 0.01 0.02 0.02 0.03 0.04 0.02 0.03 0.05 0.06 0.05 0.06 0.05 0.06
0.02 0.06 0.06 0.05 0.03 0.01 0.01 0.01 0.01 0.00 0.00 0.00 0.00 0.00 0.00 0.01 0.00 0.01 0.01 0.01 0.01 0.01 0.01 0.02 0.02 0.02 0.02 0.02 0.01 0.01 0.02 0.03 0.04 0.05 0.04 0.03 0.03 0.04 0.05 0.05 0.04 0.04 0.05
0.04 0.05 0.05 0.03 0.02 0.01 0.01 0.01 0.01 0.00 0.00 0.00 0.00 0.00 0.01 0.01 0.01 0.01 0.01 0.01 0.02 0.03 0.03 0.02 0.02 0.01 0.01 0.02 0.02 0.02 0.02 0.02 0.04 0.04 0.03 0.02 0.03 0.04 0.05 0.05 0.06 0.05 0.04
0.04 0.03 0.03 0.01 0.01 0.01 0.01 0.01 0.00 0.00 0.00 0.00 0.00 0.01 0.01 0.01 0.01 0.01 0.02 0.02 0.03 0.03 0.03 0.02 0.01 0.01 0.01 0.01 0.02 0.02 0.02 0.02 0.03 0.02 0.02 0.02 0.03 0.05 0.07 0.08 0.10 0.08 0.06
0.01 0.02 0.02 0.02 0.02 0.02 0.01 0.01 0.00 0.00 0.00 0.00 0.00 0.01 0.00 0.01 0.01 0.02 0.03 0.03 0.03 0.03 0.02 0.02 0.02 0.02 0.01 0.01 0.01 0.02 0.02 0.03 0.02 0.01 0.01 0.01 0.03 0.05 0.07 0.10 0.10 0.08 0.07
0.02 0.02 0.02 0.02 0.02 0.02 0.01 0.01 0.00 0.00 0.00 0.00 0.00 0.00 0.00 0.01 0.02 0.03 0.04 0.04 0.04 0.03 0.03 0.02 0.02 0.02 0.02 0.01 0.01 0.02 0.02 0.03 0.02 0.01 0.01 0.01 0.02 0.03 0.06 0.10 0.10 0.09 0.08
0.01 0.01 0.02 0.02 0.02 0.02 0.01 0.01 0.01 0.00 0.01 0.00 0.00 0.01 0.02 0.02 0.03 0.03 0.03 0.03 0.03 0.03 0.03 0.02 0.02 0.03 0.02 0.02 0.02 0.02 0.03 0.03 0.02 0.02 0.01 0.01 0.02 0.04 0.08 0.09 0.09 0.09 0.09
0.01 0.01 0.01 0.01 0.01 0.01 0.02 0.02 0.02 0.01 0.01 0.01 0.01 0.01 0.02 0.02 0.02 0.02 0.03 0.03 0.03 0.03 0.03 0.03 0.02 0.02 0.02 0.02 0.03 0.03 0.03 0.03 0.02 0.02 0.01 0.01 0.02 0.06 0.10 0.11 0.09 0.08 0.08
0.01 0.01 0.01 0.01 0.01 0.01 0.02 0.03 0.04 0.03 0.02 0.02 0.02 0.02 0.02 0.02 0.02 0.03 0.03 0.02 0.03 0.03 0.03 0.04 0.03 0.03 0.03 0.03 0.03 0.04 0.04 0.02 0.01 0.01 0.01 0.02 0.03 0.06 0.11 0.11 0.10 0.09 0.08
0.02 0.02 0.01 0.02 0.02 0.01 0.01 0.02 0.02 0.02 0.01 0.01 0.01 0.01 0.01 0.01 0.01 0.02 0.02 0.03 0.04 0.04 0.05 0.06 0.07 0.06 0.05 0.04 0.03 0.04 0.03 0.02 0.02 0.02 0.02 0.02 0.04 0.07 0.09 0.09 0.09 0.10 0.11
0.02 0.02 0.02 0.01 0.02 0.02 0.01 0.01 0.01 0.01 0.01 0.02 0.02 0.02 0.02 0.01 0.01 0.01 0.01 0.01 0.02 0.03 0.03 0.04 0.05 0.05 0.05 0.04 0.03 0.03 0.03 0.03 0.03 0.03 0.03 0.03 0.05 0.07 0.09 0.09 0.09 0.11 0.12
0.03 0.04 0.02 0.01 0.01 0.01 0.01 0.01 0.01 0.01 0.01 0.02 0.02 0.03 0.03 0.02 0.02 0.01 0.02 0.02 0.02 0.03 0.03 0.03 0.04 0.05 0.06 0.05 0.04 0.04 0.04 0.04 0.04 0.03 0.04 0.04 0.05 0.07 0.09 0.11 0.10 0.11 0.10
0.05 0.03 0.03 0.03 0.02 0.01 0.01 0.01 0.01 0.01 0.01 0.01 0.02 0.02 0.03 0.02 0.02 0.03 0.04 0.04 0.03 0.03 0.03 0.04 0.05 0.05 0.05 0.05 0.06 0.06 0.05 0.05 0.05 0.04 0.04 0.04 0.04 0.05 0.07 0.10 0.11 0.10 0.10
0.09 0.06 0.06 0.06 0.04 0.03 0.03 0.03 0.03 0.03 0.02 0.02 0.02 0.03 0.03 0.03 0.03 0.04 0.04 0.04 0.03 0.04 0.04 0.04 0.04 0.05 0.04 0.04 0.05 0.06 0.06 0.05 0.05 0.03 0.03 0.02 0.03 0.04 0.06 0.09 0.11 0.11 0.10
0.06 0.06 0.07 0.07 0.07 0.09 0.09 0.09 0.07 0.05 0.05 0.04 0.04 0.04 0.04 0.04 0.03 0.03 0.02 0.03 0.03 0.04 0.05 0.04 0.03 0.03 0.03 0.04 0.04 0.06 0.06 0.05 0.04 0.03 0.02 0.02 0.02 0.03 0.05 0.06 0.09 0.11 0.11
0.04 0.05 0.08 0.11 0.10 0.11 0.14 0.15 0.10 0.06 0.06 0.06 0.05 0.06 0.05 0.05 0.05 0.05 0.04 0.03 0.04 0.04 0.05 0.04 0.04 0.03 0.03 0.03 0.03 0.04 0.04 0.05 0.04 0.03 0.03 0.02 0.02 0.02 0.04 0.06 0.08 0.10 0.11
0.07 0.07 0.08 0.09 0.09 0.10 0.08 0.08 0.07 0.05 0.04 0.04 0.04 0.05 0.07 0.07 0.06 0.06 0.06 0.06 0.06 0.06 0.05 0.03 0.03 0.03 0.03 0.03 0.02 0.02 0.02 0.03 0.03 0.04 0.03 0.03 0.02 0.02 0.02 0.04 0.06 0.08 0.09
0.12 0.11 0.10 0.11 0.11 0.11 0.09 0.08 0.07 0.06 0.06 0.06 0.06 0.08 0.08 0.07 0.07 0.07 0.07 0.07 0.06 0.06 0.05 0.04 0.03 0.03 0.03 0.02 0.02 0.02 0.02 0.02 0.02 0.03 0.03 0.02 0.02 0.02 0.02 0.02 0.03 0.04 0.06
0.09 0.09 0.10 0.11 0.13 0.14 0.13 0.11 0.09 0.08 0.09 0.08 0.07 0.07 0.08 0.07 0.06 0.06 0.06 0.07 0.07 0.06 0.04 0.04 0.03 0.02 0.02 0.02 0.01 0.01 0.02 0.02 0.02 0.02 0.03 0.02 0.02 0.02 0.02 0.02 0.03 0.04 0.04
0.08 0.09 0.09 0.10 0.13 0.15 0.15 0.15 0.13 0.11 0.09 0.09 0.09 0.08 0.07 0.07 0.06 0.06 0.06 0.06 0.06 0.05 0.04 0.04 0.03 0.02 0.01 0.02 0.01 0.01 0.02 0.02 0.02 0.02 0.02 0.02 0.02 0.02 0.01 0.02 0.02 0.02 0.01
0.08 0.07 0.08 0.10 0.12 0.13 0.16 0.18 0.14 0.11 0.09 0.08 0.07 0.08 0.09 0.09 0.08 0.06 0.05 0.05 0.05 0.04 0.04 0.04 0.03 0.02 0.01 0.02 0.02 0.03 0.02 0.02 0.01 0.02 0.02 0.02 0.02 0.02 0.01 0.01 0.01 0.01 0.01
0.05 0.06 0.08 0.10 0.14 0.13 0.14 0.16 0.15 0.12 0.10 0.09 0.09 0.08 0.08 0.08 0.06 0.05 0.05 0.04 0.04 0.03 0.03 0.02 0.01 0.01 0.00 0.01 0.01 0.02 0.03 0.03 0.02 0.02 0.02 0.02 0.02 0.02 0.01 0.01 0.01 0.01 0.01
0.07 0.06 0.08 0.13 0.17 0.16 0.13 0.13 0.16 0.13 0.12 0.11 0.10 0.08 0.07 0.06 0.06 0.05 0.03 0.03 0.03 0.02 0.02 0.02 0.01 0.01 0.00 0.00 0.01 0.02 0.03 0.04 0.03 0.02 0.02 0.02 0.02 0.02 0.02 0.01 0.01 0.01 0.02
0.06 0.09 0.11 0.15 0.16 0.15 0.12 0.10 0.13 0.12 0.12 0.10 0.09 0.09 0.08 0.07 0.05 0.03 0.02 0.04 0.05 0.05 0.06 0.04 0.02 0.01 0.00 0.00 0.01 0.02 0.03 0.04 0.04 0.03 0.03 0.02 0.03 0.04 0.03 0.02 0.01 0.01 0.02

GEFSSE_prec_meanprec_198.txt.gz
QPF
0.03 0.02 0.04 0.06 0.05 0.03 0.02 0.02 0.02 0.01 0.01 0.01 0.01 0.00 0.00 0.01 0.01 0.00 0.01 0.01 0.01 0.01 0.01 0.00 0.01 0.01 0.01 0.01 0.01 0.00 0.00 0.00 0.00 0.00 0.01 0.01 0.01 0.01 0.01 0.01 0.01 0.02 0.03
0.03 0.01 0.03 0.04 0.05 0.03 0.02 0.02 0.01 0.01 0.01 0.01 0.00 0.01 0.01 0.01 0.01 0.01 0.01 0.01 0.01 0.01 0.01 0.01 0.01 0.01 0.01 0.01 0.01 0.01 0.00 0.00 0.00 0.00 0.00 0.00 0.00 0.01 0.01 0.01 0.01 0.03 0.03
0.01 0.01 0.02 0.03 0.05 0.04 0.02 0.02 0.02 0.01 0.01 0.01 0.01 0.01 0.01 0.01 0.01 0.01 0.01 0.01 0.01 0.01 0.01 0.01 0.01 0.01 0.01 0.01 0.01 0.01 0.01 0.01 0.01 0.00 0.01 0.01 0.00 0.01 0.01 0.01 0.01 0.02 0.02
0.02 0.02 0.03 0.05 0.06 0.05 0.02 0.02 0.02 0.01 0.01 0.01 0.01 0.01 0.01 0.01 0.01 0.01 0.01 0.02 0.02 0.02 0.02 0.01 0.01 0.01 0.01 0.01 0.01 0.01 0.01 0.01 0.01 0.01 0.01 0.01 0.00 0.01 0.02 0.01 0.02 0.02 0.03
0.03 0.04 0.03 0.05 0.06 0.06 0.05 0.03 0.02 0.01 0.01 0.01 0.01 0.01 0.01 0.01 0.01 0.02 0.02 0.02 0.03 0.03 0.02 0.02 0.01 0.01 0.01 0.01 0.01 0.01 0.01 0.02 0.02 0.02 0.01 0.01 0.01 0.01 0.01 0.02 0.03 0.03 0.03
0.03 0.05 0.04 0.04 0.07 0.09 0.09 0.06 0.03 0.01 0.01 0.01 0.01 0.01 0.01 0.01 0.01 0.02 0.02 0.02 0.02 0.02 0.02 0.02 0.02 0.02 0.02 0.02 0.02 0.02 0.03 0.03 0.03 0.02 0.02 0.01 0.01 0.02 0.01 0.03 0.04 0.04 0.05
0.02 0.05 0.05 0.04 0.06 0.09 0.10 0.10 0.06 0.02 0.01 0.01 0.01 0.00 0.00 0.00 0.01 0.01 0.02 0.02 0.03 0.04 0.05 0.04 0.03 0.03 0.03 0.02 0.02 0.02 0.02 0.03 0.03 0.02 0.02 0.02 0.01 0.02 0.03 0.04 0.04 0.03 0.04
0.02 0.03 0.04 0.04 0.04 0.05 0.05 0.04 0.03 0.03 0.02 0.02 0.02 0.01 0.01 0.01 0.01 0.01 0.02 0.03 0.04 0.05 0.05 0.04 0.05 0.05 0.04 0.03 0.02 0.02 0.02 0.02 0.02 0.01 0.01 0.01 0.01 0.02 0.04 0.05 0.04 0.04 0.03
0.02 0.03 0.04 0.05 0.04 0.04 0.06 0.05 0.05 0.05 0.06 0.06 0.04 0.03 0.02 0.01 0.02 0.02 0.04 0.04 0.04 0.04 0.04 0.04 0.03 0.03 0.04 0.04 0.04 0.04 0.03 0.02 0.02 0.02 0.01 0.01 0.01 0.02 0.05 0.08 0.06 0.05 0.05
0.02 0.03 0.04 0.05 0.05 0.04 0.04 0.06 0.06 0.06 0.07 0.10 0.06 0.04 0.05 0.03 0.02 0.02 0.03 0.02 0.02 0.02 0.02 0.03 0.03 0.03 0.04 0.05 0.05 0.06 0.05 0.04 0.02 0.02 0.02 0.02 0.01 0.03 0.07 0.09 0.08 0.08 0.07
0.01 0.02 0.03 0.03 0.03 0.04 0.04 0.03 0.05 0.05 0.05 0.06 0.06 0.03 0.03 0.02 0.02 0.02 0.02 0.02 0.01 0.02 0.02 0.03 0.04 0.04 0.04 0.05 0.06 0.06 0.06 0.05 0.03 0.03 0.03 0.02 0.03 0.06 0.08 0.10 0.10 0.10 0.09
0.02 0.02 0.03 0.03 0.02 0.02 0.02 0.02 0.03 0.03 0.03 0.03 0.03 0.03 0.02 0.03 0.02 0.02 0.02 0.02 0.02 0.04 0.05 0.06 0.06 0.06 0.05 0.06 0.07 0.07 0.07 0.06 0.05 0.05 0.05 0.04 0.05 0.08 0.09 0.09 0.09 0.09 0.09
0.02 0.02 0.02 0.02 0.03 0.02 0.01 0.02 0.03 0.03 0.02 0.02 0.03 0.04 0.03 0.02 0.03 0.03 0.04 0.04 0.04 0.05 0.06 0.06 0.07 0.08 0.08 0.07 0.07 0.07 0.07 0.07 0.07 0.08 0.06 0.06 0.06 0.07 0.07 0.07 0.08 0.08 0.10
0.02 0.01 0.01 0.02 0.02 0.02 0.02 0.02 0.03 0.03 0.03 0.03 0.04 0.04 0.04 0.03 0.03 0.04 0.04 0.05 0.05 0.05 0.05 0.05 0.05 0.06 0.07 0.07 0.06 0.07 0.08 0.08 0.06 0.05 0.03 0.03 0.04 0.05 0.06 0.09 0.10 0.09 0.10
0.02 0.02 0.03 0.04 0.04 0.04 0.04 0.04 0.03 0.03 0.04 0.05 0.05 0.04 0.03 0.02 0.03 0.04 0.04 0.05 0.05 0.04 0.04 0.04 0.04 0.05 0.05 0.04 0.04 0.05 0.07 0.06 0.05 0.05 0.04 0.03 0.03 0.04 0.05 0.07 0.11 0.12 0.12
0.02 0.03 0.03 0.04 0.04 0.04 0.04 0.03 0.04 0.03 0.03 0.03 0.03 0.04 0.04 0.04 0.04 0.04 0.05 0.05 0.05 0.04 0.05 0.05 0.03 0.04 0.04 0.04 0.03 0.04 0.05 0.06 0.06 0.05 0.05 0.04 0.03 0.03 0.03 0.04 0.07 0.10 0.13
0.03 0.04 0.04 0.04 0.04 0.04 0.03 0.04 0.04 0.04 0.03 0.03 0.03 0.05 0.05 0.05 0.06 0.06 0.06 0.06 0.05 0.05 0.04 0.04 0.03 0.03 0.03 0.04 0.03 0.03 0.04 0.05 0.06 0.06 0.05 0.03 0.02 0.02 0.02 0.04 0.05 0.08 0.09
0.03 0.03 0.04 0.04 0.04 0.05 0.05 0.06 0.06 0.04 0.04 0.05 0.05 0.07 0.08 0.08 0.08 0.07 0.06 0.06 0.05 0.05 0.04 0.04 0.03 0.03 0.04 0.04 0.03 0.03 0.03 0.04 0.04 0.05 0.05 0.04 0.03 0.03 0.02 0.02 0.03 0.05 0.06
0.03 0.03 0.04 0.05 0.05 0.06 0.05 0.04 0.04 0.03 0.03 0.03 0.05 0.08 0.08 0.07 0.07 0.05 0.05 0.06 0.06 0.05 0.04 0.03 0.03 0.04 0.04 0.04 0.02 0.02 0.03 0.03 0.03 0.04 0.05 0.05 0.05 0.04 0.03 0.02 0.02 0.03 0.04
0.03 0.04 0.05 0.06 0.08 0.07 0.07 0.06 0.05 0.03 0.03 0.04 0.05 0.06 0.06 0.06 0.06 0.06 0.05 0.05 0.04 0.04 0.04 0.04 0.05 0.06 0.06 0.05 0.05 0.04 0.03 0.03 0.03 0.03 0.03 0.04 0.04 0.03 0.03 0.04 0.04 0.03 0.03
0.03 0.04 0.05 0.05 0.07 0.08 0.09 0.09 0.07 0.06 0.06 0.06 0.06 0.07 0.07 0.07 0.09 0.09 0.08 0.06 0.06 0.05 0.05 0.06 0.07 0.07 0.07 0.06 0.06 0.05 0.03 0.02 0.02 0.03 0.03 0.04 0.04 0.04 0.03 0.03 0.04 0.04 0.05
0.03 0.03 0.04 0.04 0.05 0.06 0.09 0.12 0.12 0.10 0.09 0.09 0.11 0.12 0.11 0.10 0.12 0.14 0.14 0.10 0.08 0.06 0.05 0.05 0.05 0.05 0.05 0.05 0.04 0.04 0.04 0.04 0.03 0.03 0.03 0.04 0.05 0.05 0.04 0.03 0.02 0.03 0.03
0.03 0.03 0.04 0.04 0.06 0.09 0.13 0.14 0.13 0.10 0.09 0.08 0.08 0.09 0.11 0.11 0.10 0.09 0.09 0.09 0.08 0.06 0.05 0.05 0.04 0.04 0.03 0.03 0.04 0.05 0.05 0.04 0.04 0.03 0.03 0.03 0.04 0.05 0.04 0.04 0.02 0.02 0.02
0.02 0.03 0.03 0.03 0.04 0.07 0.09 0.13 0.13 0.10 0.09 0.07 0.07 0.07 0.08 0.09 0.09 0.08 0.07 0.07 0.06 0.06 0.05 0.05 0.04 0.04 0.03 0.02 0.02 0.02 0.03 0.03 0.03 0.03 0.03 0.03 0.03 0.04 0.04 0.03 0.03 0.03 0.02
0.02 0.02 0.03 0.04 0.03 0.04 0.06 0.10 0.12 0.11 0.09 0.07 0.07 0.07 0.06 0.06 0.05 0.04 0.04 0.03 0.03 0.03 0.04 0.04 0.04 0.03 0.03 0.03 0.02 0.02 0.02 0.02 0.03 0.03 0.03 0.03 0.03 0.04 0.05 0.05 0.04 0.03 0.02
0.01 0.01 0.03 0.03 0.03 0.04 0.06 0.07 0.08 0.08 0.06 0.06 0.06 0.06 0.05 0.05 0.04 0.03 0.02 0.02 0.02 0.02 0.03 0.03 0.04 0.04 0.03 0.03 0.02 0.02 0.02 0.02 0.02 0.03 0.04 0.04 0.04 0.04 0.05 0.06 0.04 0.04 0.03

GEFSSE_prec_meanprec_204.txt.gz
QPF
0.01 0.01 0.01 0.01 0.01 0.02 0.04 0.06 0.05 0.02 0.01 0.00 0.00 0.00 0.00 0.00 0.00 0.00 0.00 0.00 0.01 0.01 0.01 0.02 0.02 0.01 0.01 0.01 0.01 0.01 0.00 0.00 0.00 0.00 0.00 0.00 0.01 0.00 0.00 0.00 0.01 0.04 0.07
0.00 0.01 0.01 0.02 0.02 0.03 0.05 0.06 0.02 0.02 0.01 0.01 0.00 0.00 0.00 0.00 0.00 0.01 0.01 0.01 0.00 0.00 0.00 0.01 0.01 0.01 0.01 0.01 0.01 0.01 0.01 0.01 0.00 0.00 0.00 0.00 0.01 0.01 0.01 0.01 0.02 0.06 0.05
0.01 0.02 0.01 0.01 0.03 0.03 0.04 0.05 0.01 0.01 0.01 0.01 0.00 0.00 0.00 0.00 0.00 0.01 0.01 0.01 0.01 0.01 0.01 0.01 0.01 0.01 0.01 0.01 0.01 0.01 0.01 0.01 0.01 0.01 0.01 0.02 0.01 0.03 0.03 0.02 0.02 0.02 0.02
0.01 0.02 0.01 0.01 0.03 0.05 0.04 0.03 0.02 0.03 0.02 0.02 0.02 0.01 0.01 0.01 0.01 0.01 0.01 0.01 0.01 0.01 0.01 0.01 0.02 0.01 0.01 0.01 0.01 0.01 0.01 0.02 0.02 0.02 0.03 0.04 0.03 0.06 0.05 0.03 0.02 0.01 0.02
0.01 0.02 0.02 0.01 0.03 0.07 0.05 0.04 0.04 0.04 0.03 0.03 0.03 0.02 0.02 0.02 0.01 0.00 0.00 0.00 0.01 0.01 0.01 0.02 0.02 0.02 0.02 0.02 0.01 0.01 0.02 0.03 0.02 0.02 0.03 0.03 0.04 0.06 0.05 0.03 0.02 0.02 0.02
0.01 0.02 0.02 0.02 0.04 0.09 0.05 0.05 0.05 0.05 0.05 0.05 0.03 0.03 0.03 0.02 0.01 0.00 0.00 0.00 0.01 0.01 0.02 0.02 0.02 0.02 0.02 0.02 0.02 0.01 0.01 0.02 0.01 0.03 0.03 0.03 0.05 0.07 0.05 0.04 0.03 0.03 0.02
0.01 0.02 0.02 0.02 0.05 0.10 0.07 0.05 0.05 0.05 0.04 0.06 0.04 0.04 0.03 0.02 0.01 0.01 0.01 0.02 0.02 0.02 0.02 0.02 0.02 0.03 0.03 0.03 0.03 0.03 0.02 0.02 0.02 0.04 0.03 0.04 0.06 0.09 0.08 0.06 0.05 0.04 0.03
0.01 0.02 0.02 0.03 0.05 0.08 0.08 0.07 0.07 0.06 0.04 0.06 0.05 0.05 0.04 0.04 0.03 0.03 0.03 0.04 0.04 0.04 0.03 0.02 0.03 0.03 0.03 0.02 0.02 0.03 0.02 0.01 0.01 0.02 0.05 0.05 0.05 0.09 0.10 0.08 0.05 0.05 0.04
0.02 0.03 0.04 0.05 0.07 0.06 0.06 0.07 0.11 0.08 0.07 0.07 0.04 0.04 0.05 0.05 0.05 0.05 0.05 0.05 0.04 0.03 0.02 0.02 0.02 0.02 0.01 0.02 0.02 0.03 0.02 0.01 0.01 0.01 0.02 0.03 0.04 0.05 0.06 0.07 0.07 0.07 0.06
0.02 0.03 0.05 0.08 0.08 0.06 0.05 0.05 0.06 0.06 0.07 0.06 0.07 0.05 0.07 0.08 0.07 0.07 0.05 0.05 0.04 0.02 0.02 0.02 0.02 0.02 0.02 0.02 0.03 0.03 0.02 0.02 0.01 0.02 0.02 0.03 0.03 0.05 0.07 0.06 0.06 0.07 0.06
0.04 0.04 0.06 0.07 0.07 0.07 0.07 0.05 0.05 0.05 0.04 0.04 0.08 0.10 0.09 0.14 0.12 0.09 0.06 0.06 0.05 0.04 0.04 0.03 0.04 0.03 0.02 0.02 0.02 0.03 0.02 0.02 0.02 0.03 0.03 0.04 0.04 0.05 0.07 0.06 0.06 0.06 0.06
0.04 0.06 0.05 0.07 0.07 0.07 0.07 0.09 0.08 0.07 0.05 0.04 0.06 0.10 0.08 0.14 0.14 0.12 0.08 0.05 0.04 0.04 0.03 0.03 0.03 0.03 0.02 0.02 0.04 0.04 0.02 0.02 0.03 0.04 0.05 0.06 0.06 0.05 0.06 0.06 0.06 0.07 0.07
0.03 0.04 0.04 0.06 0.07 0.08 0.09 0.11 0.10 0.09 0.09 0.06 0.06 0.06 0.07 0.09 0.11 0.10 0.08 0.06 0.04 0.03 0.04 0.06 0.06 0.04 0.03 0.03 0.04 0.04 0.02 0.02 0.03 0.03 0.03 0.05 0.05 0.04 0.04 0.05 0.06 0.07 0.07
0.03 0.04 0.03 0.04 0.06 0.07 0.09 0.10 0.10 0.09 0.09 0.09 0.10 0.07 0.09 0.10 0.08 0.08 0.07 0.07 0.08 0.08 0.08 0.09 0.08 0.05 0.05 0.04 0.04 0.03 0.03 0.03 0.05 0.03 0.04 0.03 0.03 0.03 0.03 0.04 0.05 0.05 0.07
0.03 0.04 0.04 0.04 0.04 0.07 0.08 0.08 0.09 0.09 0.09 0.09 0.09 0.07 0.07 0.08 0.08 0.07 0.07 0.09 0.09 0.09 0.10 0.09 0.08 0.08 0.07 0.05 0.04 0.03 0.04 0.03 0.02 0.02 0.03 0.03 0.03 0.03 0.02 0.03 0.04 0.04 0.05
0.03 0.03 0.04 0.05 0.04 0.04 0.05 0.06 0.06 0.07 0.06 0.05 0.04 0.04 0.05 0.06 0.06 0.07 0.09 0.11 0.09 0.07 0.08 0.09 0.10 0.09 0.08 0.06 0.06 0.06 0.06 0.04 0.03 0.03 0.04 0.05 0.04 0.03 0.03 0.03 0.03 0.04 0.04
0.05 0.04 0.04 0.04 0.04 0.04 0.03 0.04 0.04 0.05 0.05 0.04 0.04 0.04 0.05 0.06 0.09 0.09 0.09 0.10 0.10 0.11 0.11 0.10 0.11 0.12 0.12 0.10 0.08 0.06 0.05 0.04 0.04 0.04 0.05 0.05 0.04 0.03 0.03 0.03 0.04 0.04 0.05
0.08 0.08 0.05 0.04 0.05 0.05 0.05 0.05 0.04 0.03 0.03 0.03 0.04 0.06 0.05 0.06 0.08 0.08 0.07 0.07 0.08 0.09 0.09 0.09 0.09 0.09 0.10 0.11 0.11 0.07 0.05 0.05 0.05 0.05 0.05 0.05 0.06 0.06 0.05 0.04 0.03 0.03 0.04
0.09 0.11 0.08 0.05 0.05 0.06 0.06 0.05 0.04 0.04 0.04 0.04 0.04 0.04 0.04 0.04 0.04 0.05 0.05 0.05 0.05 0.07 0.07 0.07 0.09 0.09 0.09 0.10 0.09 0.08 0.07 0.07 0.07 0.04 0.04 0.04 0.06 0.07 0.07 0.06 0.06 0.05 0.03
0.07 0.08 0.07 0.06 0.05 0.05 0.05 0.04 0.04 0.05 0.05 0.05 0.04 0.03 0.04 0.04 0.05 0.07 0.05 0.06 0.06 0.07 0.08 0.08 0.08 0.08 0.09 0.09 0.10 0.10 0.08 0.06 0.05 0.05 0.04 0.04 0.04 0.05 0.07 0.08 0.07 0.06 0.04
0.05 0.05 0.05 0.04 0.03 0.04 0.05 0.06 0.06 0.07 0.06 0.05 0.04 0.04 0.04 0.04 0.05 0.06 0.06 0.06 0.07 0.08 0.08 0.08 0.07 0.07 0.07 0.08 0.08 0.07 0.07 0.06 0.06 0.07 0.04 0.02 0.02 0.04 0.07 0.09 0.10 0.09 0.07
0.05 0.05 0.05 0.03 0.03 0.05 0.07 0.09 0.08 0.07 0.06 0.07 0.06 0.06 0.06 0.05 0.05 0.05 0.06 0.06 0.07 0.09 0.09 0.07 0.07 0.06 0.05 0.05 0.06 0.06 0.06 0.05 0.05 0.04 0.04 0.03 0.03 0.04 0.05 0.07 0.08 0.08 0.08
0.05 0.04 0.04 0.05 0.05 0.05 0.06 0.09 0.08 0.07 0.07 0.07 0.07 0.08 0.07 0.07 0.05 0.05 0.05 0.05 0.06 0.07 0.08 0.07 0.06 0.06 0.05 0.05 0.05 0.07 0.07 0.07 0.07 0.06 0.05 0.05 0.04 0.04 0.05 0.05 0.04 0.04 0.05
0.04 0.03 0.03 0.04 0.05 0.05 0.05 0.06 0.08 0.08 0.07 0.08 0.09 0.08 0.08 0.09 0.09 0.06 0.04 0.04 0.04 0.04 0.05 0.05 0.05 0.05 0.05 0.04 0.05 0.06 0.08 0.09 0.09 0.08 0.07 0.05 0.04 0.04 0.05 0.05 0.05 0.04 0.03
0.03 0.04 0.03 0.03 0.04 0.04 0.05 0.04 0.05 0.07 0.09 0.09 0.09 0.10 0.11 0.10 0.09 0.07 0.04 0.03 0.03 0.03 0.04 0.04 0.04 0.04 0.04 0.04 0.04 0.04 0.05 0.07 0.07 0.07 0.07 0.06 0.06 0.05 0.06 0.07 0.07 0.06 0.04
0.04 0.03 0.03 0.03 0.03 0.03 0.03 0.03 0.04 0.04 0.06 0.07 0.08 0.10 0.11 0.10 0.09 0.07 0.06 0.05 0.04 0.04 0.04 0.05 0.05 0.04 0.04 0.04 0.04 0.04 0.04 0.04 0.05 0.05 0.05 0.05 0.06 0.06 0.06 0.06 0.06 0.06 0.06

GEFSSE_prec_meanprec_210.txt.gz
QPF
0.02 0.01 0.02 0.01 0.01 0.01 0.01 0.01 0.01 0.01 0.01 0.01 0.01 0.00 0.00 0.00 0.00 0.00 0.00 0.00 0.00 0.01 0.01 0.01 0.01 0.01 0.01 0.01 0.01 0.00 0.00 0.01 0.01 0.02 0.03 0.05 0.04 0.03 0.02 0.02 0.03 0.03 0.05
0.01 0.01 0.01 0.01 0.01 0.01 0.01 0.01 0.01 0.01 0.01 0.01 0.01 0.00 0.00 0.00 0.00 0.00 0.00 0.00 0.00 0.00 0.01 0.01 0.01 0.01 0.02 0.02 0.01 0.00 0.00 0.00 0.00 0.01 0.01 0.02 0.03 0.04 0.04 0.03 0.03 0.02 0.03
0.02 0.01 0.01 0.02 0.02 0.02 0.01 0.00 0.00 0.01 0.01 0.00 0.00 0.00 0.00 0.00 0.00 0.00 0.00 0.00 0.00 0.01 0.01 0.01 0.01 0.01 0.01 0.01 0.01 0.01 0.00 0.00 0.00 0.01 0.01 0.01 0.01 0.04 0.05 0.04 0.03 0.03 0.03
0.01 0.01 0.02 0.03 0.03 0.02 0.01 0.01 0.00 0.01 0.01 0.00 0.00 0.00 0.00 0.00 0.00 0.00 0.00 0.00 0.00 0.00 0.01 0.01 0.01 0.01 0.01 0.01 0.01 0.01 0.01 0.01 0.01 0.02 0.02 0.03 0.03 0.05 0.07 0.07 0.04 0.03 0.04
0.00 0.01 0.03 0.03 0.04 0.02 0.02 0.03 0.02 0.01 0.01 0.01 0.01 0.01 0.01 0.01 0.01 0.00 0.00 0.00 0.01 0.01 0.01 0.01 0.01 0.01 0.01 0.01 0.01 0.01 0.01 0.02 0.02 0.03 0.03 0.06 0.07 0.08 0.08 0.07 0.05 0.03 0.03
0.00 0.01 0.02 0.03 0.03 0.04 0.05 0.04 0.03 0.02 0.01 0.01 0.01 0.02 0.02 0.02 0.02 0.02 0.01 0.01 0.01 0.02 0.02 0.01 0.02 0.02 0.01 0.01 0.01 0.01 0.01 0.02 0.02 0.03 0.03 0.05 0.06 0.07 0.08 0.06 0.05 0.03 0.03
0.00 0.01 0.01 0.04 0.04 0.06 0.07 0.06 0.03 0.03 0.03 0.02 0.02 0.03 0.04 0.04 0.04 0.03 0.02 0.01 0.02 0.03 0.02 0.02 0.02 0.02 0.02 0.02 0.02 0.02 0.02 0.02 0.02 0.03 0.04 0.06 0.05 0.07 0.09 0.07 0.06 0.05 0.04
0.01 0.00 0.01 0.03 0.05 0.09 0.09 0.08 0.04 0.04 0.04 0.05 0.04 0.04 0.03 0.04 0.04 0.03 0.01 0.02 0.03 0.02 0.02 0.02 0.03 0.03 0.02 0.02 0.02 0.03 0.02 0.02 0.02 0.02 0.04 0.07 0.07 0.11 0.11 0.09 0.07 0.05 0.04
0.01 0.01 0.01 0.01 0.03 0.06 0.06 0.05 0.05 0.05 0.06 0.10 0.06 0.04 0.02 0.03 0.03 0.04 0.02 0.02 0.03 0.03 0.02 0.02 0.03 0.02 0.02 0.01 0.01 0.02 0.03 0.02 0.03 0.02 0.03 0.07 0.08 0.10 0.11 0.09 0.07 0.05 0.04
0.02 0.01 0.02 0.01 0.01 0.03 0.05 0.06 0.06 0.08 0.10 0.16 0.11 0.06 0.03 0.03 0.02 0.03 0.04 0.03 0.03 0.02 0.02 0.03 0.03 0.02 0.02 0.02 0.02 0.02 0.03 0.02 0.02 0.01 0.02 0.04 0.08 0.09 0.09 0.08 0.06 0.06 0.06
0.02 0.02 0.02 0.02 0.02 0.02 0.04 0.06 0.07 0.10 0.12 0.17 0.13 0.08 0.05 0.03 0.02 0.01 0.02 0.04 0.04 0.03 0.03 0.03 0.04 0.04 0.03 0.02 0.02 0.03 0.03 0.02 0.02 0.02 0.02 0.03 0.07 0.08 0.08 0.08 0.08 0.08 0.07
0.04 0.03 0.03 0.03 0.03 0.02 0.02 0.04 0.06 0.12 0.12 0.13 0.11 0.08 0.05 0.03 0.02 0.01 0.02 0.05 0.06 0.05 0.03 0.03 0.04 0.03 0.03 0.02 0.02 0.04 0.03 0.02 0.02 0.03 0.03 0.05 0.08 0.09 0.09 0.08 0.07 0.07 0.08
0.04 0.05 0.05 0.05 0.05 0.04 0.03 0.04 0.07 0.09 0.09 0.09 0.09 0.07 0.04 0.03 0.03 0.04 0.06 0.05 0.06 0.08 0.05 0.04 0.04 0.03 0.03 0.03 0.02 0.02 0.02 0.02 0.04 0.04 0.05 0.06 0.09 0.10 0.10 0.08 0.05 0.05 0.05
0.07 0.10 0.12 0.09 0.08 0.06 0.05 0.04 0.07 0.08 0.07 0.06 0.05 0.04 0.07 0.08 0.05 0.06 0.05 0.04 0.05 0.08 0.09 0.05 0.03 0.03 0.03 0.04 0.04 0.03 0.03 0.04 0.06 0.10 0.07 0.05 0.05 0.07 0.08 0.07 0.05 0.04 0.04
0.07 0.10 0.13 0.10 0.08 0.07 0.06 0.05 0.05 0.07 0.06 0.04 0.03 0.03 0.04 0.04 0.03 0.04 0.06 0.05 0.05 0.06 0.10 0.10 0.06 0.04 0.03 0.03 0.04 0.03 0.04 0.05 0.07 0.10 0.09 0.06 0.05 0.05 0.06 0.06 0.06 0.06 0.05
0.07 0.09 0.10 0.10 0.10 0.09 0.09 0.09 0.07 0.05 0.04 0.03 0.02 0.02 0.03 0.03 0.02 0.03 0.06 0.05 0.04 0.04 0.05 0.06 0.05 0.04 0.05 0.05 0.04 0.03 0.03 0.04 0.04 0.04 0.04 0.05 0.05 0.05 0.05 0.05 0.06 0.07 0.06
0.10 0.12 0.15 0.10 0.11 0.08 0.06 0.08 0.08 0.05 0.03 0.02 0.01 0.02 0.03 0.03 0.04 0.03 0.03 0.03 0.03 0.03 0.04 0.04 0.04 0.04 0.04 0.04 0.04 0.04 0.04 0.04 0.04 0.04 0.03 0.05 0.04 0.04 0.04 0.04 0.05 0.06 0.06
0.10 0.10 0.15 0.13 0.10 0.09 0.05 0.05 0.07 0.08 0.05 0.03 0.02 0.03 0.03 0.03 0.04 0.03 0.03 0.03 0.04 0.04 0.04 0.04 0.04 0.04 0.03 0.03 0.03 0.04 0.04 0.03 0.02 0.03 0.05 0.08 0.09 0.07 0.05 0.04 0.04 0.04 0.04
0.08 0.10 0.11 0.12 0.08 0.06 0.06 0.05 0.05 0.06 0.06 0.05 0.04 0.04 0.03 0.03 0.03 0.03 0.04 0.05 0.05 0.04 0.04 0.03 0.03 0.04 0.04 0.04 0.05 0.05 0.05 0.04 0.05 0.05 0.04 0.05 0.08 0.09 0.07 0.04 0.04 0.04 0.03
0.08 0.13 0.14 0.12 0.09 0.04 0.04 0.04 0.04 0.04 0.04 0.05 0.05 0.04 0.04 0.03 0.03 0.04 0.04 0.04 0.04 0.05 0.05 0.05 0.05 0.05 0.05 0.05 0.04 0.03 0.03 0.02 0.02 0.04 0.05 0.04 0.05 0.07 0.07 0.05 0.03 0.03 0.04
0.07 0.11 0.17 0.13 0.10 0.06 0.03 0.03 0.03 0.02 0.02 0.03 0.04 0.05 0.04 0.04 0.03 0.04 0.04 0.04 0.05 0.06 0.06 0.06 0.06 0.05 0.05 0.04 0.03 0.02 0.01 0.01 0.01 0.02 0.05 0.07 0.05 0.05 0.06 0.07 0.04 0.02 0.02
0.06 0.06 0.08 0.09 0.10 0.08 0.05 0.03 0.03 0.02 0.03 0.04 0.04 0.03 0.04 0.05 0.05 0.05 0.05 0.06 0.07 0.07 0.06 0.06 0.06 0.05 0.04 0.03 0.02 0.01 0.01 0.01 0.01 0.01 0.02 0.04 0.05 0.07 0.08 0.08 0.08 0.06 0.04
0.04 0.05 0.04 0.04 0.04 0.05 0.05 0.05 0.04 0.04 0.04 0.03 0.04 0.04 0.03 0.04 0.06 0.08 0.09 0.08 0.08 0.09 0.08 0.06 0.04 0.04 0.03 0.02 0.02 0.02 0.01 0.01 0.01 0.01 0.01 0.02 0.02 0.03 0.06 0.09 0.11 0.09 0.06
0.04 0.05 0.05 0.05 0.04 0.04 0.06 0.05 0.04 0.03 0.03 0.03 0.03 0.03 0.04 0.05 0.05 0.08 0.10 0.10 0.10 0.10 0.09 0.07 0.05 0.03 0.03 0.03 0.02 0.02 0.01 0.01 0.02 0.02 0.02 0.02 0.02 0.02 0.02 0.04 0.08 0.10 0.08
0.05 0.08 0.10 0.12 0.09 0.07 0.07 0.05 0.04 0.04 0.04 0.04 0.04 0.04 0.05 0.07 0.09 0.09 0.09 0.11 0.13 0.13 0.11 0.09 0.06 0.04 0.04 0.04 0.03 0.02 0.01 0.01 0.02 0.02 0.02 0.02 0.03 0.03 0.02 0.02 0.03 0.05 0.06
0.04 0.05 0.08 0.11 0.12 0.14 0.11 0.09 0.07 0.05 0.05 0.05 0.05 0.04 0.06 0.06 0.07 0.09 0.09 0.09 0.11 0.13 0.12 0.09 0.06 0.04 0.03 0.03 0.03 0.03 0.02 0.01 0.01 0.01 0.01 0.01 0.02 0.02 0.02 0.02 0.02 0.02 0.03

GEFSSE_prec_meanprec_216.txt.gz
QPF
0.01 0.01 0.02 0.02 0.02 0.02 0.01 0.03 0.07 0.04 0.03 0.03 0.04 0.05 0.02 0.00 0.00 0.00 0.00 0.00 0.00 0.01 0.01 0.01 0.01 0.01 0.01 0.01 0.01 0.01 0.02 0.01 0.01 0.02 0.02 0.03 0.03 0.03 0.03 0.04 0.06 0.05 0.08
0.01 0.02 0.03 0.03 0.02 0.02 0.02 0.03 0.05 0.03 0.02 0.02 0.04 0.04 0.02 0.00 0.00 0.00 0.00 0.00 0.01 0.02 0.02 0.02 0.01 0.01 0.01 0.01 0.01 0.01 0.02 0.01 0.01 0.02 0.02 0.02 0.04 0.05 0.06 0.06 0.06 0.05 0.07
0.00 0.01 0.03 0.04 0.01 0.02 0.02 0.03 0.03 0.01 0.02 0.02 0.03 0.04 0.03 0.01 0.00 0.00 0.01 0.01 0.01 0.02 0.02 0.02 0.02 0.02 0.02 0.02 0.01 0.02 0.03 0.03 0.03 0.03 0.03 0.02 0.01 0.04 0.07 0.08 0.07 0.07 0.06
0.00 0.01 0.03 0.04 0.03 0.03 0.03 0.02 0.01 0.01 0.02 0.02 0.02 0.03 0.04 0.02 0.01 0.01 0.01 0.01 0.01 0.01 0.02 0.02 0.02 0.03 0.03 0.03 0.03 0.03 0.03 0.04 0.04 0.04 0.03 0.02 0.01 0.04 0.06 0.08 0.08 0.07 0.07
0.00 0.00 0.02 0.03 0.04 0.05 0.04 0.03 0.02 0.02 0.02 0.02 0.02 0.03 0.06 0.04 0.01 0.01 0.01 0.01 0.02 0.02 0.02 0.02 0.02 0.03 0.04 0.04 0.02 0.02 0.02 0.03 0.04 0.03 0.02 0.02 0.02 0.04 0.06 0.07 0.07 0.07 0.08
0.00 0.00 0.00 0.02 0.02 0.05 0.07 0.05 0.03 0.03 0.02 0.02 0.02 0.02 0.05 0.05 0.02 0.01 0.01 0.01 0.01 0.02 0.02 0.02 0.02 0.02 0.03 0.04 0.02 0.02 0.02 0.02 0.02 0.02 0.02 0.02 0.02 0.03 0.06 0.07 0.08 0.08 0.08
0.02 0.01 0.01 0.02 0.02 0.04 0.05 0.05 0.05 0.05 0.04 0.03 0.03 0.02 0.03 0.03 0.02 0.02 0.01 0.01 0.01 0.01 0.02 0.02 0.03 0.03 0.03 0.03 0.03 0.02 0.02 0.03 0.02 0.01 0.01 0.01 0.01 0.03 0.05 0.07 0.09 0.09 0.08
0.02 0.02 0.03 0.03 0.03 0.04 0.05 0.05 0.05 0.04 0.04 0.04 0.02 0.01 0.01 0.02 0.02 0.03 0.03 0.02 0.01 0.02 0.02 0.02 0.03 0.04 0.03 0.02 0.03 0.03 0.02 0.03 0.02 0.01 0.01 0.00 0.01 0.03 0.06 0.08 0.08 0.09 0.10
0.01 0.01 0.01 0.03 0.05 0.07 0.07 0.06 0.06 0.04 0.03 0.03 0.03 0.02 0.02 0.02 0.03 0.03 0.03 0.03 0.02 0.02 0.01 0.02 0.03 0.03 0.03 0.03 0.03 0.03 0.03 0.02 0.02 0.02 0.02 0.01 0.01 0.03 0.07 0.09 0.09 0.09 0.10
0.01 0.01 0.01 0.01 0.03 0.05 0.06 0.07 0.06 0.04 0.03 0.02 0.02 0.03 0.03 0.02 0.03 0.04 0.05 0.04 0.03 0.02 0.02 0.02 0.03 0.04 0.04 0.04 0.04 0.04 0.03 0.03 0.03 0.03 0.02 0.02 0.02 0.05 0.08 0.08 0.09 0.09 0.09
0.01 0.03 0.04 0.02 0.02 0.03 0.04 0.05 0.05 0.05 0.05 0.05 0.04 0.04 0.04 0.04 0.05 0.06 0.06 0.06 0.04 0.03 0.03 0.03 0.04 0.05 0.05 0.04 0.05 0.05 0.04 0.03 0.04 0.03 0.03 0.01 0.02 0.05 0.09 0.08 0.08 0.08 0.08
0.01 0.02 0.04 0.05 0.02 0.03 0.04 0.05 0.05 0.05 0.06 0.06 0.05 0.03 0.03 0.04 0.05 0.06 0.07 0.07 0.07 0.05 0.04 0.05 0.04 0.04 0.04 0.03 0.04 0.05 0.03 0.03 0.02 0.02 0.02 0.02 0.03 0.04 0.06 0.08 0.10 0.11 0.10
0.01 0.01 0.01 0.03 0.06 0.05 0.04 0.05 0.05 0.07 0.06 0.07 0.04 0.03 0.03 0.03 0.03 0.03 0.03 0.05 0.05 0.05 0.04 0.05 0.05 0.04 0.04 0.04 0.03 0.03 0.02 0.01 0.01 0.01 0.02 0.03 0.04 0.04 0.06 0.07 0.08 0.10 0.12
0.01 0.01 0.02 0.03 0.04 0.07 0.09 0.06 0.04 0.06 0.08 0.08 0.05 0.04 0.02 0.02 0.03 0.02 0.02 0.03 0.03 0.05 0.05 0.06 0.06 0.03 0.03 0.02 0.02 0.02 0.01 0.01 0.01 0.01 0.02 0.04 0.04 0.05 0.06 0.08 0.08 0.09 0.10
0.03 0.02 0.04 0.05 0.04 0.05 0.10 0.10 0.07 0.08 0.10 0.10 0.06 0.04 0.03 0.02 0.02 0.02 0.02 0.03 0.02 0.03 0.03 0.06 0.07 0.05 0.03 0.03 0.03 0.03 0.02 0.02 0.01 0.01 0.02 0.03 0.03 0.05 0.07 0.07 0.08 0.10 0.10
0.03 0.04 0.05 0.07 0.07 0.07 0.07 0.09 0.09 0.08 0.10 0.10 0.07 0.05 0.04 0.03 0.02 0.03 0.02 0.02 0.02 0.02 0.03 0.05 0.05 0.05 0.04 0.02 0.02 0.02 0.02 0.02 0.02 0.02 0.01 0.02 0.03 0.03 0.05 0.06 0.07 0.08 0.09
0.05 0.06 0.07 0.09 0.10 0.09 0.08 0.08 0.09 0.08 0.08 0.09 0.08 0.08 0.06 0.04 0.03 0.03 0.03 0.03 0.03 0.03 0.03 0.04 0.05 0.05 0.05 0.04 0.03 0.02 0.02 0.02 0.01 0.01 0.01 0.02 0.02 0.02 0.03 0.04 0.05 0.05 0.07
0.07 0.08 0.10 0.14 0.16 0.11 0.07 0.06 0.07 0.06 0.06 0.08 0.08 0.08 0.07 0.04 0.04 0.03 0.03 0.04 0.05 0.04 0.04 0.04 0.05 0.06 0.05 0.05 0.03 0.02 0.02 0.02 0.01 0.01 0.01 0.01 0.01 0.01 0.02 0.03 0.04 0.04 0.05
0.07 0.09 0.11 0.12 0.20 0.19 0.10 0.08 0.09 0.08 0.06 0.06 0.06 0.06 0.06 0.06 0.04 0.02 0.03 0.04 0.04 0.04 0.05 0.06 0.07 0.06 0.05 0.05 0.03 0.02 0.02 0.02 0.02 0.03 0.02 0.02 0.02 0.01 0.01 0.01 0.02 0.02 0.03
0.06 0.07 0.12 0.15 0.17 0.20 0.15 0.11 0.10 0.08 0.06 0.06 0.06 0.05 0.05 0.05 0.05 0.04 0.05 0.05 0.06 0.06 0.07 0.08 0.07 0.06 0.05 0.04 0.03 0.02 0.02 0.02 0.02 0.02 0.02 0.02 0.02 0.02 0.01 0.01 0.01 0.01 0.02
0.08 0.09 0.12 0.16 0.14 0.14 0.14 0.13 0.11 0.07 0.06 0.06 0.07 0.06 0.05 0.07 0.08 0.09 0.09 0.08 0.07 0.07 0.08 0.09 0.06 0.05 0.05 0.04 0.03 0.03 0.03 0.02 0.02 0.02 0.02 0.01 0.01 0.02 0.02 0.02 0.02 0.02 0.02
0.08 0.10 0.11 0.15 0.15 0.14 0.15 0.17 0.13 0.09 0.08 0.08 0.09 0.08 0.09 0.10 0.12 0.14 0.13 0.11 0.09 0.09 0.09 0.08 0.06 0.05 0.05 0.05 0.03 0.02 0.01 0.01 0.00 0.01 0.01 0.00 0.01 0.01 0.02 0.03 0.03 0.03 0.03
0.08 0.09 0.10 0.11 0.11 0.15 0.19 0.19 0.17 0.12 0.10 0.09 0.08 0.08 0.10 0.12 0.14 0.16 0.14 0.13 0.12 0.10 0.07 0.06 0.08 0.08 0.06 0.05 0.05 0.04 0.02 0.01 0.00 0.00 0.00 0.01 0.01 0.01 0.01 0.01 0.03 0.04 0.04
0.07 0.08 0.09 0.09 0.09 0.12 0.15 0.15 0.16 0.14 0.11 0.08 0.07 0.06 0.06 0.07 0.11 0.11 0.11 0.12 0.12 0.10 0.06 0.05 0.06 0.08 0.09 0.09 0.07 0.05 0.03 0.02 0.01 0.00 0.00 0.00 0.00 0.01 0.00 0.01 0.02 0.03 0.05
0.07 0.08 0.09 0.08 0.08 0.10 0.11 0.14 0.14 0.12 0.10 0.07 0.06 0.06 0.06 0.06 0.06 0.07 0.07 0.08 0.08 0.08 0.06 0.06 0.07 0.08 0.09 0.08 0.08 0.07 0.05 0.03 0.02 0.01 0.01 0.01 0.01 0.01 0.00 0.00 0.01 0.02 0.04
0.12 0.10 0.08 0.06 0.08 0.10 0.10 0.10 0.11 0.11 0.11 0.09 0.06 0.06 0.06 0.06 0.08 0.07 0.07 0.07 0.07 0.07 0.07 0.08 0.09 0.10 0.09 0.08 0.08 0.07 0.06 0.04 0.03 0.03 0.02 0.01 0.01 0.01 0.00 0.00 0.00 0.01 0.02

GEFSSE_prec_meanprec_222.txt.gz
QPF
0.01 0.01 0.01 0.02 0.02 0.02 0.02 0.03 0.03 0.02 0.02 0.03 0.04 0.05 0.04 0.02 0.02 0.02 0.01 0.01 0.02 0.02 0.03 0.03 0.03 0.04 0.05 0.05 0.04 0.02 0.01 0.01 0.01 0.00 0.00 0.01 0.01 0.02 0.02 0.02 0.02 0.02 0.03
0.01 0.01 0.02 0.03 0.03 0.03 0.04 0.07 0.05 0.02 0.03 0.03 0.05 0.10 0.09 0.04 0.03 0.03 0.02 0.02 0.02 0.02 0.03 0.03 0.02 0.03 0.05 0.05 0.04 0.03 0.02 0.02 0.01 0.01 0.00 0.00 0.01 0.01 0.02 0.02 0.02 0.05 0.04
0.01 0.03 0.07 0.07 0.06 0.04 0.04 0.06 0.04 0.02 0.02 0.04 0.04 0.09 0.15 0.08 0.05 0.04 0.03 0.02 0.02 0.02 0.03 0.04 0.03 0.03 0.04 0.05 0.04 0.04 0.04 0.03 0.03 0.02 0.02 0.01 0.01 0.01 0.01 0.02 0.02 0.03 0.03
0.01 0.02 0.04 0.05 0.04 0.03 0.02 0.03 0.02 0.02 0.02 0.03 0.05 0.08 0.14 0.08 0.05 0.05 0.03 0.02 0.02 0.02 0.03 0.04 0.04 0.04 0.04 0.05 0.06 0.06 0.04 0.02 0.02 0.02 0.02 0.02 0.01 0.01 0.01 0.02 0.03 0.03 0.03
0.01 0.01 0.02 0.04 0.03 0.02 0.03 0.03 0.02 0.02 0.02 0.03 0.05 0.07 0.13 0.07 0.04 0.04 0.03 0.02 0.02 0.02 0.04 0.05 0.04 0.04 0.04 0.04 0.07 0.08 0.03 0.02 0.02 0.01 0.01 0.02 0.02 0.02 0.02 0.02 0.02 0.02 0.03
0.01 0.01 0.02 0.02 0.03 0.03 0.04 0.05 0.03 0.03 0.03 0.04 0.04 0.05 0.09 0.07 0.04 0.03 0.02 0.02 0.02 0.02 0.04 0.07 0.07 0.05 0.05 0.08 0.05 0.06 0.03 0.02 0.02 0.02 0.03 0.02 0.02 0.03 0.02 0.02 0.03 0.04 0.05
0.00 0.01 0.02 0.02 0.02 0.02 0.03 0.03 0.04 0.04 0.04 0.04 0.05 0.05 0.08 0.08 0.06 0.04 0.03 0.03 0.02 0.02 0.02 0.03 0.06 0.05 0.03 0.08 0.08 0.04 0.02 0.02 0.02 0.01 0.01 0.01 0.01 0.03 0.03 0.03 0.04 0.05 0.06
0.01 0.01 0.01 0.01 0.01 0.01 0.02 0.04 0.04 0.03 0.04 0.06 0.07 0.07 0.09 0.10 0.08 0.06 0.05 0.04 0.03 0.02 0.02 0.02 0.02 0.03 0.06 0.06 0.06 0.03 0.01 0.02 0.02 0.01 0.01 0.01 0.02 0.03 0.03 0.04 0.05 0.06 0.07
0.01 0.01 0.01 0.02 0.02 0.01 0.03 0.08 0.08 0.06 0.08 0.07 0.09 0.08 0.08 0.09 0.08 0.07 0.06 0.05 0.03 0.03 0.03 0.02 0.02 0.02 0.03 0.03 0.02 0.02 0.02 0.03 0.02 0.02 0.01 0.03 0.03 0.04 0.04 0.06 0.06 0.07 0.07
0.01 0.01 0.01 0.02 0.02 0.02 0.01 0.02 0.03 0.05 0.09 0.06 0.05 0.06 0.06 0.05 0.06 0.07 0.08 0.06 0.04 0.04 0.04 0.04 0.04 0.04 0.03 0.02 0.02 0.02 0.03 0.03 0.03 0.02 0.02 0.01 0.02 0.04 0.05 0.07 0.07 0.10 0.09
0.01 0.01 0.01 0.01 0.01 0.01 0.01 0.01 0.02 0.03 0.04 0.05 0.04 0.05 0.05 0.06 0.06 0.06 0.06 0.07 0.06 0.06 0.06 0.06 0.06 0.05 0.04 0.03 0.03 0.03 0.04 0.03 0.03 0.03 0.02 0.01 0.01 0.02 0.04 0.05 0.06 0.08 0.11
0.01 0.01 0.01 0.01 0.01 0.01 0.01 0.01 0.02 0.02 0.03 0.04 0.05 0.06 0.07 0.06 0.05 0.04 0.07 0.08 0.09 0.09 0.08 0.07 0.06 0.05 0.04 0.04 0.05 0.05 0.04 0.04 0.03 0.04 0.03 0.02 0.02 0.03 0.04 0.05 0.06 0.07 0.11
0.01 0.00 0.00 0.01 0.02 0.02 0.02 0.02 0.03 0.03 0.03 0.04 0.04 0.05 0.06 0.06 0.04 0.04 0.07 0.11 0.17 0.15 0.11 0.08 0.07 0.05 0.04 0.05 0.06 0.05 0.04 0.03 0.04 0.03 0.03 0.02 0.02 0.02 0.03 0.04 0.05 0.06 0.07
0.01 0.01 0.01 0.01 0.01 0.03 0.05 0.07 0.05 0.04 0.04 0.03 0.03 0.03 0.04 0.04 0.04 0.04 0.05 0.05 0.08 0.17 0.19 0.11 0.06 0.05 0.04 0.04 0.05 0.04 0.03 0.04 0.03 0.02 0.02 0.02 0.02 0.03 0.04 0.04 0.05 0.06 0.07
0.01 0.01 0.01 0.01 0.02 0.03 0.06 0.14 0.14 0.09 0.06 0.05 0.05 0.04 0.04 0.04 0.04 0.03 0.04 0.05 0.04 0.04 0.10 0.14 0.10 0.07 0.05 0.04 0.04 0.03 0.04 0.04 0.04 0.03 0.02 0.02 0.02 0.03 0.04 0.05 0.05 0.06 0.08
0.01 0.01 0.01 0.01 0.02 0.03 0.03 0.08 0.18 0.18 0.14 0.11 0.09 0.07 0.06 0.06 0.04 0.03 0.03 0.04 0.03 0.03 0.04 0.06 0.07 0.06 0.06 0.05 0.04 0.03 0.04 0.04 0.03 0.02 0.02 0.02 0.02 0.02 0.02 0.03 0.04 0.05 0.07
0.02 0.02 0.02 0.02 0.03 0.03 0.03 0.05 0.11 0.20 0.20 0.19 0.17 0.12 0.10 0.08 0.06 0.05 0.04 0.04 0.03 0.03 0.03 0.04 0.04 0.04 0.06 0.05 0.04 0.03 0.04 0.04 0.03 0.02 0.02 0.03 0.03 0.02 0.02 0.02 0.03 0.04 0.06
0.03 0.03 0.03 0.03 0.03 0.04 0.05 0.07 0.09 0.13 0.14 0.14 0.13 0.10 0.08 0.09 0.08 0.07 0.05 0.04 0.04 0.03 0.03 0.03 0.03 0.03 0.04 0.05 0.05 0.04 0.04 0.03 0.03 0.02 0.02 0.02 0.02 0.02 0.02 0.02 0.02 0.03 0.03
0.04 0.04 0.04 0.04 0.04 0.06 0.07 0.07 0.09 0.11 0.11 0.09 0.09 0.09 0.07 0.07 0.07 0.07 0.06 0.05 0.05 0.03 0.03 0.04 0.04 0.04 0.05 0.06 0.06 0.05 0.04 0.03 0.02 0.01 0.01 0.01 0.01 0.02 0.02 0.02 0.02 0.01 0.02
0.03 0.04 0.04 0.04 0.06 0.08 0.08 0.07 0.06 0.09 0.10 0.08 0.07 0.08 0.06 0.06 0.07 0.07 0.08 0.07 0.06 0.05 0.04 0.06 0.08 0.08 0.08 0.09 0.07 0.05 0.05 0.03 0.02 0.01 0.01 0.01 0.01 0.02 0.02 0.02 0.02 0.02 0.02
0.04 0.04 0.05 0.07 0.09 0.09 0.08 0.08 0.06 0.07 0.08 0.09 0.08 0.07 0.05 0.06 0.06 0.07 0.08 0.08 0.07 0.06 0.08 0.10 0.11 0.11 0.11 0.11 0.09 0.07 0.04 0.03 0.02 0.01 0.01 0.01 0.01 0.01 0.02 0.01 0.01 0.02 0.03
0.03 0.04 0.05 0.06 0.07 0.09 0.11 0.11 0.09 0.08 0.07 0.07 0.06 0.06 0.05 0.05 0.04 0.06 0.08 0.10 0.10 0.10 0.11 0.10 0.11 0.11 0.11 0.11 0.10 0.08 0.04 0.03 0.02 0.01 0.01 0.01 0.01 0.01 0.00 0.01 0.01 0.02 0.02
0.02 0.03 0.05 0.05 0.06 0.08 0.12 0.13 0.12 0.09 0.06 0.06 0.05 0.06 0.05 0.06 0.06 0.07 0.10 0.10 0.09 0.09 0.09 0.09 0.10 0.10 0.09 0.09 0.08 0.08 0.05 0.03 0.03 0.02 0.01 0.01 0.01 0.01 0.01 0.01 0.01 0.01 0.01
0.03 0.04 0.05 0.05 0.06 0.10 0.12 0.12 0.11 0.08 0.06 0.06 0.06 0.06 0.05 0.05 0.05 0.08 0.10 0.08 0.06 0.06 0.06 0.06 0.06 0.07 0.07 0.06 0.07 0.06 0.06 0.05 0.05 0.04 0.02 0.02 0.01 0.01 0.01 0.02 0.01 0.01 0.01
0.04 0.03 0.04 0.05 0.07 0.09 0.09 0.09 0.08 0.07 0.07 0.06 0.05 0.04 0.04 0.03 0.03 0.04 0.04 0.04 0.03 0.04 0.05 0.04 0.04 0.04 0.04 0.04 0.05 0.06 0.06 0.05 0.05 0.04 0.03 0.03 0.02 0.01 0.01 0.02 0.02 0.02 0.02
0.05 0.04 0.04 0.04 0.05 0.07 0.07 0.08 0.07 0.06 0.06 0.05 0.03 0.03 0.02 0.02 0.02 0.02 0.02 0.03 0.02 0.03 0.04 0.04 0.04 0.04 0.03 0.04 0.05 0.06 0.06 0.06 0.06 0.06 0.05 0.04 0.04 0.03 0.02 0.02 0.02 0.02 0.02

GEFSSE_prec_meanprec_228.txt.gz
QPF
0.03 0.02 0.01 0.01 0.01 0.01 0.01 0.03 0.03 0.02 0.02 0.01 0.01 0.01 0.02 0.03 0.02 0.02 0.04 0.04 0.03 0.03 0.02 0.03 0.05 0.04 0.02 0.02 0.01 0.01 0.02 0.02 0.01 0.01 0.03 0.02 0.01 0.01 0.01 0.01 0.02 0.03 0.06
0.03 0.02 0.01 0.01 0.01 0.02 0.03 0.02 0.02 0.02 0.02 0.02 0.02 0.01 0.01 0.02 0.02 0.03 0.04 0.06 0.05 0.03 0.02 0.02 0.05 0.08 0.03 0.02 0.01 0.01 0.02 0.01 0.01 0.01 0.01 0.01 0.01 0.01 0.01 0.01 0.03 0.08 0.09
0.01 0.02 0.02 0.02 0.02 0.02 0.02 0.02 0.02 0.01 0.01 0.02 0.03 0.02 0.02 0.03 0.03 0.03 0.05 0.10 0.09 0.05 0.03 0.02 0.03 0.07 0.07 0.02 0.02 0.01 0.01 0.01 0.01 0.01 0.01 0.01 0.01 0.02 0.02 0.02 0.02 0.03 0.04
0.01 0.02 0.02 0.01 0.01 0.01 0.01 0.01 0.01 0.01 0.01 0.03 0.05 0.04 0.03 0.04 0.04 0.05 0.06 0.08 0.09 0.07 0.04 0.03 0.03 0.07 0.10 0.05 0.02 0.01 0.01 0.01 0.01 0.00 0.01 0.02 0.01 0.03 0.04 0.02 0.02 0.02 0.02
0.00 0.02 0.02 0.02 0.01 0.01 0.01 0.01 0.01 0.01 0.01 0.02 0.04 0.05 0.06 0.09 0.07 0.06 0.07 0.07 0.07 0.05 0.04 0.03 0.03 0.05 0.08 0.07 0.03 0.02 0.01 0.01 0.01 0.00 0.02 0.03 0.03 0.04 0.03 0.03 0.02 0.02 0.02
0.01 0.02 0.02 0.02 0.02 0.02 0.02 0.02 0.01 0.01 0.01 0.02 0.03 0.05 0.08 0.11 0.11 0.09 0.09 0.07 0.06 0.04 0.03 0.04 0.03 0.04 0.04 0.11 0.05 0.03 0.02 0.01 0.01 0.01 0.02 0.06 0.09 0.08 0.04 0.03 0.03 0.03 0.04
0.01 0.01 0.01 0.02 0.02 0.02 0.01 0.02 0.02 0.01 0.02 0.03 0.03 0.04 0.07 0.08 0.07 0.08 0.10 0.08 0.07 0.06 0.04 0.03 0.03 0.03 0.03 0.07 0.06 0.02 0.02 0.01 0.01 0.02 0.04 0.08 0.14 0.09 0.04 0.02 0.02 0.04 0.05
0.01 0.01 0.01 0.01 0.01 0.02 0.01 0.02 0.02 0.01 0.01 0.02 0.03 0.03 0.05 0.05 0.04 0.05 0.06 0.07 0.08 0.08 0.05 0.03 0.03 0.03 0.04 0.03 0.02 0.01 0.01 0.01 0.01 0.02 0.04 0.06 0.10 0.04 0.04 0.03 0.03 0.03 0.04
0.01 0.02 0.02 0.02 0.01 0.01 0.01 0.01 0.02 0.01 0.01 0.03 0.05 0.05 0.05 0.06 0.06 0.05 0.04 0.05 0.06 0.07 0.06 0.05 0.05 0.05 0.04 0.03 0.02 0.01 0.01 0.01 0.01 0.03 0.07 0.11 0.06 0.02 0.02 0.03 0.03 0.03 0.03
0.02 0.02 0.02 0.02 0.02 0.02 0.02 0.01 0.01 0.02 0.04 0.08 0.08 0.09 0.08 0.08 0.08 0.07 0.06 0.06 0.05 0.05 0.06 0.06 0.06 0.06 0.05 0.04 0.03 0.02 0.02 0.01 0.01 0.02 0.08 0.17 0.07 0.02 0.02 0.02 0.03 0.03 0.03
0.02 0.03 0.03 0.01 0.01 0.01 0.01 0.01 0.01 0.02 0.04 0.06 0.06 0.06 0.08 0.10 0.10 0.10 0.10 0.08 0.06 0.04 0.05 0.05 0.04 0.05 0.05 0.04 0.03 0.02 0.02 0.01 0.01 0.02 0.06 0.10 0.06 0.03 0.02 0.02 0.03 0.03 0.04
0.02 0.03 0.01 0.00 0.01 0.01 0.01 0.02 0.02 0.04 0.05 0.06 0.08 0.08 0.08 0.09 0.10 0.09 0.11 0.10 0.07 0.04 0.05 0.05 0.05 0.04 0.05 0.04 0.04 0.04 0.02 0.01 0.01 0.03 0.06 0.10 0.05 0.03 0.02 0.02 0.03 0.03 0.04
0.04 0.04 0.01 0.01 0.01 0.02 0.02 0.03 0.05 0.06 0.08 0.09 0.13 0.15 0.14 0.12 0.11 0.10 0.11 0.11 0.11 0.07 0.07 0.11 0.12 0.09 0.07 0.06 0.05 0.05 0.04 0.03 0.03 0.03 0.04 0.04 0.03 0.03 0.02 0.02 0.02 0.03 0.04
0.06 0.05 0.02 0.02 0.02 0.04 0.04 0.04 0.05 0.07 0.08 0.11 0.14 0.18 0.16 0.14 0.12 0.09 0.09 0.09 0.09 0.07 0.07 0.08 0.13 0.12 0.09 0.07 0.05 0.05 0.04 0.04 0.03 0.05 0.05 0.02 0.02 0.02 0.02 0.01 0.02 0.03 0.03
0.06 0.07 0.04 0.03 0.04 0.06 0.06 0.06 0.06 0.07 0.09 0.13 0.15 0.15 0.14 0.12 0.10 0.09 0.08 0.08 0.07 0.07 0.05 0.05 0.07 0.09 0.08 0.07 0.06 0.05 0.05 0.05 0.02 0.03 0.06 0.03 0.01 0.01 0.01 0.01 0.02 0.03 0.04
0.06 0.07 0.07 0.05 0.05 0.07 0.08 0.08 0.08 0.08 0.10 0.11 0.11 0.12 0.12 0.12 0.12 0.12 0.12 0.11 0.09 0.07 0.06 0.06 0.06 0.06 0.06 0.06 0.05 0.05 0.05 0.03 0.02 0.02 0.04 0.04 0.03 0.02 0.02 0.01 0.02 0.02 0.04
0.07 0.07 0.08 0.10 0.08 0.06 0.09 0.08 0.07 0.07 0.07 0.07 0.07 0.08 0.09 0.10 0.13 0.13 0.15 0.15 0.14 0.12 0.09 0.06 0.06 0.06 0.05 0.04 0.04 0.05 0.05 0.04 0.03 0.04 0.05 0.04 0.03 0.03 0.03 0.02 0.01 0.02 0.04
0.08 0.07 0.06 0.06 0.07 0.07 0.07 0.07 0.07 0.07 0.07 0.06 0.06 0.07 0.07 0.08 0.08 0.10 0.11 0.11 0.12 0.14 0.11 0.08 0.07 0.06 0.05 0.04 0.04 0.05 0.05 0.06 0.04 0.05 0.06 0.05 0.04 0.04 0.04 0.02 0.01 0.01 0.02
0.09 0.06 0.04 0.04 0.06 0.06 0.07 0.07 0.08 0.09 0.08 0.08 0.08 0.07 0.07 0.07 0.07 0.07 0.07 0.08 0.09 0.10 0.09 0.08 0.08 0.07 0.06 0.06 0.05 0.05 0.04 0.04 0.04 0.04 0.06 0.05 0.05 0.04 0.02 0.01 0.01 0.01 0.01
0.06 0.04 0.03 0.04 0.06 0.09 0.10 0.10 0.10 0.11 0.11 0.15 0.15 0.11 0.10 0.09 0.09 0.09 0.08 0.09 0.07 0.07 0.08 0.09 0.09 0.07 0.05 0.06 0.04 0.04 0.03 0.03 0.05 0.08 0.07 0.05 0.04 0.03 0.02 0.01 0.02 0.01 0.01
0.04 0.04 0.05 0.05 0.07 0.10 0.10 0.10 0.11 0.11 0.11 0.12 0.15 0.17 0.16 0.14 0.12 0.10 0.11 0.10 0.09 0.07 0.07 0.08 0.09 0.08 0.06 0.06 0.08 0.07 0.05 0.04 0.04 0.05 0.06 0.05 0.03 0.02 0.01 0.01 0.02 0.02 0.01
0.05 0.06 0.06 0.06 0.06 0.07 0.07 0.08 0.09 0.09 0.09 0.07 0.07 0.09 0.12 0.13 0.12 0.10 0.09 0.08 0.08 0.08 0.08 0.07 0.07 0.07 0.07 0.10 0.10 0.10 0.09 0.07 0.06 0.03 0.03 0.02 0.03 0.03 0.02 0.01 0.01 0.02 0.02
0.06 0.06 0.06 0.07 0.07 0.07 0.08 0.08 0.08 0.08 0.08 0.07 0.06 0.07 0.08 0.08 0.08 0.07 0.06 0.06 0.06 0.06 0.08 0.09 0.10 0.10 0.10 0.12 0.13 0.12 0.10 0.08 0.07 0.04 0.03 0.03 0.03 0.03 0.03 0.03 0.02 0.01 0.01
0.05 0.07 0.08 0.09 0.09 0.09 0.10 0.10 0.08 0.08 0.08 0.08 0.07 0.07 0.06 0.06 0.06 0.06 0.06 0.04 0.05 0.05 0.07 0.08 0.11 0.13 0.13 0.13 0.12 0.11 0.09 0.09 0.09 0.07 0.05 0.04 0.05 0.06 0.05 0.04 0.04 0.03 0.02
0.04 0.06 0.08 0.10 0.09 0.08 0.08 0.07 0.08 0.08 0.08 0.09 0.09 0.08 0.07 0.06 0.06 0.05 0.05 0.04 0.04 0.04 0.04 0.05 0.06 0.09 0.11 0.11 0.11 0.10 0.10 0.09 0.09 0.09 0.07 0.06 0.06 0.06 0.05 0.04 0.04 0.03 0.03
0.07 0.07 0.08 0.08 0.09 0.08 0.07 0.06 0.06 0.07 0.08 0.09 0.09 0.08 0.07 0.06 0.06 0.04 0.04 0.05 0.05 0.04 0.04 0.05 0.05 0.06 0.06 0.07 0.09 0.10 0.09 0.08 0.07 0.08 0.07 0.07 0.07 0.06 0.05 0.04 0.03 0.03 0.03

GEFSSE_prec_meanprec_234.txt.gz
QPF
0.04 0.03 0.02 0.01 0.00 0.00 0.00 0.00 0.01 0.01 0.00 0.01 0.01 0.01 0.01 0.01 0.01 0.01 0.01 0.03 0.04 0.03 0.04 0.03 0.02 0.01 0.02 0.03 0.03 0.03 0.02 0.02 0.03 0.04 0.04 0.04 0.06 0.05 0.06 0.05 0.05 0.03 0.04
0.05 0.04 0.02 0.00 0.00 0.01 0.01 0.00 0.00 0.00 0.01 0.01 0.01 0.01 0.01 0.01 0.01 0.01 0.01 0.02 0.03 0.03 0.03 0.02 0.02 0.03 0.03 0.03 0.02 0.03 0.02 0.01 0.01 0.02 0.03 0.03 0.05 0.05 0.04 0.04 0.04 0.03 0.04
0.04 0.02 0.00 0.00 0.00 0.00 0.00 0.00 0.00 0.00 0.00 0.01 0.01 0.02 0.02 0.02 0.02 0.01 0.01 0.01 0.03 0.03 0.03 0.02 0.02 0.03 0.04 0.02 0.01 0.02 0.02 0.02 0.01 0.01 0.02 0.03 0.03 0.05 0.06 0.05 0.05 0.04 0.05
0.02 0.01 0.00 0.00 0.00 0.00 0.00 0.00 0.01 0.00 0.00 0.01 0.01 0.03 0.03 0.04 0.03 0.02 0.02 0.02 0.04 0.03 0.03 0.02 0.02 0.02 0.03 0.02 0.01 0.02 0.03 0.02 0.02 0.01 0.01 0.03 0.03 0.06 0.08 0.06 0.06 0.04 0.05
0.01 0.01 0.01 0.00 0.00 0.00 0.00 0.01 0.00 0.00 0.00 0.01 0.01 0.03 0.03 0.05 0.07 0.05 0.02 0.02 0.05 0.04 0.02 0.03 0.03 0.03 0.04 0.03 0.03 0.03 0.04 0.03 0.02 0.01 0.02 0.04 0.05 0.09 0.08 0.07 0.05 0.05 0.05
0.02 0.01 0.01 0.00 0.00 0.00 0.00 0.00 0.00 0.00 0.00 0.00 0.00 0.01 0.02 0.03 0.07 0.10 0.05 0.03 0.08 0.07 0.03 0.03 0.04 0.04 0.05 0.04 0.04 0.03 0.02 0.02 0.01 0.01 0.02 0.05 0.07 0.10 0.08 0.07 0.06 0.05 0.05
0.08 0.03 0.02 0.01 0.00 0.00 0.00 0.00 0.00 0.00 0.01 0.00 0.00 0.01 0.01 0.01 0.03 0.09 0.13 0.08 0.10 0.11 0.04 0.04 0.04 0.04 0.05 0.06 0.05 0.03 0.02 0.02 0.01 0.01 0.03 0.05 0.07 0.08 0.08 0.08 0.07 0.05 0.05
0.06 0.04 0.02 0.01 0.01 0.00 0.01 0.01 0.01 0.00 0.00 0.01 0.01 0.01 0.01 0.02 0.02 0.04 0.10 0.13 0.11 0.13 0.06 0.05 0.06 0.05 0.06 0.06 0.04 0.03 0.02 0.03 0.01 0.01 0.04 0.04 0.05 0.09 0.08 0.06 0.06 0.05 0.05
0.03 0.04 0.02 0.01 0.01 0.01 0.01 0.02 0.01 0.01 0.00 0.01 0.01 0.01 0.02 0.04 0.05 0.05 0.06 0.07 0.08 0.10 0.08 0.05 0.06 0.06 0.05 0.04 0.03 0.03 0.03 0.03 0.01 0.02 0.03 0.04 0.06 0.08 0.08 0.06 0.05 0.05 0.04
0.02 0.03 0.05 0.03 0.01 0.01 0.01 0.01 0.01 0.01 0.01 0.01 0.01 0.02 0.02 0.05 0.09 0.14 0.11 0.08 0.06 0.06 0.07 0.05 0.05 0.06 0.03 0.02 0.03 0.03 0.03 0.02 0.01 0.03 0.03 0.05 0.08 0.08 0.08 0.07 0.06 0.05 0.03
0.06 0.04 0.04 0.04 0.03 0.03 0.02 0.02 0.02 0.02 0.02 0.02 0.02 0.04 0.04 0.06 0.09 0.13 0.16 0.15 0.10 0.06 0.05 0.05 0.05 0.05 0.03 0.02 0.03 0.03 0.03 0.01 0.01 0.02 0.02 0.08 0.10 0.08 0.07 0.06 0.05 0.05 0.04
0.09 0.07 0.06 0.05 0.05 0.04 0.03 0.03 0.05 0.03 0.02 0.02 0.04 0.05 0.04 0.05 0.06 0.07 0.09 0.09 0.09 0.07 0.07 0.06 0.04 0.05 0.03 0.02 0.02 0.03 0.02 0.02 0.02 0.02 0.02 0.04 0.08 0.08 0.07 0.06 0.05 0.04 0.03
0.12 0.11 0.09 0.06 0.06 0.06 0.05 0.05 0.05 0.05 0.05 0.05 0.04 0.04 0.05 0.06 0.06 0.07 0.08 0.08 0.08 0.08 0.07 0.06 0.04 0.04 0.02 0.02 0.02 0.02 0.03 0.03 0.02 0.02 0.02 0.03 0.05 0.06 0.06 0.06 0.05 0.05 0.04
0.13 0.09 0.10 0.09 0.09 0.09 0.08 0.05 0.05 0.06 0.06 0.06 0.05 0.06 0.08 0.11 0.11 0.11 0.10 0.09 0.08 0.06 0.06 0.06 0.04 0.03 0.03 0.02 0.02 0.01 0.01 0.02 0.02 0.02 0.02 0.03 0.03 0.04 0.05 0.05 0.04 0.05 0.06
0.11 0.10 0.10 0.14 0.13 0.13 0.10 0.08 0.07 0.07 0.05 0.05 0.05 0.06 0.09 0.13 0.16 0.15 0.12 0.11 0.12 0.10 0.08 0.07 0.05 0.03 0.02 0.02 0.01 0.02 0.02 0.02 0.02 0.02 0.02 0.03 0.03 0.03 0.04 0.04 0.05 0.06 0.05
0.08 0.09 0.14 0.20 0.19 0.16 0.15 0.13 0.10 0.10 0.09 0.07 0.06 0.06 0.07 0.08 0.08 0.08 0.08 0.10 0.12 0.13 0.13 0.10 0.07 0.05 0.04 0.03 0.03 0.03 0.03 0.03 0.03 0.03 0.03 0.03 0.03 0.03 0.03 0.05 0.06 0.06 0.06
0.07 0.10 0.18 0.22 0.34 0.23 0.19 0.26 0.16 0.09 0.10 0.10 0.08 0.07 0.06 0.06 0.05 0.05 0.05 0.07 0.09 0.11 0.13 0.14 0.12 0.08 0.06 0.05 0.05 0.05 0.04 0.03 0.03 0.03 0.03 0.03 0.03 0.04 0.05 0.05 0.05 0.06 0.06
0.08 0.10 0.15 0.17 0.23 0.16 0.11 0.15 0.15 0.09 0.10 0.11 0.09 0.07 0.07 0.06 0.04 0.04 0.03 0.03 0.04 0.08 0.14 0.15 0.11 0.11 0.11 0.10 0.08 0.06 0.05 0.04 0.04 0.03 0.03 0.03 0.02 0.02 0.04 0.05 0.05 0.05 0.04
0.08 0.10 0.16 0.14 0.08 0.05 0.04 0.07 0.10 0.09 0.09 0.08 0.08 0.09 0.08 0.06 0.04 0.04 0.04 0.03 0.04 0.06 0.10 0.12 0.11 0.10 0.12 0.13 0.11 0.09 0.07 0.05 0.05 0.04 0.04 0.04 0.03 0.03 0.03 0.04 0.05 0.04 0.04
0.11 0.11 0.12 0.09 0.05 0.03 0.03 0.05 0.09 0.09 0.08 0.08 0.10 0.09 0.08 0.06 0.06 0.06 0.07 0.07 0.07 0.04 0.04 0.06 0.09 0.08 0.08 0.09 0.09 0.08 0.07 0.06 0.05 0.04 0.04 0.05 0.05 0.04 0.04 0.04 0.04 0.04 0.04
0.09 0.12 0.09 0.07 0.03 0.03 0.03 0.03 0.06 0.07 0.06 0.06 0.08 0.08 0.06 0.06 0.09 0.14 0.14 0.11 0.07 0.04 0.04 0.04 0.07 0.07 0.07 0.08 0.08 0.08 0.07 0.06 0.06 0.04 0.04 0.04 0.04 0.04 0.04 0.05 0.04 0.03 0.03
0.08 0.09 0.08 0.05 0.04 0.03 0.03 0.04 0.06 0.07 0.07 0.07 0.06 0.06 0.05 0.07 0.14 0.23 0.20 0.10 0.05 0.04 0.04 0.04 0.04 0.05 0.05 0.06 0.05 0.05 0.04 0.04 0.04 0.04 0.04 0.04 0.03 0.04 0.04 0.04 0.05 0.04 0.03
0.07 0.07 0.07 0.05 0.05 0.05 0.06 0.08 0.07 0.07 0.08 0.06 0.05 0.06 0.06 0.08 0.11 0.13 0.09 0.04 0.03 0.05 0.05 0.05 0.04 0.05 0.05 0.06 0.08 0.06 0.04 0.02 0.02 0.03 0.03 0.04 0.04 0.04 0.03 0.03 0.04 0.04 0.04
0.06 0.06 0.07 0.07 0.09 0.08 0.09 0.09 0.06 0.05 0.06 0.05 0.05 0.05 0.06 0.08 0.08 0.07 0.05 0.03 0.04 0.05 0.06 0.07 0.07 0.06 0.05 0.05 0.06 0.05 0.04 0.02 0.02 0.02 0.03 0.04 0.04 0.03 0.03 0.03 0.03 0.03 0.03
0.11 0.08 0.09 0.12 0.11 0.09 0.10 0.09 0.07 0.07 0.06 0.05 0.05 0.05 0.05 0.06 0.07 0.07 0.07 0.07 0.07 0.07 0.06 0.06 0.07 0.07 0.06 0.05 0.05 0.04 0.03 0.03 0.03 0.02 0.02 0.03 0.04 0.04 0.04 0.04 0.04 0.04 0.04
0.17 0.14 0.11 0.16 0.12 0.11 0.10 0.07 0.08 0.06 0.05 0.04 0.03 0.04 0.04 0.04 0.05 0.05 0.06 0.07 0.08 0.08 0.06 0.05 0.05 0.04 0.04 0.05 0.05 0.06 0.06 0.05 0.04 0.04 0.03 0.02 0.03 0.03 0.03 0.03 0.03 0.03 0.05

GEFSSE_prec_meanprec_240.txt.gz
QPF
0.02 0.04 0.02 0.02 0.01 0.01 0.01 0.00 0.00 0.00 0.00 0.00 0.01 0.01 0.01 0.01 0.02 0.02 0.02 0.01 0.02 0.02 0.03 0.04 0.03 0.02 0.02 0.01 0.02 0.03 0.03 0.04 0.04 0.04 0.03 0.03 0.03 0.03 0.03 0.04 0.05 0.03 0.04
0.03 0.03 0.01 0.01 0.02 0.02 0.01 0.01 0.00 0.00 0.00 0.00 0.01 0.01 0.02 0.02 0.02 0.02 0.02 0.03 0.02 0.02 0.03 0.04 0.04 0.02 0.01 0.01 0.03 0.03 0.03 0.03 0.05 0.06 0.04 0.03 0.04 0.04 0.03 0.03 0.05 0.03 0.04
0.01 0.00 0.01 0.01 0.01 0.02 0.01 0.01 0.00 0.01 0.00 0.00 0.00 0.01 0.01 0.02 0.02 0.02 0.03 0.03 0.03 0.02 0.02 0.04 0.04 0.03 0.01 0.01 0.02 0.03 0.03 0.03 0.03 0.04 0.04 0.02 0.02 0.04 0.04 0.04 0.04 0.04 0.05
0.00 0.00 0.00 0.00 0.01 0.01 0.01 0.01 0.00 0.00 0.01 0.01 0.00 0.01 0.01 0.02 0.03 0.03 0.03 0.03 0.03 0.03 0.02 0.03 0.04 0.04 0.03 0.02 0.02 0.03 0.04 0.05 0.04 0.02 0.02 0.01 0.01 0.04 0.05 0.04 0.05 0.05 0.05
0.00 0.00 0.00 0.00 0.00 0.00 0.00 0.00 0.00 0.01 0.01 0.01 0.01 0.00 0.01 0.02 0.03 0.05 0.05 0.05 0.04 0.03 0.03 0.04 0.04 0.05 0.04 0.03 0.03 0.04 0.04 0.06 0.06 0.03 0.01 0.01 0.01 0.03 0.05 0.05 0.04 0.05 0.06
0.00 0.00 0.00 0.00 0.00 0.00 0.00 0.00 0.00 0.00 0.01 0.01 0.01 0.01 0.02 0.02 0.02 0.04 0.09 0.10 0.08 0.05 0.03 0.03 0.05 0.05 0.04 0.03 0.04 0.06 0.05 0.05 0.06 0.03 0.02 0.01 0.01 0.03 0.05 0.05 0.05 0.05 0.05
0.02 0.00 0.00 0.00 0.00 0.00 0.00 0.00 0.00 0.00 0.01 0.01 0.02 0.03 0.03 0.04 0.04 0.04 0.06 0.11 0.12 0.10 0.07 0.05 0.04 0.05 0.06 0.05 0.04 0.05 0.05 0.06 0.06 0.03 0.02 0.02 0.01 0.03 0.07 0.06 0.05 0.05 0.06
0.07 0.03 0.01 0.01 0.01 0.01 0.01 0.00 0.01 0.01 0.01 0.01 0.01 0.02 0.03 0.03 0.04 0.05 0.05 0.07 0.11 0.12 0.10 0.09 0.07 0.06 0.06 0.05 0.04 0.03 0.04 0.05 0.04 0.02 0.03 0.02 0.01 0.03 0.06 0.06 0.05 0.05 0.06
0.08 0.06 0.04 0.02 0.02 0.02 0.02 0.02 0.02 0.01 0.01 0.01 0.01 0.01 0.02 0.03 0.04 0.05 0.06 0.07 0.08 0.12 0.12 0.09 0.07 0.07 0.06 0.04 0.03 0.03 0.03 0.04 0.02 0.02 0.02 0.02 0.02 0.03 0.05 0.05 0.05 0.05 0.05
0.10 0.09 0.09 0.05 0.03 0.02 0.03 0.03 0.02 0.02 0.02 0.01 0.01 0.01 0.01 0.02 0.03 0.04 0.05 0.07 0.09 0.11 0.13 0.10 0.07 0.08 0.07 0.05 0.04 0.03 0.04 0.04 0.02 0.01 0.01 0.02 0.02 0.04 0.06 0.06 0.05 0.05 0.05
0.08 0.11 0.11 0.09 0.05 0.04 0.05 0.03 0.02 0.02 0.02 0.02 0.02 0.01 0.01 0.01 0.01 0.02 0.06 0.11 0.13 0.14 0.13 0.13 0.09 0.08 0.08 0.06 0.04 0.04 0.03 0.02 0.01 0.01 0.01 0.01 0.03 0.04 0.06 0.06 0.06 0.05 0.05
0.05 0.09 0.07 0.04 0.05 0.06 0.05 0.04 0.03 0.02 0.02 0.01 0.02 0.02 0.02 0.02 0.02 0.02 0.04 0.11 0.16 0.17 0.15 0.15 0.15 0.12 0.10 0.07 0.05 0.06 0.03 0.01 0.01 0.01 0.01 0.02 0.03 0.03 0.05 0.05 0.05 0.05 0.05
0.06 0.05 0.04 0.03 0.03 0.04 0.04 0.04 0.04 0.03 0.02 0.02 0.04 0.08 0.07 0.06 0.05 0.05 0.05 0.06 0.09 0.14 0.14 0.14 0.16 0.14 0.10 0.06 0.04 0.04 0.03 0.02 0.01 0.01 0.01 0.02 0.03 0.03 0.04 0.05 0.04 0.05 0.05
0.06 0.05 0.04 0.03 0.03 0.03 0.04 0.04 0.03 0.03 0.04 0.05 0.06 0.07 0.07 0.07 0.07 0.07 0.06 0.06 0.05 0.06 0.07 0.08 0.10 0.13 0.11 0.06 0.04 0.03 0.02 0.02 0.01 0.01 0.01 0.03 0.03 0.03 0.04 0.05 0.05 0.05 0.05
0.06 0.05 0.04 0.03 0.02 0.02 0.03 0.03 0.03 0.04 0.05 0.05 0.06 0.07 0.08 0.07 0.08 0.07 0.05 0.06 0.06 0.06 0.07 0.06 0.06 0.08 0.09 0.07 0.05 0.03 0.02 0.02 0.02 0.02 0.02 0.03 0.03 0.04 0.04 0.04 0.04 0.04 0.05
0.07 0.06 0.06 0.04 0.03 0.04 0.05 0.05 0.04 0.05 0.05 0.05 0.05 0.06 0.06 0.06 0.07 0.06 0.06 0.06 0.06 0.06 0.08 0.09 0.09 0.10 0.09 0.07 0.06 0.05 0.05 0.04 0.04 0.03 0.03 0.03 0.04 0.04 0.04 0.04 0.04 0.04 0.05
0.06 0.07 0.07 0.06 0.07 0.08 0.10 0.10 0.08 0.07 0.07 0.07 0.06 0.06 0.07 0.06 0.06 0.08 0.08 0.08 0.07 0.06 0.07 0.08 0.09 0.08 0.08 0.06 0.05 0.06 0.06 0.04 0.03 0.03 0.02 0.02 0.02 0.03 0.03 0.03 0.04 0.04 0.04
0.08 0.09 0.09 0.09 0.11 0.13 0.13 0.15 0.12 0.11 0.10 0.09 0.08 0.06 0.06 0.06 0.07 0.08 0.10 0.11 0.10 0.09 0.08 0.06 0.05 0.05 0.05 0.06 0.06 0.05 0.05 0.05 0.04 0.03 0.02 0.02 0.02 0.02 0.02 0.03 0.03 0.03 0.03
0.07 0.07 0.08 0.07 0.10 0.13 0.10 0.10 0.11 0.12 0.11 0.09 0.07 0.06 0.06 0.07 0.08 0.09 0.12 0.15 0.15 0.15 0.12 0.07 0.05 0.05 0.05 0.06 0.07 0.09 0.09 0.08 0.06 0.04 0.03 0.02 0.02 0.02 0.01 0.02 0.03 0.02 0.02
0.07 0.05 0.05 0.06 0.09 0.09 0.06 0.06 0.07 0.08 0.08 0.07 0.07 0.07 0.08 0.09 0.09 0.13 0.14 0.14 0.15 0.14 0.09 0.05 0.04 0.03 0.04 0.06 0.06 0.07 0.07 0.07 0.06 0.05 0.03 0.03 0.02 0.01 0.01 0.02 0.02 0.01 0.02
0.06 0.06 0.05 0.06 0.09 0.08 0.08 0.08 0.08 0.07 0.07 0.08 0.08 0.08 0.09 0.09 0.09 0.12 0.13 0.13 0.13 0.09 0.04 0.03 0.02 0.03 0.03 0.04 0.06 0.05 0.05 0.06 0.05 0.05 0.06 0.06 0.04 0.03 0.02 0.01 0.02 0.01 0.01
0.06 0.06 0.06 0.07 0.09 0.09 0.10 0.13 0.14 0.13 0.09 0.08 0.07 0.08 0.10 0.08 0.09 0.09 0.09 0.08 0.07 0.05 0.03 0.02 0.03 0.03 0.04 0.04 0.05 0.06 0.05 0.06 0.05 0.04 0.05 0.06 0.05 0.04 0.03 0.03 0.02 0.02 0.02
0.07 0.07 0.09 0.12 0.12 0.13 0.15 0.15 0.11 0.09 0.08 0.07 0.08 0.08 0.08 0.07 0.08 0.09 0.08 0.06 0.05 0.05 0.04 0.04 0.05 0.05 0.04 0.04 0.05 0.07 0.06 0.05 0.05 0.04 0.04 0.04 0.04 0.04 0.03 0.03 0.03 0.03 0.03
0.10 0.11 0.13 0.15 0.17 0.18 0.16 0.13 0.10 0.08 0.08 0.08 0.09 0.09 0.08 0.07 0.06 0.06 0.05 0.05 0.06 0.06 0.06 0.07 0.07 0.05 0.05 0.04 0.04 0.04 0.06 0.05 0.06 0.06 0.05 0.04 0.03 0.03 0.03 0.03 0.03 0.02 0.03
0.14 0.18 0.18 0.19 0.24 0.20 0.15 0.11 0.10 0.09 0.12 0.12 0.10 0.09 0.07 0.06 0.05 0.04 0.04 0.03 0.04 0.06 0.06 0.06 0.07 0.06 0.05 0.05 0.04 0.04 0.04 0.05 0.04 0.04 0.04 0.04 0.04 0.03 0.03 0.03 0.03 0.03 0.02
0.13 0.20 0.20 0.18 0.19 0.16 0.13 0.10 0.10 0.10 0.12 0.11 0.09 0.09 0.08 0.05 0.04 0.03 0.03 0.03 0.03 0.04 0.05 0.06 0.08 0.07 0.05 0.05 0.05 0.05 0.05 0.05 0.04 0.04 0.03 0.03 0.04 0.05 0.04 0.03 0.03 0.04 0.03

GEFSSE_prec_meanprec_246.txt.gz
QPF
0.06 0.02 0.01 0.02 0.02 0.02 0.02 0.01 0.01 0.01 0.01 0.01 0.01 0.01 0.01 0.01 0.01 0.02 0.02 0.01 0.00 0.00 0.01 0.02 0.02 0.02 0.02 0.02 0.03 0.03 0.02 0.01 0.00 0.01 0.02 0.03 0.04 0.06 0.05 0.05 0.04 0.03 0.04
0.02 0.01 0.01 0.01 0.02 0.02 0.01 0.02 0.01 0.02 0.01 0.01 0.01 0.01 0.01 0.01 0.01 0.02 0.03 0.03 0.02 0.01 0.01 0.02 0.02 0.02 0.02 0.02 0.02 0.02 0.01 0.01 0.01 0.01 0.02 0.03 0.05 0.07 0.04 0.03 0.03 0.04 0.05
0.00 0.00 0.01 0.01 0.01 0.02 0.01 0.02 0.01 0.01 0.01 0.01 0.01 0.01 0.01 0.01 0.01 0.02 0.03 0.04 0.05 0.04 0.02 0.02 0.03 0.02 0.02 0.03 0.02 0.02 0.01 0.01 0.01 0.01 0.02 0.03 0.04 0.05 0.04 0.03 0.03 0.04 0.04
0.00 0.00 0.00 0.01 0.01 0.02 0.01 0.01 0.01 0.01 0.02 0.02 0.01 0.01 0.01 0.01 0.01 0.02 0.04 0.05 0.06 0.07 0.06 0.03 0.04 0.03 0.03 0.03 0.03 0.03 0.03 0.02 0.02 0.02 0.02 0.02 0.02 0.03 0.04 0.04 0.04 0.04 0.04
0.01 0.00 0.00 0.00 0.01 0.01 0.01 0.01 0.01 0.01 0.01 0.02 0.01 0.02 0.02 0.03 0.03 0.03 0.03 0.04 0.06 0.07 0.08 0.07 0.06 0.06 0.04 0.04 0.04 0.04 0.05 0.05 0.05 0.03 0.01 0.02 0.03 0.03 0.03 0.03 0.03 0.04 0.04
0.01 0.01 0.01 0.01 0.01 0.01 0.01 0.01 0.01 0.01 0.02 0.02 0.02 0.03 0.03 0.04 0.04 0.03 0.03 0.04 0.05 0.06 0.07 0.08 0.11 0.13 0.07 0.05 0.05 0.05 0.06 0.07 0.05 0.03 0.03 0.03 0.03 0.04 0.03 0.03 0.03 0.04 0.03
0.02 0.02 0.01 0.01 0.01 0.01 0.01 0.01 0.01 0.01 0.01 0.02 0.02 0.02 0.03 0.04 0.05 0.05 0.06 0.06 0.06 0.07 0.07 0.09 0.12 0.16 0.10 0.07 0.05 0.04 0.05 0.06 0.04 0.03 0.03 0.03 0.03 0.02 0.03 0.03 0.03 0.04 0.03
0.02 0.03 0.02 0.01 0.02 0.01 0.01 0.02 0.02 0.02 0.02 0.02 0.01 0.01 0.02 0.02 0.04 0.05 0.07 0.06 0.07 0.07 0.09 0.10 0.11 0.10 0.12 0.09 0.06 0.04 0.05 0.06 0.05 0.03 0.03 0.03 0.02 0.01 0.03 0.04 0.03 0.03 0.03
0.02 0.05 0.04 0.03 0.03 0.02 0.02 0.02 0.03 0.03 0.02 0.02 0.02 0.01 0.01 0.02 0.03 0.04 0.04 0.05 0.06 0.07 0.09 0.11 0.12 0.09 0.10 0.09 0.05 0.04 0.05 0.07 0.06 0.04 0.02 0.02 0.01 0.01 0.03 0.04 0.03 0.03 0.03
0.06 0.08 0.07 0.07 0.06 0.05 0.05 0.04 0.04 0.04 0.04 0.03 0.03 0.03 0.03 0.03 0.02 0.03 0.04 0.05 0.06 0.07 0.08 0.09 0.11 0.12 0.12 0.09 0.06 0.05 0.05 0.06 0.04 0.03 0.01 0.01 0.01 0.01 0.03 0.03 0.03 0.03 0.03
0.13 0.14 0.14 0.14 0.13 0.09 0.08 0.06 0.06 0.06 0.05 0.05 0.05 0.04 0.05 0.05 0.04 0.03 0.04 0.06 0.06 0.06 0.08 0.10 0.11 0.12 0.12 0.11 0.08 0.06 0.06 0.05 0.04 0.03 0.02 0.01 0.02 0.02 0.02 0.03 0.02 0.03 0.03
0.13 0.19 0.13 0.10 0.16 0.14 0.08 0.07 0.07 0.06 0.04 0.04 0.05 0.05 0.05 0.05 0.05 0.05 0.06 0.07 0.07 0.09 0.11 0.11 0.12 0.12 0.11 0.11 0.10 0.08 0.07 0.06 0.06 0.04 0.03 0.02 0.02 0.02 0.02 0.02 0.03 0.03 0.03
0.10 0.11 0.08 0.10 0.13 0.13 0.10 0.07 0.07 0.06 0.04 0.04 0.04 0.04 0.04 0.04 0.05 0.06 0.06 0.06 0.09 0.12 0.14 0.14 0.13 0.14 0.13 0.10 0.08 0.07 0.06 0.05 0.05 0.03 0.02 0.02 0.03 0.02 0.02 0.03 0.03 0.03 0.03
0.09 0.08 0.11 0.13 0.11 0.07 0.10 0.09 0.08 0.06 0.04 0.04 0.05 0.05 0.04 0.03 0.04 0.03 0.04 0.06 0.07 0.08 0.12 0.15 0.14 0.14 0.16 0.14 0.10 0.06 0.05 0.04 0.03 0.03 0.03 0.03 0.04 0.04 0.04 0.03 0.03 0.03 0.04
0.08 0.08 0.11 0.11 0.09 0.08 0.10 0.11 0.09 0.06 0.05 0.05 0.06 0.07 0.07 0.05 0.04 0.03 0.03 0.04 0.05 0.06 0.06 0.07 0.08 0.10 0.12 0.15 0.13 0.08 0.05 0.04 0.03 0.04 0.03 0.03 0.04 0.04 0.05 0.05 0.05 0.04 0.03
0.07 0.07 0.06 0.06 0.06 0.08 0.09 0.09 0.09 0.07 0.07 0.06 0.07 0.09 0.08 0.06 0.04 0.05 0.05 0.04 0.04 0.04 0.05 0.06 0.06 0.08 0.08 0.09 0.08 0.07 0.06 0.05 0.04 0.03 0.04 0.04 0.03 0.03 0.04 0.05 0.05 0.04 0.04
0.05 0.04 0.04 0.05 0.05 0.07 0.08 0.06 0.06 0.06 0.05 0.06 0.07 0.11 0.10 0.09 0.07 0.06 0.05 0.04 0.04 0.04 0.04 0.06 0.07 0.07 0.06 0.06 0.06 0.06 0.06 0.06 0.05 0.04 0.05 0.05 0.03 0.03 0.03 0.04 0.05 0.04 0.04
0.03 0.03 0.04 0.04 0.04 0.05 0.07 0.06 0.04 0.04 0.06 0.07 0.08 0.08 0.08 0.08 0.09 0.09 0.07 0.05 0.04 0.03 0.03 0.04 0.06 0.07 0.06 0.05 0.05 0.05 0.05 0.05 0.05 0.03 0.03 0.03 0.03 0.02 0.03 0.04 0.05 0.04 0.03
0.04 0.04 0.04 0.03 0.03 0.03 0.05 0.04 0.04 0.04 0.06 0.06 0.06 0.06 0.06 0.06 0.08 0.08 0.09 0.09 0.07 0.06 0.05 0.03 0.04 0.06 0.07 0.06 0.05 0.05 0.04 0.04 0.03 0.03 0.02 0.02 0.02 0.02 0.03 0.04 0.04 0.04 0.04
0.04 0.04 0.03 0.02 0.03 0.04 0.05 0.03 0.03 0.04 0.05 0.05 0.05 0.05 0.07 0.07 0.08 0.08 0.08 0.09 0.09 0.07 0.06 0.05 0.05 0.05 0.07 0.08 0.06 0.06 0.04 0.04 0.03 0.03 0.03 0.02 0.02 0.02 0.03 0.03 0.04 0.03 0.03
0.03 0.03 0.03 0.03 0.02 0.03 0.04 0.03 0.03 0.05 0.06 0.07 0.06 0.06 0.06 0.06 0.06 0.07 0.08 0.09 0.10 0.11 0.07 0.05 0.05 0.06 0.06 0.07 0.08 0.07 0.06 0.05 0.04 0.03 0.03 0.03 0.02 0.02 0.02 0.03 0.03 0.03 0.02
0.04 0.04 0.04 0.03 0.03 0.02 0.02 0.03 0.03 0.04 0.06 0.07 0.06 0.06 0.06 0.06 0.06 0.07 0.08 0.09 0.11 0.13 0.10 0.09 0.08 0.07 0.06 0.07 0.08 0.09 0.09 0.08 0.06 0.03 0.03 0.03 0.04 0.05 0.03 0.02 0.02 0.03 0.02
0.04 0.05 0.06 0.05 0.03 0.03 0.02 0.03 0.04 0.04 0.05 0.06 0.05 0.06 0.05 0.05 0.05 0.04 0.05 0.07 0.09 0.11 0.11 0.10 0.09 0.09 0.08 0.08 0.09 0.12 0.14 0.11 0.08 0.05 0.03 0.03 0.05 0.07 0.05 0.04 0.03 0.03 0.03
0.03 0.04 0.05 0.05 0.04 0.03 0.03 0.03 0.04 0.05 0.06 0.05 0.06 0.06 0.05 0.04 0.04 0.05 0.05 0.06 0.05 0.06 0.08 0.07 0.06 0.07 0.09 0.08 0.07 0.09 0.11 0.10 0.09 0.07 0.05 0.05 0.06 0.06 0.07 0.06 0.04 0.04 0.04
0.03 0.03 0.04 0.05 0.04 0.03 0.04 0.04 0.04 0.03 0.04 0.04 0.05 0.05 0.05 0.05 0.05 0.05 0.07 0.06 0.05 0.05 0.05 0.05 0.06 0.06 0.07 0.07 0.07 0.06 0.06 0.06 0.06 0.07 0.07 0.07 0.07 0.06 0.06 0.07 0.06 0.05 0.05
0.02 0.02 0.03 0.03 0.04 0.04 0.03 0.04 0.04 0.03 0.04 0.04 0.04 0.05 0.05 0.06 0.06 0.06 0.08 0.06 0.04 0.04 0.03 0.04 0.05 0.06 0.07 0.06 0.05 0.05 0.05 0.06 0.06 0.07 0.08 0.08 0.08 0.06 0.07 0.07 0.07 0.06 0.05

GEFSSE_prec_meanprec_252.txt.gz
QPF
0.01 0.01 0.01 0.00 0.01 0.01 0.01 0.00 0.00 0.00 0.01 0.01 0.01 0.01 0.01 0.01 0.01 0.01 0.01 0.01 0.01 0.01 0.01 0.01 0.01 0.01 0.01 0.01 0.01 0.01 0.01 0.01 0.01 0.01 0.01 0.01 0.01 0.02 0.03 0.03 0.04 0.05 0.07
0.01 0.00 0.00 0.01 0.01 0.01 0.01 0.00 0.00 0.01 0.01 0.01 0.01 0.01 0.01 0.01 0.01 0.01 0.01 0.01 0.01 0.02 0.01 0.01 0.01 0.01 0.01 0.02 0.02 0.01 0.01 0.01 0.01 0.01 0.02 0.02 0.01 0.02 0.03 0.03 0.04 0.08 0.09
0.01 0.01 0.00 0.01 0.01 0.01 0.01 0.01 0.01 0.01 0.02 0.03 0.02 0.02 0.02 0.02 0.02 0.02 0.02 0.02 0.02 0.03 0.02 0.02 0.02 0.02 0.02 0.02 0.03 0.01 0.02 0.01 0.01 0.02 0.03 0.03 0.02 0.03 0.04 0.03 0.04 0.05 0.05
0.01 0.01 0.00 0.01 0.01 0.01 0.01 0.01 0.01 0.01 0.02 0.03 0.03 0.03 0.03 0.04 0.04 0.04 0.03 0.03 0.04 0.04 0.04 0.04 0.02 0.03 0.03 0.03 0.03 0.02 0.03 0.02 0.03 0.03 0.03 0.04 0.03 0.04 0.06 0.06 0.04 0.04 0.04
0.02 0.02 0.01 0.01 0.01 0.01 0.01 0.02 0.01 0.01 0.01 0.02 0.03 0.04 0.05 0.05 0.06 0.06 0.05 0.05 0.05 0.06 0.05 0.05 0.05 0.05 0.04 0.04 0.05 0.03 0.04 0.03 0.03 0.04 0.04 0.05 0.05 0.05 0.07 0.08 0.05 0.04 0.04
0.08 0.05 0.02 0.02 0.01 0.01 0.02 0.02 0.02 0.02 0.01 0.02 0.02 0.03 0.04 0.05 0.06 0.07 0.07 0.06 0.06 0.06 0.06 0.05 0.05 0.07 0.07 0.06 0.06 0.05 0.05 0.04 0.04 0.04 0.05 0.05 0.06 0.05 0.06 0.06 0.06 0.04 0.03
0.10 0.12 0.03 0.02 0.02 0.02 0.02 0.02 0.03 0.02 0.02 0.03 0.03 0.03 0.03 0.04 0.05 0.07 0.07 0.06 0.07 0.07 0.07 0.06 0.06 0.09 0.12 0.10 0.08 0.06 0.05 0.05 0.04 0.03 0.05 0.03 0.03 0.04 0.07 0.06 0.06 0.05 0.03
0.07 0.10 0.03 0.02 0.03 0.03 0.02 0.02 0.03 0.04 0.04 0.04 0.03 0.03 0.03 0.04 0.05 0.06 0.06 0.06 0.06 0.06 0.06 0.06 0.06 0.07 0.12 0.18 0.14 0.08 0.05 0.04 0.04 0.03 0.04 0.03 0.03 0.05 0.07 0.07 0.06 0.06 0.03
0.06 0.06 0.03 0.03 0.03 0.03 0.03 0.03 0.04 0.04 0.04 0.03 0.03 0.03 0.04 0.04 0.04 0.05 0.06 0.07 0.07 0.07 0.06 0.06 0.07 0.08 0.09 0.16 0.19 0.12 0.06 0.05 0.03 0.05 0.06 0.03 0.03 0.05 0.05 0.05 0.05 0.04 0.03
0.14 0.09 0.08 0.07 0.07 0.06 0.05 0.04 0.04 0.04 0.03 0.03 0.04 0.04 0.05 0.05 0.04 0.05 0.05 0.06 0.06 0.06 0.06 0.06 0.08 0.11 0.09 0.13 0.18 0.16 0.08 0.06 0.04 0.05 0.03 0.03 0.03 0.04 0.03 0.03 0.03 0.02 0.02
0.19 0.13 0.10 0.12 0.11 0.09 0.08 0.05 0.05 0.04 0.05 0.06 0.07 0.06 0.06 0.07 0.07 0.07 0.06 0.07 0.05 0.05 0.06 0.06 0.08 0.09 0.08 0.11 0.13 0.14 0.09 0.05 0.03 0.04 0.03 0.04 0.04 0.05 0.04 0.03 0.03 0.02 0.02
0.17 0.13 0.10 0.11 0.12 0.11 0.09 0.10 0.10 0.08 0.07 0.08 0.08 0.09 0.10 0.10 0.08 0.07 0.08 0.10 0.07 0.05 0.05 0.06 0.06 0.07 0.08 0.08 0.09 0.10 0.08 0.05 0.05 0.05 0.04 0.04 0.04 0.04 0.04 0.04 0.04 0.02 0.02
0.09 0.12 0.11 0.09 0.12 0.14 0.15 0.16 0.13 0.12 0.10 0.10 0.10 0.10 0.11 0.09 0.07 0.07 0.08 0.06 0.05 0.06 0.05 0.05 0.05 0.05 0.06 0.06 0.07 0.08 0.06 0.06 0.06 0.04 0.05 0.04 0.04 0.05 0.05 0.05 0.05 0.04 0.03
0.06 0.09 0.10 0.08 0.10 0.16 0.19 0.20 0.17 0.12 0.09 0.09 0.10 0.09 0.11 0.10 0.07 0.07 0.08 0.07 0.07 0.06 0.06 0.06 0.06 0.05 0.05 0.04 0.05 0.05 0.06 0.06 0.06 0.06 0.05 0.05 0.05 0.05 0.05 0.05 0.04 0.05 0.05
0.05 0.07 0.11 0.10 0.12 0.16 0.19 0.17 0.14 0.11 0.09 0.09 0.09 0.10 0.11 0.09 0.06 0.06 0.07 0.07 0.06 0.07 0.07 0.05 0.05 0.06 0.05 0.05 0.06 0.06 0.07 0.08 0.08 0.09 0.07 0.05 0.04 0.04 0.04 0.04 0.04 0.04 0.04
0.03 0.05 0.09 0.10 0.10 0.13 0.18 0.17 0.10 0.08 0.10 0.11 0.09 0.09 0.09 0.08 0.05 0.06 0.07 0.07 0.06 0.07 0.07 0.05 0.05 0.07 0.07 0.06 0.07 0.07 0.08 0.09 0.08 0.08 0.08 0.06 0.04 0.03 0.03 0.03 0.03 0.04 0.04
0.04 0.04 0.06 0.07 0.06 0.07 0.13 0.16 0.14 0.10 0.10 0.10 0.08 0.07 0.07 0.07 0.07 0.07 0.07 0.07 0.06 0.06 0.05 0.05 0.06 0.07 0.07 0.06 0.06 0.08 0.09 0.09 0.10 0.09 0.08 0.06 0.05 0.04 0.03 0.02 0.02 0.03 0.03
0.04 0.05 0.05 0.05 0.04 0.04 0.07 0.06 0.05 0.07 0.08 0.08 0.07 0.06 0.05 0.06 0.07 0.08 0.06 0.05 0.06 0.05 0.05 0.05 0.06 0.07 0.07 0.06 0.07 0.08 0.09 0.10 0.08 0.10 0.08 0.06 0.05 0.04 0.04 0.04 0.04 0.03 0.03
0.05 0.06 0.06 0.07 0.06 0.06 0.06 0.05 0.03 0.04 0.07 0.07 0.06 0.05 0.04 0.05 0.05 0.05 0.04 0.05 0.06 0.06 0.05 0.04 0.06 0.07 0.07 0.07 0.06 0.07 0.09 0.09 0.08 0.07 0.06 0.05 0.04 0.03 0.03 0.04 0.06 0.05 0.04
0.04 0.06 0.07 0.08 0.10 0.10 0.08 0.06 0.04 0.03 0.04 0.06 0.06 0.04 0.03 0.03 0.03 0.04 0.04 0.05 0.06 0.06 0.06 0.06 0.07 0.09 0.09 0.09 0.08 0.08 0.09 0.09 0.07 0.05 0.04 0.03 0.03 0.02 0.02 0.03 0.05 0.05 0.04
0.03 0.04 0.04 0.08 0.09 0.08 0.08 0.06 0.04 0.04 0.03 0.04 0.05 0.04 0.03 0.03 0.03 0.04 0.04 0.05 0.07 0.06 0.06 0.06 0.08 0.09 0.09 0.11 0.12 0.10 0.09 0.08 0.08 0.06 0.05 0.03 0.02 0.01 0.02 0.03 0.03 0.03 0.04
0.02 0.03 0.04 0.06 0.07 0.08 0.07 0.06 0.04 0.04 0.03 0.03 0.03 0.04 0.04 0.04 0.05 0.04 0.04 0.05 0.06 0.07 0.07 0.09 0.10 0.10 0.09 0.12 0.12 0.12 0.12 0.11 0.09 0.08 0.08 0.06 0.03 0.02 0.02 0.02 0.02 0.02 0.02
0.01 0.02 0.04 0.06 0.08 0.08 0.07 0.07 0.06 0.06 0.05 0.04 0.04 0.05 0.04 0.03 0.03 0.04 0.04 0.04 0.05 0.07 0.06 0.08 0.12 0.13 0.10 0.12 0.13 0.13 0.12 0.12 0.10 0.08 0.08 0.08 0.06 0.05 0.03 0.01 0.01 0.02 0.02
0.02 0.03 0.04 0.08 0.10 0.09 0.10 0.10 0.07 0.06 0.06 0.06 0.06 0.05 0.04 0.03 0.04 0.04 0.04 0.05 0.06 0.07 0.06 0.06 0.09 0.10 0.09 0.08 0.10 0.12 0.12 0.12 0.11 0.10 0.09 0.09 0.09 0.08 0.07 0.04 0.03 0.02 0.03
0.03 0.03 0.04 0.05 0.05 0.07 0.10 0.12 0.09 0.08 0.08 0.07 0.06 0.06 0.05 0.04 0.04 0.04 0.05 0.06 0.06 0.06 0.06 0.06 0.08 0.09 0.09 0.08 0.07 0.08 0.12 0.13 0.13 0.10 0.08 0.09 0.09 0.09 0.08 0.06 0.04 0.03 0.03
0.04 0.03 0.04 0.04 0.03 0.04 0.06 0.08 0.09 0.08 0.08 0.08 0.08 0.07 0.06 0.05 0.05 0.04 0.05 0.07 0.08 0.07 0.06 0.07 0.08 0.08 0.09 0.09 0.08 0.08 0.07 0.08 0.10 0.11 0.09 0.08 0.09 0.07 0.07 0.07 0.06 0.05 0.05